[[{"header":{"parameterUnit":"m.s-1","parameterCategory":1,"la1":31.0,"la2":29.5877,"lo1":-88.7671,"lo2":-86.6584,"dy":0.0162,"dx":0.0185,"nx":115,"ny":88,"refTime":"2026-03-30T12:00:00:Z","depth":0,"parameterNumber":2,"parameterNumberName":"U-component_of_WINDS"},"data":[0.0,0.0,0.0,0.0,0.0,0.0,0.0,0.0,0.0,0.0,0.0,0.0,0.0,0.0,0.0,0.0,0.0,0.0,0.0,0.0,0.0,0.0,0.0,0.0,0.0,0.0,0.0,0.0,0.0,0.0,0.0,0.0,0.0,0.0,0.0,0.0,0.0,0.0,0.0,0.0,0.0,0.0,0.0,0.0,0.0,0.0,0.0,0.0,0.0,0.0,0.0,0.0,0.0,0.0,0.0,0.0,0.0,0.0,0.0,0.0,0.0,0.0,0.0,0.0,0.0,0.0,0.0,0.0,0.0,0.0,0.0,0.0,0.0,0.0,0.0,0.0,0.0,0.0,0.0,0.0,0.0,0.0,0.0,0.0,0.0,0.0,0.0,0.0,0.0,0.0,0.0,0.0,0.0,0.0,0.0,0.0,0.0,0.0,0.0,0.0,0.0,0.0,0.0,0.0,0.0,0.0,0.0,0.0,0.0,0.0,0.0,0.0,0.0,0.0,0.0,0.0,0.0,0.0,0.0,0.0,0.0,0.0,0.0,0.0,0.0,0.0,0.0,0.0,0.0,0.0,0.0,0.0,0.0,0.0,0.0,0.0,0.0,0.0,0.0,0.0,0.0,0.0,0.0,0.0,0.0,0.0,0.0,0.0,0.0,0.0,0.0,0.0,0.0,0.0,0.0,0.0,0.0,0.0,0.0,0.0,0.0,0.0,0.0,0.0,0.0,0.0,0.0,0.0,0.0,0.0,0.0,0.0,0.0,0.0,0.0,0.0,0.0,0.0,0.0,0.0,0.0,0.0,0.0,0.0,0.0,0.0,0.0,0.0,0.0,0.0,0.0,0.0,0.0,0.0,0.0,0.0,0.0,0.0,0.0,0.0,0.0,0.0,0.0,0.0,0.0,0.0,0.0,0.0,0.0,0.0,0.0,0.0,0.0,0.0,0.0,0.0,0.0,0.0,0.0,0.0,0.0,0.0,0.0,0.0,0.0,0.0,0.0,0.0,0.0,0.0,0.0,0.0,0.0,0.0,0.0,0.0,0.0,0.0,0.0,0.0,0.0,0.0,0.0,0.0,0.0,0.0,0.0,0.0,0.0,0.0,0.0,0.0,0.0,0.0,0.0,0.0,0.0,0.0,0.0,0.0,0.0,0.0,0.0,0.0,0.0,0.0,0.0,0.0,0.0,0.0,0.0,0.0,0.0,0.0,0.0,0.0,0.0,0.0,0.0,0.0,0.0,0.0,0.0,0.0,0.0,0.0,0.0,0.0,0.0,0.0,0.0,0.0,0.0,0.0,0.0,0.0,0.0,0.0,0.0,0.0,0.0,0.0,0.0,0.0,0.0,0.0,0.0,0.0,0.0,0.0,0.0,0.0,0.0,0.0,0.0,0.0,0.0,0.0,0.0,0.0,0.0,0.0,0.0,0.0,0.0,0.0,0.0,0.0,0.0,0.0,0.0,0.0,0.0,0.0,0.0,0.0,0.0,0.0,0.0,0.0,0.0,0.0,0.0,0.0,0.0,0.0,0.0,0.0,0.0,0.0,0.0,0.0,0.0,0.0,0.0,0.0,0.0,0.0,0.0,0.0,0.0,0.0,0.0,0.0,0.0,0.0,0.0,0.0,0.0,0.0,0.0,0.0,0.0,0.0,0.0,0.0,0.0,0.0,0.0,0.0,0.0,0.0,0.0,0.0,0.0,0.0,0.0,0.0,0.0,0.0,0.0,0.0,0.0,0.0,0.0,0.0,0.0,0.0,0.0,0.0,0.0,0.0,0.0,0.0,0.0,0.0,0.0,0.0,0.0,0.0,0.0,0.0,0.0,0.0,0.0,0.0,0.0,0.0,0.0,0.0,0.0,0.0,0.0,0.0,0.0,0.0,0.0,0.0,0.0,0.0,0.0,0.0,0.0,0.0,0.0,0.0,0.0,0.0,0.0,0.0,0.0,0.0,0.0,0.0,0.0,0.0,0.0,0.0,0.0,0.0,0.0,0.0,0.0,0.0,0.0,0.0,0.0,0.0,0.0,0.0,0.0,0.0,0.0,0.0,0.0,0.0,0.0,0.0,0.0,0.0,0.0,0.0,0.0,0.0,0.0,0.0,0.0,0.0,0.0,0.0,0.0,0.0,0.0,0.0,0.0,0.0,0.0,0.0,0.0,0.0,0.0,0.0,0.0,0.0,0.0,0.0,0.0,0.0,0.0,0.0,0.0,0.0,0.0,0.0,0.0,0.0,0.0,0.0,0.0,0.0,0.0,0.0,0.0,0.0,0.0,0.0,0.0,0.0,0.0,0.0,0.0,0.0,0.0,0.0,0.0,0.0,0.0,0.0,0.0,0.0,0.0,0.0,0.0,0.0,0.0,0.0,0.0,0.0,0.0,0.0,0.0,0.0,0.0,0.0,0.0,0.0,0.0,0.0,0.0,0.0,0.0,0.0,0.0,0.0,0.0,0.0,0.0,0.0,0.0,0.0,0.0,0.0,0.0,0.0,0.0,0.0,0.0,0.0,0.0,0.0,0.0,0.0,0.0,0.0,0.0,0.0,0.0,0.0,0.0,0.0,0.0,0.0,0.0,0.0,0.0,0.0,0.0,0.0,0.0,0.0,0.0,0.0,0.0,0.0,0.0,0.0,0.0,0.0,0.0,0.0,0.0,0.0,0.0,0.0,0.0,0.0,0.0,0.0,0.0,0.0,0.0,0.0,0.0,0.0,0.0,0.0,0.0,0.0,0.0,0.0,0.0,0.0,0.0,0.0,0.0,0.0,0.0,0.0,0.0,0.0,0.0,0.0,0.0,0.0,0.0,0.0,0.0,0.0,0.0,0.0,0.0,0.0,0.0,0.0,0.0,0.0,0.0,0.0,0.0,0.0,0.0,0.0,0.0,0.0,0.0,0.0,0.0,0.0,0.0,0.0,0.0,0.0,0.0,0.0,0.0,0.0,0.0,0.0,0.0,0.0,0.0,0.0,0.0,0.0,0.0,0.0,0.0,0.0,0.0,0.0,0.0,0.0,0.0,0.0,0.0,0.0,0.0,0.0,0.0,0.0,0.0,0.0,0.0,0.0,0.0,0.0,0.0,0.0,0.0,0.0,0.0,0.0,0.0,0.0,0.0,0.0,0.0,0.0,0.0,0.0,0.0,0.0,0.0,0.0,0.0,0.0,0.0,0.0,0.0,0.0,0.0,0.0,0.0,0.0,0.0,0.0,0.0,0.0,0.0,0.0,0.0,0.0,0.0,0.0,0.0,0.0,0.0,0.0,0.0,0.0,0.0,0.0,0.0,0.0,0.0,0.0,0.0,0.0,0.0,0.0,0.0,0.0,0.0,0.0,0.0,0.0,0.0,0.0,0.0,0.0,0.0,0.0,0.0,0.0,0.0,0.0,0.0,0.0,0.0,0.0,0.0,0.0,0.0,0.0,0.0,0.0,0.0,0.0,0.0,0.0,0.0,0.0,0.0,0.0,0.0,0.0,0.0,0.0,0.0,0.0,0.0,0.0,0.0,0.0,0.0,0.0,0.0,0.0,0.0,0.0,0.0,0.0,0.0,0.0,0.0,0.0,0.0,0.0,0.0,0.0,0.0,0.0,0.0,0.0,0.0,0.0,0.0,0.0,0.0,0.0,0.0,0.0,0.0,0.0,0.0,0.0,0.0,0.0,0.0,0.0,0.0,0.0,0.0,0.0,0.0,0.0,0.0,0.0,0.0,0.0,0.0,0.0,0.0,0.0,0.0,0.0,0.0,0.0,0.0,0.0,0.0,0.0,0.0,0.0,0.0,0.0,0.0,0.0,0.0,0.0,0.0,0.0,0.0,0.0,0.0,0.0,0.0,0.0,0.0,0.0,0.0,0.0,0.0,0.0,0.0,0.0,0.0,0.0,0.0,0.0,0.0,0.0,0.0,0.0,0.0,0.0,0.0,0.0,0.0,0.0,0.0,0.0,0.0,0.0,0.0,0.0,0.0,0.0,0.0,0.0,0.0,0.0,0.0,0.0,0.0,0.0,0.0,0.0,0.0,0.0,0.0,0.0,0.0,0.0,0.0,0.0,0.0,0.0,0.0,0.0,0.0,0.0,0.0,0.0,0.0,0.0,0.0,0.0,0.0,0.0,0.0,0.0,0.0,0.0,0.0,0.0,0.0,0.0,0.0,0.0,0.0,0.0,0.0,0.0,0.0,0.0,0.0,0.0,0.0,0.0,0.0,0.0,0.0,0.0,0.0,0.0,0.0,0.0,0.0,0.0,0.0,0.0,0.0,0.0,0.0,0.0,-2.3487,0.0,0.0,0.0,0.0,0.0,0.0,0.0,0.0,0.0,0.0,0.0,0.0,0.0,0.0,0.0,0.0,0.0,0.0,0.0,0.0,0.0,0.0,0.0,0.0,0.0,0.0,0.0,0.0,0.0,0.0,0.0,0.0,0.0,0.0,0.0,0.0,0.0,0.0,0.0,0.0,0.0,0.0,0.0,0.0,0.0,0.0,0.0,0.0,0.0,0.0,0.0,0.0,0.0,0.0,0.0,0.0,0.0,0.0,0.0,0.0,0.0,0.0,0.0,0.0,0.0,0.0,0.0,0.0,0.0,0.0,0.0,0.0,0.0,0.0,0.0,0.0,0.0,0.0,0.0,0.0,0.0,0.0,0.0,0.0,0.0,0.0,0.0,0.0,0.0,0.0,0.0,0.0,0.0,0.0,0.0,0.0,0.0,0.0,0.0,0.0,0.0,0.0,0.0,0.0,0.0,0.0,0.0,0.0,0.0,0.0,-2.6462,-2.6281,-2.5465,-2.488,-2.4556,0.0,0.0,0.0,0.0,0.0,0.0,0.0,0.0,0.0,0.0,0.0,0.0,0.0,0.0,0.0,0.0,0.0,0.0,0.0,0.0,0.0,0.0,0.0,0.0,0.0,0.0,0.0,0.0,0.0,0.0,0.0,0.0,0.0,0.0,0.0,0.0,0.0,0.0,0.0,0.0,0.0,0.0,0.0,0.0,0.0,0.0,0.0,0.0,0.0,0.0,0.0,0.0,0.0,0.0,0.0,0.0,0.0,0.0,0.0,0.0,0.0,0.0,0.0,0.0,0.0,0.0,0.0,0.0,0.0,0.0,0.0,0.0,0.0,0.0,0.0,0.0,0.0,0.0,0.0,0.0,0.0,0.0,0.0,0.0,0.0,0.0,0.0,0.0,0.0,0.0,0.0,0.0,0.0,0.0,0.0,0.0,0.0,0.0,0.0,0.0,0.0,0.0,0.0,0.0,0.0,0.0,0.0,0.0,0.0,0.0,0.0,0.0,-2.6149,-2.5427,-2.5188,0.0,0.0,0.0,0.0,0.0,0.0,0.0,0.0,0.0,0.0,0.0,0.0,0.0,0.0,0.0,0.0,0.0,0.0,0.0,0.0,0.0,0.0,0.0,0.0,0.0,0.0,0.0,0.0,0.0,0.0,0.0,0.0,0.0,0.0,0.0,0.0,0.0,0.0,0.0,0.0,0.0,0.0,0.0,0.0,0.0,0.0,0.0,0.0,0.0,0.0,0.0,0.0,0.0,0.0,0.0,0.0,0.0,0.0,0.0,0.0,0.0,0.0,0.0,0.0,0.0,0.0,0.0,0.0,0.0,0.0,0.0,0.0,0.0,0.0,0.0,0.0,0.0,0.0,0.0,0.0,0.0,0.0,0.0,0.0,0.0,0.0,0.0,0.0,0.0,0.0,0.0,0.0,0.0,0.0,0.0,0.0,0.0,0.0,0.0,0.0,0.0,0.0,0.0,0.0,0.0,0.0,0.0,0.0,0.0,0.0,-2.7775,-2.7651,-2.6481,0.0,-2.4477,0.0,0.0,0.0,0.0,0.0,0.0,0.0,0.0,0.0,0.0,0.0,0.0,0.0,0.0,0.0,0.0,0.0,0.0,0.0,0.0,0.0,0.0,0.0,0.0,0.0,0.0,0.0,0.0,0.0,0.0,0.0,0.0,0.0,0.0,0.0,0.0,0.0,0.0,0.0,0.0,0.0,0.0,0.0,0.0,0.0,0.0,0.0,0.0,0.0,0.0,0.0,0.0,0.0,0.0,0.0,0.0,0.0,0.0,0.0,0.0,0.0,0.0,0.0,0.0,0.0,0.0,0.0,0.0,0.0,0.0,0.0,0.0,0.0,0.0,0.0,0.0,0.0,0.0,0.0,0.0,0.0,0.0,0.0,0.0,0.0,0.0,0.0,0.0,0.0,0.0,0.0,0.0,0.0,0.0,0.0,0.0,0.0,0.0,0.0,0.0,0.0,0.0,0.0,0.0,0.0,0.0,0.0,0.0,0.0,0.0,-2.8533,-2.7989,-2.6779,-2.5657,0.0,0.0,0.0,0.0,0.0,0.0,0.0,0.0,0.0,0.0,0.0,0.0,0.0,0.0,0.0,0.0,0.0,0.0,0.0,0.0,0.0,0.0,0.0,0.0,0.0,0.0,0.0,0.0,0.0,0.0,0.0,0.0,0.0,0.0,0.0,0.0,0.0,0.0,0.0,0.0,0.0,0.0,0.0,0.0,0.0,0.0,0.0,0.0,0.0,0.0,0.0,0.0,0.0,0.0,0.0,0.0,0.0,0.0,0.0,0.0,0.0,0.0,0.0,0.0,0.0,0.0,0.0,0.0,0.0,0.0,0.0,0.0,0.0,0.0,0.0,0.0,0.0,0.0,0.0,0.0,0.0,0.0,0.0,0.0,0.0,0.0,0.0,0.0,0.0,0.0,0.0,0.0,0.0,0.0,0.0,0.0,0.0,0.0,0.0,0.0,0.0,0.0,0.0,0.0,0.0,0.0,0.0,0.0,0.0,0.0,-2.8802,-2.8529,-2.768,-2.6503,-2.5382,-2.4387,0.0,0.0,0.0,0.0,0.0,0.0,0.0,0.0,0.0,0.0,0.0,0.0,0.0,0.0,0.0,0.0,0.0,0.0,0.0,0.0,0.0,0.0,0.0,0.0,0.0,0.0,0.0,0.0,0.0,0.0,0.0,0.0,0.0,0.0,0.0,0.0,0.0,0.0,0.0,0.0,0.0,0.0,0.0,0.0,0.0,0.0,0.0,0.0,0.0,0.0,0.0,0.0,0.0,0.0,0.0,0.0,0.0,0.0,0.0,0.0,0.0,0.0,0.0,0.0,0.0,0.0,0.0,0.0,0.0,0.0,0.0,0.0,0.0,0.0,0.0,0.0,0.0,0.0,0.0,0.0,0.0,0.0,0.0,0.0,0.0,0.0,0.0,0.0,0.0,0.0,0.0,0.0,0.0,0.0,0.0,0.0,0.0,0.0,0.0,0.0,0.0,0.0,0.0,0.0,0.0,0.0,0.0,0.0,-2.8177,-2.7892,-2.7336,-2.6382,-2.5322,-2.4282,0.0,0.0,0.0,0.0,0.0,0.0,0.0,0.0,0.0,0.0,0.0,0.0,0.0,0.0,0.0,0.0,0.0,0.0,0.0,0.0,0.0,0.0,0.0,0.0,0.0,0.0,0.0,0.0,0.0,0.0,0.0,0.0,0.0,0.0,0.0,0.0,0.0,0.0,0.0,0.0,0.0,0.0,0.0,0.0,0.0,0.0,0.0,0.0,0.0,0.0,0.0,0.0,0.0,0.0,0.0,0.0,0.0,0.0,0.0,0.0,0.0,0.0,0.0,0.0,0.0,0.0,0.0,0.0,0.0,0.0,0.0,0.0,0.0,0.0,0.0,0.0,0.0,0.0,0.0,0.0,0.0,0.0,0.0,0.0,0.0,0.0,0.0,0.0,0.0,0.0,0.0,0.0,0.0,0.0,0.0,0.0,0.0,0.0,0.0,0.0,0.0,0.0,0.0,0.0,0.0,0.0,0.0,0.0,0.0,-2.672,-2.621,-2.5641,-2.4968,-2.4149,-2.3253,0.0,0.0,0.0,0.0,0.0,0.0,0.0,0.0,0.0,0.0,0.0,0.0,0.0,0.0,0.0,0.0,0.0,0.0,0.0,0.0,0.0,0.0,0.0,0.0,0.0,0.0,0.0,0.0,0.0,0.0,0.0,0.0,0.0,0.0,0.0,0.0,0.0,0.0,0.0,0.0,0.0,0.0,0.0,0.0,0.0,0.0,0.0,0.0,0.0,0.0,0.0,0.0,0.0,0.0,0.0,0.0,0.0,0.0,0.0,0.0,0.0,0.0,0.0,0.0,0.0,0.0,0.0,0.0,0.0,0.0,0.0,0.0,0.0,0.0,0.0,0.0,0.0,0.0,0.0,0.0,0.0,0.0,0.0,0.0,0.0,0.0,0.0,0.0,0.0,0.0,0.0,0.0,0.0,0.0,0.0,0.0,0.0,0.0,0.0,0.0,0.0,0.0,0.0,0.0,0.0,0.0,0.0,0.0,0.0,-2.5741,0.0,-2.5102,-2.4382,-2.3603,-2.2728,0.0,0.0,0.0,0.0,0.0,0.0,0.0,0.0,0.0,0.0,0.0,0.0,0.0,0.0,0.0,0.0,0.0,0.0,0.0,0.0,0.0,0.0,0.0,0.0,0.0,0.0,0.0,0.0,0.0,0.0,0.0,0.0,0.0,0.0,0.0,0.0,0.0,0.0,0.0,0.0,0.0,0.0,0.0,0.0,0.0,0.0,0.0,0.0,0.0,0.0,0.0,0.0,0.0,0.0,0.0,0.0,0.0,0.0,0.0,0.0,0.0,0.0,0.0,0.0,0.0,0.0,0.0,0.0,0.0,0.0,0.0,0.0,0.0,0.0,0.0,0.0,0.0,0.0,0.0,0.0,0.0,0.0,0.0,0.0,0.0,0.0,0.0,0.0,0.0,0.0,0.0,0.0,0.0,0.0,0.0,0.0,0.0,0.0,0.0,0.0,0.0,0.0,0.0,0.0,0.0,0.0,0.0,0.0,-2.4793,-2.53,-2.5979,-2.5812,-2.4815,-2.3728,-2.274,0.0,0.0,0.0,0.0,0.0,0.0,0.0,0.0,0.0,0.0,0.0,0.0,0.0,0.0,0.0,0.0,0.0,0.0,0.0,0.0,0.0,0.0,0.0,0.0,0.0,0.0,0.0,0.0,0.0,0.0,0.0,0.0,0.0,0.0,0.0,0.0,0.0,0.0,0.0,0.0,0.0,0.0,0.0,0.0,0.0,0.0,0.0,0.0,0.0,0.0,0.0,0.0,0.0,0.0,0.0,0.0,0.0,0.0,0.0,0.0,0.0,0.0,0.0,0.0,0.0,0.0,0.0,0.0,0.0,0.0,0.0,0.0,0.0,0.0,0.0,0.0,0.0,0.0,0.0,0.0,0.0,0.0,0.0,0.0,0.0,0.0,0.0,0.0,0.0,0.0,0.0,0.0,0.0,0.0,0.0,0.0,0.0,0.0,0.0,0.0,0.0,0.0,0.0,0.0,0.0,0.0,0.0,0.0,0.0,-2.4581,-2.5262,-2.5164,-2.4173,-2.3774,-2.299,0.0,0.0,0.0,0.0,0.0,0.0,0.0,0.0,0.0,0.0,0.0,0.0,0.0,0.0,0.0,0.0,0.0,0.0,0.0,0.0,0.0,0.0,0.0,0.0,0.0,0.0,0.0,0.0,0.0,0.0,0.0,0.0,0.0,0.0,0.0,0.0,0.0,0.0,0.0,0.0,0.0,0.0,0.0,0.0,0.0,0.0,0.0,0.0,0.0,0.0,0.0,0.0,0.0,0.0,0.0,0.0,0.0,0.0,0.0,0.0,0.0,0.0,0.0,0.0,0.0,0.0,0.0,0.0,0.0,0.0,0.0,0.0,0.0,0.0,0.0,0.0,0.0,0.0,0.0,0.0,0.0,0.0,0.0,0.0,0.0,0.0,0.0,0.0,0.0,0.0,0.0,0.0,0.0,0.0,0.0,0.0,0.0,0.0,0.0,0.0,0.0,0.0,0.0,0.0,0.0,0.0,0.0,0.0,0.0,-2.6116,-2.6565,-2.6214,-2.4987,-2.4781,-2.3981,-2.2535,0.0,0.0,0.0,0.0,0.0,0.0,0.0,0.0,0.0,0.0,0.0,0.0,0.0,0.0,0.0,0.0,0.0,0.0,0.0,0.0,0.0,0.0,0.0,0.0,0.0,0.0,0.0,0.0,0.0,0.0,0.0,0.0,0.0,0.0,0.0,0.0,0.0,0.0,0.0,0.0,0.0,0.0,0.0,0.0,0.0,0.0,0.0,0.0,0.0,0.0,0.0,0.0,0.0,0.0,0.0,0.0,0.0,0.0,0.0,0.0,0.0,0.0,0.0,0.0,0.0,0.0,0.0,0.0,0.0,0.0,0.0,0.0,0.0,0.0,0.0,0.0,0.0,0.0,0.0,0.0,0.0,0.0,0.0,0.0,0.0,0.0,0.0,0.0,0.0,0.0,0.0,0.0,0.0,0.0,0.0,0.0,0.0,0.0,0.0,0.0,0.0,0.0,0.0,0.0,0.0,0.0,0.0,0.0,-2.9412,-2.9581,-2.8883,-2.7234,-2.6647,-2.5636,0.0,0.0,0.0,0.0,0.0,0.0,0.0,0.0,0.0,0.0,0.0,0.0,0.0,0.0,0.0,0.0,0.0,0.0,0.0,0.0,0.0,0.0,0.0,0.0,0.0,0.0,0.0,0.0,0.0,0.0,0.0,0.0,0.0,0.0,0.0,0.0,0.0,0.0,0.0,0.0,0.0,0.0,0.0,0.0,0.0,0.0,0.0,0.0,0.0,0.0,0.0,0.0,0.0,0.0,0.0,0.0,0.0,0.0,0.0,0.0,0.0,0.0,0.0,0.0,0.0,0.0,0.0,0.0,0.0,0.0,0.0,0.0,0.0,0.0,0.0,0.0,0.0,0.0,0.0,0.0,0.0,0.0,0.0,0.0,0.0,0.0,0.0,0.0,0.0,0.0,0.0,0.0,0.0,0.0,0.0,0.0,0.0,0.0,0.0,0.0,0.0,0.0,0.0,0.0,0.0,0.0,0.0,0.0,0.0,-3.1023,-3.2947,-3.2827,-3.0518,-2.9532,-2.8153,0.0,0.0,0.0,0.0,0.0,0.0,0.0,0.0,0.0,0.0,0.0,0.0,0.0,0.0,0.0,0.0,0.0,0.0,0.0,0.0,0.0,0.0,0.0,0.0,0.0,0.0,0.0,0.0,0.0,0.0,0.0,0.0,0.0,0.0,0.0,0.0,0.0,0.0,0.0,0.0,0.0,0.0,0.0,0.0,0.0,0.0,0.0,0.0,0.0,0.0,0.0,0.0,0.0,0.0,0.0,0.0,0.0,0.0,0.0,0.0,0.0,0.0,0.0,0.0,0.0,0.0,0.0,0.0,0.0,0.0,0.0,0.0,0.0,0.0,0.0,0.0,0.0,0.0,0.0,0.0,0.0,0.0,0.0,0.0,0.0,0.0,0.0,0.0,0.0,0.0,0.0,0.0,0.0,0.0,0.0,0.0,0.0,0.0,0.0,0.0,0.0,0.0,0.0,0.0,0.0,0.0,0.0,0.0,-3.0855,-3.2635,-3.504,-3.5449,-3.3693,-3.201,-3.011,0.0,0.0,0.0,0.0,0.0,0.0,0.0,0.0,0.0,0.0,0.0,0.0,0.0,0.0,0.0,0.0,0.0,0.0,0.0,0.0,0.0,0.0,0.0,0.0,0.0,0.0,0.0,0.0,0.0,0.0,0.0,0.0,0.0,0.0,0.0,0.0,0.0,0.0,0.0,0.0,0.0,0.0,0.0,0.0,0.0,0.0,0.0,0.0,0.0,0.0,0.0,0.0,0.0,0.0,0.0,0.0,0.0,0.0,0.0,0.0,0.0,0.0,0.0,0.0,0.0,0.0,0.0,0.0,0.0,0.0,0.0,0.0,0.0,0.0,0.0,0.0,0.0,0.0,0.0,0.0,0.0,0.0,0.0,0.0,0.0,0.0,0.0,0.0,0.0,0.0,0.0,0.0,0.0,0.0,0.0,0.0,0.0,0.0,0.0,0.0,0.0,0.0,0.0,0.0,0.0,0.0,0.0,0.0,-3.2154,-3.4198,-3.629,-3.7108,-3.6531,-3.403,-3.1649,0.0,0.0,0.0,0.0,0.0,0.0,0.0,0.0,0.0,0.0,0.0,0.0,0.0,0.0,0.0,0.0,0.0,0.0,0.0,0.0,0.0,0.0,0.0,0.0,0.0,0.0,0.0,0.0,0.0,0.0,0.0,0.0,0.0,0.0,0.0,0.0,0.0,0.0,0.0,0.0,0.0,0.0,0.0,0.0,0.0,0.0,0.0,0.0,0.0,0.0,0.0,0.0,0.0,0.0,0.0,0.0,0.0,0.0,0.0,0.0,0.0,0.0,0.0,0.0,0.0,0.0,0.0,0.0,0.0,0.0,0.0,0.0,0.0,0.0,0.0,0.0,0.0,0.0,0.0,0.0,0.0,0.0,0.0,0.0,0.0,0.0,0.0,0.0,0.0,0.0,0.0,0.0,0.0,0.0,0.0,0.0,0.0,0.0,0.0,0.0,0.0,0.0,0.0,0.0,0.0,0.0,0.0,0.0,-3.3789,-3.5857,-3.7589,-3.8214,-3.7637,-3.5088,-3.2707,0.0,0.0,0.0,0.0,0.0,0.0,0.0,0.0,0.0,0.0,0.0,0.0,0.0,0.0,0.0,0.0,0.0,0.0,0.0,0.0,0.0,0.0,0.0,0.0,0.0,0.0,0.0,0.0,0.0,0.0,0.0,0.0,0.0,0.0,0.0,0.0,0.0,0.0,0.0,0.0,0.0,0.0,0.0,0.0,0.0,0.0,0.0,0.0,-2.5394,0.0,0.0,0.0,0.0,0.0,0.0,0.0,0.0,0.0,0.0,0.0,0.0,0.0,0.0,0.0,0.0,0.0,0.0,0.0,0.0,0.0,0.0,0.0,0.0,0.0,0.0,0.0,0.0,0.0,0.0,0.0,0.0,0.0,0.0,0.0,0.0,0.0,0.0,0.0,0.0,0.0,0.0,0.0,0.0,0.0,0.0,0.0,0.0,0.0,0.0,0.0,0.0,0.0,0.0,0.0,0.0,0.0,0.0,0.0,-3.4919,-3.6723,-3.8118,-3.8551,-3.795,-3.5905,-3.3789,0.0,0.0,0.0,0.0,0.0,0.0,0.0,0.0,0.0,0.0,0.0,0.0,0.0,0.0,0.0,0.0,0.0,0.0,0.0,0.0,0.0,0.0,0.0,0.0,0.0,0.0,0.0,0.0,0.0,0.0,0.0,0.0,0.0,0.0,0.0,0.0,0.0,0.0,0.0,0.0,0.0,0.0,0.0,0.0,0.0,0.0,0.0,0.0,0.0,0.0,0.0,0.0,0.0,0.0,0.0,0.0,0.0,0.0,0.0,0.0,0.0,0.0,0.0,0.0,0.0,0.0,0.0,0.0,0.0,0.0,0.0,0.0,0.0,0.0,0.0,0.0,0.0,0.0,0.0,0.0,0.0,0.0,0.0,0.0,0.0,0.0,0.0,0.0,0.0,0.0,0.0,0.0,0.0,0.0,0.0,0.0,0.0,0.0,0.0,0.0,0.0,0.0,0.0,0.0,0.0,0.0,0.0,-3.3549,-3.5905,-3.7397,-3.8503,-3.8767,-3.8118,-3.6483,-3.4607,-3.2442,0.0,0.0,0.0,0.0,0.0,0.0,0.0,0.0,0.0,0.0,0.0,0.0,0.0,0.0,0.0,0.0,0.0,0.0,0.0,0.0,0.0,0.0,0.0,0.0,0.0,0.0,0.0,0.0,0.0,0.0,0.0,0.0,0.0,0.0,0.0,0.0,0.0,0.0,-2.3477,-2.3681,0.0,0.0,0.0,0.0,0.0,0.0,0.0,0.0,-2.6274,0.0,0.0,0.0,0.0,0.0,0.0,0.0,0.0,0.0,0.0,0.0,0.0,0.0,0.0,0.0,0.0,0.0,0.0,0.0,0.0,0.0,0.0,0.0,0.0,0.0,0.0,0.0,0.0,0.0,0.0,0.0,0.0,0.0,0.0,0.0,0.0,0.0,0.0,0.0,0.0,0.0,0.0,0.0,0.0,0.0,0.0,0.0,0.0,0.0,0.0,0.0,0.0,0.0,0.0,0.0,0.0,-3.1452,-3.4968,-3.7372,-3.8527,-3.9585,-3.9657,-3.8671,-3.6699,-3.4414,-3.1958,0.0,0.0,0.0,0.0,0.0,0.0,0.0,0.0,0.0,0.0,0.0,0.0,0.0,0.0,0.0,0.0,0.0,0.0,0.0,0.0,0.0,0.0,0.0,0.0,0.0,0.0,0.0,0.0,0.0,0.0,0.0,0.0,0.0,0.0,0.0,0.0,0.0,0.0,0.0,-2.4445,-2.4703,0.0,0.0,0.0,0.0,0.0,0.0,0.0,0.0,-2.6312,0.0,0.0,0.0,0.0,0.0,0.0,0.0,0.0,0.0,0.0,0.0,0.0,0.0,0.0,0.0,0.0,0.0,0.0,0.0,0.0,0.0,0.0,0.0,0.0,0.0,0.0,0.0,0.0,0.0,0.0,0.0,0.0,0.0,0.0,0.0,0.0,0.0,0.0,0.0,0.0,0.0,0.0,0.0,0.0,0.0,0.0,0.0,0.0,0.0,0.0,0.0,0.0,0.0,0.0,0.0,-3.3308,-3.6435,-3.8551,-3.9609,-4.0138,-3.9753,-3.8407,-3.6314,-3.3958,0.0,0.0,0.0,0.0,0.0,0.0,0.0,0.0,0.0,0.0,0.0,0.0,0.0,0.0,0.0,0.0,0.0,0.0,0.0,0.0,0.0,0.0,0.0,0.0,0.0,0.0,0.0,0.0,0.0,0.0,0.0,0.0,0.0,0.0,0.0,0.0,0.0,0.0,0.0,0.0,-2.4488,-2.4809,-2.4775,0.0,0.0,0.0,0.0,0.0,0.0,-2.6417,-2.5806,0.0,0.0,0.0,0.0,0.0,0.0,0.0,0.0,0.0,0.0,0.0,0.0,0.0,0.0,0.0,0.0,0.0,0.0,0.0,0.0,0.0,0.0,0.0,0.0,0.0,0.0,0.0,0.0,0.0,0.0,0.0,0.0,0.0,0.0,0.0,0.0,0.0,0.0,0.0,0.0,0.0,0.0,0.0,0.0,0.0,0.0,0.0,0.0,0.0,0.0,0.0,0.0,0.0,0.0,0.0,-3.4605,-3.7407,-3.9275,-4.0161,-4.0329,-3.9507,-3.7756,-3.5628,-3.3243,0.0,0.0,0.0,0.0,0.0,0.0,0.0,0.0,0.0,0.0,0.0,0.0,0.0,0.0,0.0,0.0,0.0,0.0,0.0,0.0,0.0,0.0,0.0,0.0,0.0,0.0,0.0,0.0,0.0,0.0,0.0,0.0,0.0,0.0,0.0,0.0,0.0,0.0,0.0,0.0,0.0,-2.4988,-2.4907,-2.499,0.0,0.0,0.0,0.0,-2.6493,-2.6249,0.0,0.0,0.0,0.0,0.0,0.0,0.0,0.0,0.0,0.0,0.0,0.0,0.0,0.0,0.0,0.0,0.0,0.0,0.0,0.0,0.0,0.0,0.0,0.0,0.0,0.0,0.0,0.0,0.0,0.0,0.0,0.0,0.0,0.0,0.0,0.0,0.0,0.0,0.0,0.0,0.0,0.0,0.0,0.0,0.0,0.0,0.0,0.0,0.0,0.0,0.0,0.0,0.0,0.0,0.0,0.0,-3.4066,-3.7156,-3.8972,-3.9504,-3.9951,-3.9108,-3.6897,-3.4611,-3.2085,0.0,0.0,0.0,0.0,0.0,0.0,0.0,0.0,0.0,0.0,0.0,0.0,0.0,0.0,0.0,0.0,0.0,0.0,0.0,0.0,0.0,0.0,0.0,0.0,0.0,0.0,0.0,0.0,0.0,0.0,0.0,0.0,0.0,0.0,0.0,0.0,0.0,0.0,0.0,0.0,0.0,-2.5961,-2.6188,-2.6022,-2.5996,0.0,0.0,-2.6816,-2.7297,-2.7285,0.0,0.0,0.0,0.0,0.0,0.0,0.0,0.0,0.0,0.0,0.0,0.0,0.0,0.0,0.0,0.0,0.0,0.0,0.0,0.0,0.0,0.0,0.0,0.0,0.0,0.0,0.0,0.0,0.0,0.0,0.0,0.0,0.0,0.0,0.0,0.0,0.0,0.0,0.0,0.0,0.0,0.0,0.0,0.0,0.0,0.0,0.0,0.0,0.0,0.0,0.0,0.0,0.0,0.0,0.0,-3.0882,-3.4407,-3.689,-3.8537,-3.9291,-3.9499,-3.847,-3.595,-3.3772,-3.1337,0.0,0.0,0.0,0.0,0.0,0.0,0.0,0.0,0.0,0.0,0.0,0.0,0.0,0.0,0.0,0.0,0.0,0.0,0.0,0.0,0.0,0.0,0.0,0.0,0.0,0.0,0.0,0.0,0.0,0.0,0.0,0.0,0.0,0.0,0.0,0.0,0.0,0.0,0.0,0.0,0.0,0.0,-2.6478,-2.6623,0.0,0.0,0.0,-2.6886,-2.758,0.0,0.0,0.0,0.0,0.0,0.0,0.0,0.0,0.0,0.0,0.0,0.0,0.0,0.0,0.0,0.0,0.0,0.0,0.0,0.0,0.0,0.0,0.0,0.0,0.0,0.0,0.0,0.0,0.0,0.0,0.0,0.0,0.0,0.0,0.0,0.0,0.0,0.0,0.0,0.0,0.0,0.0,0.0,0.0,0.0,0.0,0.0,0.0,0.0,0.0,0.0,0.0,0.0,0.0,0.0,0.0,0.0,-3.4327,-3.6349,-3.7849,-3.8789,-3.8789,-3.7569,-3.5135,-3.3009,0.0,0.0,0.0,0.0,0.0,0.0,0.0,0.0,0.0,0.0,0.0,0.0,0.0,0.0,0.0,0.0,0.0,0.0,0.0,0.0,0.0,0.0,0.0,0.0,0.0,0.0,0.0,-1.6992,0.0,0.0,0.0,0.0,0.0,0.0,0.0,0.0,0.0,0.0,0.0,0.0,0.0,0.0,-2.6811,-2.7013,-2.738,-2.7636,0.0,0.0,-2.7398,-2.8042,-2.8333,-2.7914,0.0,0.0,0.0,0.0,0.0,0.0,0.0,0.0,0.0,0.0,0.0,0.0,0.0,0.0,0.0,0.0,0.0,0.0,0.0,0.0,0.0,0.0,0.0,0.0,0.0,0.0,0.0,0.0,0.0,0.0,0.0,0.0,0.0,0.0,0.0,0.0,0.0,0.0,0.0,0.0,0.0,0.0,0.0,0.0,0.0,0.0,0.0,0.0,0.0,0.0,0.0,0.0,0.0,0.0,-2.9085,-3.3143,-3.5119,-3.6568,-3.7511,-3.7555,-3.6556,-3.4389,-3.2392,-3.0276,0.0,0.0,0.0,0.0,0.0,0.0,0.0,0.0,0.0,0.0,0.0,0.0,0.0,0.0,0.0,0.0,0.0,0.0,0.0,0.0,0.0,0.0,0.0,0.0,0.0,0.0,0.0,0.0,0.0,0.0,0.0,0.0,0.0,0.0,0.0,0.0,0.0,0.0,0.0,0.0,0.0,-2.7416,-2.8168,-2.8608,-2.8865,0.0,-2.8847,-2.8847,-2.8883,-2.892,-2.8318,-2.6547,0.0,0.0,0.0,0.0,0.0,0.0,0.0,0.0,0.0,0.0,0.0,0.0,0.0,0.0,0.0,0.0,0.0,0.0,0.0,0.0,0.0,0.0,0.0,0.0,0.0,0.0,0.0,0.0,0.0,0.0,0.0,0.0,0.0,0.0,0.0,0.0,0.0,0.0,0.0,0.0,0.0,0.0,0.0,0.0,0.0,0.0,0.0,0.0,0.0,0.0,0.0,0.0,0.0,-2.7893,-3.1561,-3.3699,-3.5265,-3.6114,-3.6135,-3.5365,-3.3587,-3.1943,-3.0037,0.0,0.0,0.0,0.0,0.0,0.0,0.0,0.0,0.0,0.0,0.0,0.0,0.0,0.0,0.0,0.0,0.0,0.0,0.0,0.0,0.0,0.0,0.0,0.0,0.0,0.0,0.0,0.0,-1.8008,-1.8125,-1.8008,0.0,0.0,0.0,0.0,0.0,0.0,0.0,0.0,0.0,0.0,-2.8223,-2.9012,-2.947,0.0,0.0,-2.9727,-2.9635,-2.9397,-2.936,-2.8722,-2.6774,-2.4849,0.0,0.0,0.0,0.0,0.0,0.0,0.0,0.0,0.0,0.0,0.0,0.0,0.0,0.0,0.0,0.0,0.0,0.0,0.0,0.0,0.0,0.0,0.0,0.0,0.0,0.0,0.0,0.0,0.0,0.0,0.0,0.0,0.0,0.0,0.0,0.0,0.0,0.0,0.0,0.0,0.0,0.0,0.0,0.0,0.0,0.0,0.0,0.0,0.0,0.0,0.0,0.0,-2.7064,-3.0401,-3.2662,-3.4245,-3.5087,-3.5087,-3.4411,-3.3015,-3.1742,-3.0032,0.0,0.0,0.0,0.0,0.0,0.0,0.0,0.0,0.0,0.0,0.0,0.0,0.0,0.0,0.0,0.0,0.0,0.0,0.0,0.0,0.0,0.0,0.0,0.0,0.0,0.0,0.0,0.0,-1.8695,-1.8637,-1.8208,0.0,0.0,0.0,0.0,0.0,0.0,0.0,0.0,0.0,0.0,-2.859,-2.9599,-3.002,-3.0277,-3.0516,-3.0351,-3.0057,-2.9635,-2.9329,-2.848,-2.6848,0.0,0.0,0.0,0.0,0.0,0.0,0.0,0.0,0.0,0.0,0.0,0.0,0.0,0.0,0.0,0.0,0.0,0.0,0.0,0.0,0.0,0.0,0.0,0.0,0.0,0.0,0.0,-2.5288,0.0,0.0,-2.5288,0.0,0.0,0.0,0.0,0.0,0.0,0.0,0.0,0.0,0.0,0.0,0.0,0.0,0.0,0.0,0.0,0.0,0.0,0.0,0.0,0.0,0.0,-2.66,-2.9755,-3.1968,-3.3518,-3.4383,-3.4423,-3.3897,-3.2753,-3.1918,-3.0388,-2.8021,0.0,0.0,0.0,0.0,0.0,0.0,0.0,0.0,0.0,0.0,0.0,0.0,0.0,0.0,0.0,0.0,0.0,0.0,0.0,0.0,0.0,0.0,0.0,0.0,0.0,0.0,-1.9727,-1.9492,-1.9082,0.0,0.0,0.0,0.0,0.0,0.0,0.0,0.0,0.0,-2.5531,-2.6975,-2.8428,-2.9947,-3.0204,-3.0479,-3.1212,-3.0699,-3.0057,-2.9678,-2.8572,-2.7583,0.0,0.0,0.0,0.0,0.0,0.0,0.0,0.0,0.0,0.0,0.0,0.0,0.0,0.0,0.0,0.0,0.0,0.0,0.0,0.0,0.0,0.0,0.0,0.0,0.0,0.0,0.0,-2.6813,-2.6465,0.0,0.0,0.0,0.0,0.0,0.0,0.0,0.0,0.0,0.0,0.0,-2.7585,-2.8312,0.0,0.0,0.0,0.0,0.0,0.0,0.0,0.0,0.0,0.0,0.0,0.0,-2.5976,-2.8745,-3.121,-3.2885,-3.3713,-3.3733,-3.3395,-3.2782,-3.1955,-2.9766,-2.6202,0.0,0.0,0.0,0.0,0.0,0.0,0.0,0.0,0.0,0.0,0.0,0.0,0.0,0.0,0.0,0.0,0.0,0.0,0.0,0.0,0.0,0.0,0.0,0.0,0.0,-1.9492,0.0,0.0,0.0,0.0,0.0,0.0,0.0,0.0,0.0,0.0,0.0,-2.4925,-2.6864,-2.7939,-2.8938,-3.0309,-3.0549,-3.0681,0.0,0.0,0.0,0.0,0.0,0.0,0.0,0.0,0.0,0.0,0.0,0.0,0.0,0.0,-2.6664,-2.5729,-2.5674,-2.5637,-2.5234,0.0,0.0,0.0,0.0,0.0,0.0,0.0,0.0,0.0,0.0,0.0,0.0,0.0,0.0,-2.7943,-2.7608,-2.6825,0.0,0.0,0.0,0.0,0.0,0.0,0.0,0.0,-2.968,-3.0172,-2.9507,-3.0233,-3.0112,0.0,-2.9298,-2.7814,0.0,0.0,0.0,0.0,0.0,0.0,0.0,0.0,-2.623,-2.8516,-3.1211,-3.2871,-3.3379,-3.3418,-3.3223,-3.2793,-3.168,-2.9453,-2.6143,-2.4473,-2.2637,0.0,0.0,0.0,0.0,0.0,0.0,0.0,0.0,0.0,0.0,0.0,0.0,0.0,0.0,0.0,0.0,0.0,0.0,0.0,0.0,0.0,0.0,0.0,-2.0137,0.0,0.0,0.0,0.0,0.0,0.0,0.0,0.0,0.0,-2.3614,-2.4832,-2.6205,-2.7559,-2.8181,-2.8869,-2.9941,0.0,0.0,0.0,0.0,0.0,0.0,0.0,-2.7563,-2.7435,-2.7196,-2.7196,-2.7746,-2.8053,-2.8373,-2.8763,0.0,0.0,-2.8458,-2.8462,-2.8517,-2.8113,-2.8058,-2.7873,-2.7282,-2.7118,-2.6959,0.0,0.0,0.0,0.0,-2.9827,0.0,0.0,0.0,-2.9062,-2.8828,0.0,-2.7522,0.0,0.0,0.0,0.0,-2.582,-2.7063,0.0,0.0,-3.121,-3.1973,-3.1562,-3.2013,-3.1798,-3.0976,-3.0898,-3.0057,-2.8276,-2.5889,0.0,0.0,0.0,0.0,0.0,0.0,-2.7226,-2.8965,-3.1855,-3.3398,-3.3418,-3.3418,-3.3203,-3.2754,-3.1152,-2.9473,-2.7826,-2.6484,-2.4777,-2.2695,-2.1756,0.0,0.0,0.0,0.0,0.0,0.0,0.0,0.0,0.0,0.0,0.0,0.0,0.0,0.0,0.0,0.0,0.0,0.0,0.0,0.0,-2.1249,0.0,0.0,0.0,0.0,0.0,0.0,0.0,0.0,0.0,0.0,-2.4666,-2.5722,-2.6625,-2.7541,0.0,0.0,0.0,0.0,-2.9404,-3.0242,-2.9977,-2.9651,-2.9681,-2.9052,-2.8608,-2.8993,0.0,0.0,-3.0185,-3.0311,-3.0165,-2.9818,-3.0092,-3.0526,-3.1081,-3.1111,-3.1048,-3.0701,-3.051,-3.0555,-3.0226,-2.9592,-2.9346,-3.5292,0.0,0.0,0.0,0.0,-3.2147,-3.2361,-3.2473,-3.1726,-3.1208,-3.0739,-2.9424,0.0,0.0,0.0,0.0,0.0,0.0,-2.9113,-3.0214,-3.2193,-3.2832,-3.2441,-3.2851,-3.2773,-3.2246,-3.1953,-3.123,-3.0117,-2.8815,-2.6901,-2.4428,0.0,0.0,0.0,0.0,-2.7383,-2.9394,-3.1758,-3.3125,-3.3418,-3.3418,-3.3086,-3.2424,-3.1562,-3.0469,-2.9117,-2.8086,-2.6719,-2.4855,-2.3984,0.0,0.0,0.0,0.0,0.0,0.0,0.0,0.0,0.0,0.0,0.0,0.0,0.0,0.0,0.0,0.0,0.0,0.0,0.0,-2.1511,-2.1912,-2.1697,0.0,0.0,0.0,0.0,0.0,0.0,0.0,0.0,0.0,-2.4998,-2.5755,-2.6418,0.0,0.0,-2.7628,-2.8094,-2.8028,-2.818,-2.8954,-2.9196,0.0,-2.9669,-2.9958,-3.0241,-3.0626,-3.1433,-3.2184,-3.268,-3.2322,-3.1764,-3.1132,-3.0684,-3.0246,-2.9887,-3.0276,-3.0452,-3.0105,-3.0209,-3.0327,-2.9948,-2.9592,-2.916,-3.6943,-3.5124,-3.4553,-3.4124,-3.3901,-3.4108,-3.4391,-3.4604,-3.3739,-3.3196,-3.2774,-3.1365,-3.0077,-2.8918,-2.8095,0.0,0.0,0.0,-3.0754,-3.1801,-3.3422,-3.3965,-3.3594,-3.3984,-3.3887,-3.3301,-3.3047,-3.248,-3.1641,-3.1113,-2.9766,-2.7578,0.0,0.0,-2.5703,-2.7012,-2.8457,-3.0098,-3.2207,-3.334,-3.3418,-3.3418,-3.3027,-3.2207,-3.1914,-3.1152,-2.9863,-2.916,-2.8086,-2.6562,-2.546,-2.4121,0.0,0.0,0.0,0.0,0.0,0.0,0.0,0.0,0.0,0.0,0.0,-1.6843,-1.7194,0.0,0.0,0.0,-1.9773,-2.0594,-2.1482,-2.1871,0.0,0.0,0.0,0.0,0.0,0.0,0.0,-2.2441,-2.3162,-2.3891,-2.4702,-2.5454,-2.6133,-2.6757,-2.7126,-2.7442,-2.767,0.0,-2.7733,-2.8323,-2.8659,-2.9043,-2.9436,-3.0,-3.0544,-3.1144,-3.1737,-3.2429,-3.2822,-3.2333,-3.1525,-3.0747,-3.0036,-2.925,-2.8501,-2.8743,-2.9244,-2.9649,-2.9851,-2.9967,-2.9847,-2.945,-2.8885,-3.8104,-3.7221,-3.604,-3.5562,-3.5695,-3.5711,-3.5865,-3.6035,-3.5215,-3.4844,-3.4668,-3.3086,-3.1875,-3.0976,-2.9726,0.0,-3.1074,-3.1894,-3.2676,-3.3516,-3.4785,-3.5156,-3.4785,-3.5215,-3.498,-3.4121,-3.4121,-3.3652,-3.2812,-3.2773,-3.2383,-3.1484,-2.7916,-2.6777,-2.7982,-2.9137,-3.0117,-3.0996,-3.2988,-3.3828,-3.3437,-3.3418,-3.3027,-3.2187,-3.2229,-3.1562,-3.0312,-2.9883,-2.9156,-2.7851,-2.6621,-2.5332,-2.4004,0.0,0.0,0.0,0.0,0.0,0.0,0.0,0.0,0.0,0.0,0.0,0.0,0.0,0.0,0.0,-2.0201,0.0,-2.1267,-2.1526,0.0,0.0,0.0,-2.0653,-2.1536,-2.1827,-2.222,-2.2871,0.0,0.0,-2.4159,-2.4993,-2.5906,-2.6833,-2.7254,-2.7471,-2.7531,-2.7485,-2.7617,-2.8019,-2.8297,-2.8643,-2.9077,-2.9461,-2.9885,-3.0564,-3.0751,-3.0956,-3.1262,-3.0764,-2.9981,-2.925,-2.846,-2.7695,-2.6998,-2.691,-2.7378,-2.8997,-2.9362,-2.9603,-2.9707,-2.9266,-2.8522,-3.7995,-3.7707,-3.7411,-3.7001,-3.6636,-3.6761,-3.6917,-3.6934,-3.6426,-3.6016,-3.5625,-3.457,-3.3437,-3.2305,-3.168,-3.1738,-3.2363,-3.2891,-3.3418,-3.3965,-3.4941,-3.5332,-3.5254,-3.5664,-3.541,-3.459,-3.4551,-3.3945,-3.2832,-3.2793,-3.2539,-3.1973,-3.0762,-3.0137,-3.0137,-3.043,-3.1016,-3.1916,-3.2988,-3.3535,-3.3418,-3.3418,-3.3027,-3.2187,-3.2229,-3.1719,-3.0762,-3.0625,-3.0117,-2.9215,-2.8203,-2.6953,-2.5304,-2.3652,0.0,0.0,0.0,0.0,0.0,0.0,0.0,0.0,0.0,-1.8176,-1.9373,0.0,-1.9846,0.0,-2.087,-2.1627,-2.222,-2.2794,0.0,0.0,-2.2156,-2.2107,-2.2728,-2.3057,-2.3459,-2.4014,-2.4479,-2.4832,-2.5154,-2.5608,-2.607,-2.6578,-2.6877,-2.7117,-2.7135,-2.6907,-2.6951,-2.7583,-2.7768,-2.7998,-2.8696,-2.9145,-2.9363,-2.9573,-2.9589,-2.9622,-2.9702,-2.9162,-2.8388,-2.7593,-2.6867,-2.6178,-2.5662,-2.5568,-2.5834,-2.6703,-2.7473,-2.8029,-2.8297,-2.801,-2.7557,-3.8203,-3.8223,-3.8223,-3.8007,-3.7658,-3.7755,-3.7869,-3.7832,-3.7402,-3.709,-3.6816,-3.5957,-3.5078,-3.4238,-3.3984,-3.4004,-3.4238,-3.4473,-3.4707,-3.4961,-3.5449,-3.5664,-3.5684,-3.5918,-3.5762,-3.5293,-3.4883,-3.4336,-3.3652,-3.3457,-3.3242,-3.309,-3.2949,-3.2734,-3.2305,-3.1738,-3.1777,-3.2441,-3.3086,-3.3418,-3.3418,-3.3242,-3.2832,-3.2207,-3.1973,-3.1465,-3.0625,-3.0586,-3.0176,-2.9316,-2.8476,-2.7402,-2.6074,-2.4394,-2.2559,0.0,0.0,0.0,0.0,0.0,0.0,0.0,0.0,0.0,0.0,0.0,-2.0525,-2.0548,-2.0804,-2.1293,-2.2134,-2.2746,-2.3197,-2.3262,-2.3049,-2.3117,-2.3521,-2.4064,-2.4471,-2.4908,-2.5437,-2.5813,-2.6135,-2.6339,-2.6515,-2.6691,-2.6881,-2.6998,-2.6998,-2.6765,-2.6838,-2.7274,-2.7463,-2.768,-2.813,-2.8171,-2.8228,-2.8228,-2.8213,-2.8228,-2.8213,-2.7738,-2.71,-2.6517,-2.5946,-2.5469,-2.516,-2.5077,-2.5277,-2.5859,-2.6274,-2.6654,-2.7122,-2.7052,-2.6821,-3.8574,-3.8574,-3.8574,-3.8574,-3.8574,-3.8574,-3.8574,-3.8555,-3.8184,-3.7988,-3.7871,-3.709,-3.6504,-3.6113,-3.6094,-3.6074,-3.6035,-3.6035,-3.6035,-3.6035,-3.6035,-3.6035,-3.6035,-3.6074,-3.6035,-3.5898,-3.5156,-3.4726,-3.4609,-3.4258,-3.4062,-3.4082,-3.4492,-3.4492,-3.4043,-3.2969,-3.2559,-3.2871,-3.3242,-3.3418,-3.3418,-3.3008,-3.2598,-3.2168,-3.1699,-3.1016,-3.0176,-3.0117,-2.9726,-2.8887,-2.8144,-2.7363,-2.6484,-2.4922,-2.3301,0.0,-2.0893,0.0,0.0,0.0,0.0,0.0,0.0,0.0,0.0,-2.1213,-2.1248,-2.107,-2.0679,-2.0867,-2.1789,-2.2447,-2.3032,-2.3588,-2.3662,-2.3808,-2.4218,-2.4803,-2.5315,-2.5666,-2.6252,-2.6735,-2.691,-2.6998,-2.6983,-2.6969,-2.6983,-2.6998,-2.6998,-2.6983,-2.6998,-2.6998,-2.7304,-2.7451,-2.7349,-2.7115,-2.6895,-2.6881,-2.6779,-2.6721,-2.675,-2.6414,-2.6019,-2.5726,-2.5373,-2.5127,-2.5152,-2.5144,-2.5344,-2.5905,-2.5862,-2.5886,-2.6276,-2.6356,-2.6279,-3.8574,-3.8574,-3.8574,-3.8574,-3.8574,-3.8574,-3.8574,-3.8574,-3.8476,-3.8262,-3.7891,-3.7402,-3.6934,-3.6562,-3.6543,-3.6348,-3.6035,-3.6035,-3.6035,-3.6035,-3.6035,-3.6035,-3.6055,-3.6387,-3.6191,-3.5527,-3.5332,-3.4883,-3.4199,-3.4121,-3.4062,-3.4082,-3.4492,-3.4492,-3.4082,0.0,0.0,0.0,-3.3379,-3.3418,-3.3398,-3.3008,-3.2598,-3.2168,-3.1406,0.0,-2.9746,-2.9687,-2.9297,-2.8476,-2.8262,0.0,0.0,0.0,0.0,0.0,0.0,0.0,0.0,0.0,0.0,0.0,-2.1512,-2.1751,-2.1713,-2.1756,-2.1821,-2.1877,-2.1861,-2.2096,-2.2784,-2.3427,-2.3852,-2.3969,-2.3998,-2.432,-2.514,-2.5593,-2.6047,-2.6647,-2.7056,-2.7203,-2.7027,-2.6998,-2.6998,-2.6998,-2.6998,-2.6998,-2.6998,-2.6998,-2.6998,-2.7013,-2.7056,-2.6872,-2.6452,-2.6391,-2.6198,-2.5848,-2.5582,-2.552,-2.548,-2.5228,-2.4931,-2.4857,-2.4784,-2.4884,-2.5317,-2.5424,-2.5598,-2.6186,-2.6066,-2.5983,-2.6012,-2.5852,-2.5678,-3.9219,-3.9219,-3.9219,-3.9219,0.0,-3.8984,-3.8887,-3.8867,-3.8672,-3.832,-3.791,-3.7695,-3.7266,-3.666,-3.6445,-3.6113,-3.5703,-3.5469,-3.5488,-3.5703,-3.5703,-3.582,-3.6035,-3.625,-3.6113,-3.5684,-3.5254,-3.5059,-3.5019,-3.4824,-3.4824,-3.5039,-3.5469,-3.5351,-3.4726,-3.4492,-3.4062,-3.3437,-3.3418,-3.3418,-3.3418,-3.3008,-3.2598,-3.2168,-3.1543,0.0,0.0,0.0,0.0,0.0,0.0,0.0,0.0,0.0,0.0,-2.486,-2.3928,-2.3103,-2.2451,-2.2264,-2.2107,-2.1868,-2.2397,-2.2568,-2.2286,-2.2412,-2.2557,-2.2822,-2.2845,-2.3135,-2.3764,-2.413,-2.4393,-2.4554,-2.4847,-2.5198,-2.5535,-2.6105,-2.6617,-2.6925,-2.7144,-2.7217,-2.7232,-2.7071,-2.6998,-2.6998,-2.6998,-2.6998,-2.6998,-2.6998,-2.7042,-2.7203,-2.7198,-2.7083,-2.6771,-2.6357,-2.6066,-2.5796,-2.5536,-2.5251,-2.5104,-2.4957,-2.4823,-2.4676,-2.4636,-2.4823,-2.5358,-2.5518,-2.5692,-2.6172,-2.6039,-2.5758,-2.5732,-2.5625,-2.5518,-3.9883,-3.9883,-3.9883,-3.9883,-3.9863,-3.9473,-3.9277,-3.918,-3.8769,0.0,0.0,-3.8047,-3.7578,-3.6777,-3.6406,-3.5976,-3.5488,-3.5098,-3.5137,-3.5508,-3.5508,-3.5684,-3.6016,-3.6035,-3.6035,-3.5976,-3.5195,-3.5234,-3.5996,-3.5586,-3.5605,-3.6016,-3.6387,-3.6172,-3.541,-3.4922,-3.4355,-3.3672,-3.3652,-3.3652,-3.3633,-3.3164,-3.2734,-3.2402,-3.1836,-3.0976,-2.9844,-2.9783,-2.9316,-2.8574,-2.8184,-2.8061,-2.7988,-2.7124,-2.6467,-2.6262,-2.5313,-2.4492,-2.3941,-2.3425,-2.2953,-2.2678,-2.3093,-2.3223,-2.2901,-2.312,-2.3398,-2.3662,-2.3735,-2.3984,-2.451,-2.4694,-2.4885,-2.5183,-2.5652,-2.5871,-2.5915,-2.65,-2.6983,-2.7056,-2.71,-2.7144,-2.732,-2.7144,-2.6998,-2.6998,-2.6998,-2.7027,-2.7071,-2.71,-2.7247,-2.7613,-2.7665,-2.7611,-2.744,-2.701,-2.6432,-2.6257,-2.5959,-2.5581,-2.5304,-2.5197,-2.5064,-2.489,-2.4796,-2.5064,-2.5531,-2.5705,-2.5879,-2.6426,-2.6079,-2.5665,-2.5651,-2.5585,-2.5478,-3.9902,-3.9883,-3.9883,-3.9883,-3.9883,-3.9824,-3.957,-3.918,-3.8769,-3.8535,-3.8476,-3.8496,-3.8008,-3.7207,-3.7148,-3.668,-3.5937,-3.5859,-3.5859,-3.5937,-3.5937,-3.5957,-3.6016,-3.6035,-3.6035,-3.5996,-3.5527,-3.5547,-3.5937,-3.5605,-3.5605,-3.5976,-3.6074,-3.5859,-3.5391,-3.4922,-3.4648,-3.4531,-3.4512,-3.4512,-3.4512,-3.375,-3.3301,-3.3203,-3.2129,-3.1269,-3.0723,-3.0312,-2.9902,-2.947,-2.9391,-2.9352,-2.9297,-2.9157,-2.8748,-2.7895,-2.7454,-2.6653,-2.5282,-2.4795,-2.4376,-2.3902,-2.418,-2.4232,-2.391,-2.3925,-2.3954,-2.4027,-2.4276,-2.4466,-2.4583,-2.4862,-2.5271,-2.5769,-2.5725,-2.6003,-2.6969,-2.7042,-2.71,-2.7335,-2.7408,-2.7276,-2.71,-2.7027,-2.6998,-2.6998,-2.7027,-2.71,-2.7378,-2.7408,-2.7671,-2.8139,-2.8253,-2.8245,-2.8172,-2.8068,-2.7622,-2.6987,-2.6584,-2.6252,-2.5849,-2.5585,-2.5424,-2.5384,-2.5317,-2.5571,-2.6092,-2.6266,-2.644,-2.6867,-2.656,-2.6213,-2.6172,-2.5852,-2.5384,-4.0586,-4.0586,-4.0586,-4.0586,-4.0566,-4.0332,-3.998,-3.957,-3.9375,-3.9004,-3.8594,-3.8574,-3.8223,-3.7637,-3.7402,-3.6953,-3.6367,-3.6133,-3.6152,-3.6348,-3.6133,-3.6152,-3.6328,-3.6133,-3.6035,-3.5996,-3.582,-3.5957,-3.6309,-3.6172,-3.6191,-3.6328,-3.5918,-3.5586,-3.5371,-3.4941,-3.4687,-3.4687,-3.4687,-3.4687,-3.4687,-3.4082,-3.3672,-3.3418,-3.2617,-3.1894,-3.125,-3.0859,-3.0316,-2.9715,-2.9525,-2.9355,-2.9355,-2.8953,-2.8535,-2.8224,-2.7349,-2.6451,-2.5549,-2.4879,-2.4451,-2.4386,-2.4481,-2.4665,-2.4613,-2.4613,-2.4613,-2.4627,-2.5052,-2.5344,-2.5374,-2.5813,-2.6237,-2.6515,-2.6559,-2.6749,-2.7115,-2.7261,-2.7247,-2.7217,-2.7217,-2.7159,-2.7013,-2.6998,-2.6998,-2.6998,-2.7115,-2.7422,-2.7905,-2.7993,-2.8095,-2.8311,-2.8578,-2.8647,-2.8637,-2.8446,-2.804,-2.7412,-2.7065,-2.6602,-2.6168,-2.5825,-2.5705,-2.5545,-2.5518,-2.5692,-2.6106,-2.6146,-2.6413,-2.6814,-2.656,-2.6253,-2.6266,-2.5919,-2.5398,-4.1172,-4.1172,-4.1172,-4.1172,-4.1133,-4.0703,-4.0332,-4.0039,-3.9922,-3.9453,-3.8769,-3.8711,-3.8418,-3.791,-3.7578,-3.7207,-3.6797,-3.6465,-3.6484,-3.6758,-3.6465,-3.6484,-3.6758,-3.6465,-3.6269,-3.6191,-3.6172,-3.6348,-3.6641,-3.6582,-3.6582,-3.6582,-3.5996,-3.5625,-3.5527,-3.5078,-3.4805,-3.4707,-3.4805,-3.4863,-3.4844,-3.4531,-3.4199,-3.3867,-3.3457,-3.2871,-3.2148,-3.1648,-3.1003,-3.0079,-2.9517,-2.9204,-2.9043,-2.8289,-2.793,-2.7985,-2.6832,-2.5992,-2.5609,-2.4928,-2.4627,-2.4876,-2.4964,-2.511,-2.5344,-2.5447,-2.5418,-2.5359,-2.5696,-2.6047,-2.6222,-2.6647,-2.7042,-2.7188,-2.7349,-2.7422,-2.7364,-2.7481,-2.7495,-2.7247,-2.7217,-2.7203,-2.713,-2.71,-2.7188,-2.7437,-2.7615,-2.8014,-2.8515,-2.8662,-2.8523,-2.8564,-2.8739,-2.8871,-2.8886,-2.8666,-2.8197,-2.7712,-2.7319,-2.683,-2.6354,-2.6066,-2.5985,-2.5798,-2.5732,-2.5892,-2.6092,-2.6186,-2.6453,-2.6921,-2.6653,-2.6266,-2.6333,-2.6079,-2.5558,-4.1172,-4.1172,-4.1172,-4.1172,-4.1133,-4.0723,-4.0508,-4.041,-4.0059,-3.9629,-3.9199,-3.9141,-3.8691,-3.7988,-3.7891,-3.7637,-3.7285,-3.7207,-3.7207,-3.7246,-3.7207,-3.7207,-3.7226,-3.7187,-3.6973,-3.666,-3.6601,-3.6601,-3.6641,-3.6269,-3.6289,-3.6621,-3.6582,-3.6309,-3.5937,-3.5527,-3.5098,-3.4707,-3.5117,-3.5332,-3.5332,-3.5293,-3.5254,-3.5215,-3.4746,-3.4316,-3.3706,-3.314,-3.2068,-3.0722,-2.9821,-2.9244,-2.8708,-2.8269,-2.7812,-2.726,-2.6745,-2.6249,-2.5633,-2.5736,-2.5798,-2.59,-2.6105,-2.6266,-2.6339,-2.6617,-2.6544,-2.6149,-2.6018,-2.6354,-2.6808,-2.7013,-2.732,-2.7788,-2.7656,-2.7686,-2.811,-2.799,-2.7815,-2.7801,-2.7788,-2.7759,-2.7481,-2.7511,-2.7807,-2.8486,-2.871,-2.8984,-2.9473,-2.932,-2.8934,-2.8909,-2.8886,-2.8886,-2.8886,-2.8886,-2.8495,-2.779,-2.7555,-2.7213,-2.6621,-2.6385,-2.6319,-2.6186,-2.6239,-2.6333,-2.6533,-2.6747,-2.6881,-2.7134,-2.6987,-2.6653,-2.6466,-2.6306,-2.5972,-4.1172,-4.1172,-4.1172,-4.1172,-4.1133,-4.0976,-4.0918,-4.0879,-4.0723,-4.0391,-3.998,-3.9726,-3.9121,-3.832,-3.8301,-3.8203,-3.8066,-3.8047,-3.8047,-3.8027,-3.7793,-3.7656,-3.7637,-3.7402,-3.7207,-3.7012,-3.6797,-3.6749,-3.6601,-3.623,-3.6113,-3.623,-3.6055,-3.582,-3.5625,-3.5215,-3.4883,-3.4726,-3.5156,-3.5391,-3.5391,-3.519,-3.5056,-3.4998,-3.4412,-3.3992,-3.3735,-3.2665,-3.1607,-3.0462,-2.9386,-2.8545,-2.8039,-2.7539,-2.7131,-2.6804,-2.6298,-2.5799,-2.552,-2.5842,-2.6018,-2.6018,-2.631,-2.65,-2.6515,-2.6808,-2.7013,-2.7159,-2.7159,-2.7291,-2.7539,-2.7891,-2.8227,-2.8417,-2.8227,-2.8154,-2.8388,-2.8078,-2.7874,-2.7874,-2.7874,-2.792,-2.7863,-2.8193,-2.8866,-2.975,-3.0112,-3.0466,-3.0588,-3.0299,-2.9668,-2.909,-2.8886,-2.8886,-2.8886,-2.8886,-2.8573,-2.8197,-2.779,-2.7398,-2.6939,-2.6544,-2.6386,-2.64,-2.64,-2.6426,-2.6493,-2.6587,-2.6707,-2.7014,-2.7094,-2.6734,-2.6453,-2.64,-2.6132,-4.1172,-4.1172,-4.1172,-4.1172,-4.1172,-4.1172,-4.1172,-4.1172,-4.1172,-4.0937,-4.0508,-4.0078,-3.9473,-3.8789,-3.8633,-3.8574,-3.8574,-3.8574,-3.8574,-3.8535,-3.8242,-3.8105,-3.8066,-3.7793,-3.7578,-3.7441,-3.7168,-3.6894,-3.668,-3.6367,-3.6211,-3.6152,-3.5898,-3.5684,-3.5547,-3.5215,-3.5,-3.4941,-3.5265,-3.5432,-3.5365,-3.4738,-3.4448,-3.4429,-3.3827,-3.3285,-3.2887,-3.1792,-3.0702,-2.9722,-2.8609,-2.7751,-2.7206,-2.669,-2.6398,-2.639,-2.6111,-2.593,-2.593,-2.631,-2.6544,-2.6574,-2.6852,-2.7027,-2.7086,-2.7335,-2.77,-2.8095,-2.8198,-2.8198,-2.8271,-2.8622,-2.8871,-2.8871,-2.8681,-2.8564,-2.8549,-2.8344,-2.8227,-2.8212,-2.8195,-2.8245,-2.8459,-2.9198,-3.0096,-3.1296,-3.1785,-3.1874,-3.1634,-3.1178,-3.0423,-2.9119,-2.8886,-2.8886,-2.8886,-2.8886,-2.8744,-2.8446,-2.7961,-2.7647,-2.7189,-2.6716,-2.6465,-2.6465,-2.6465,-2.64,-2.644,-2.644,-2.6426,-2.6627,-2.6734,-2.6707,-2.6453,-2.64,-2.6319,-4.1172,-4.1172,-4.1172,-4.1172,-4.1172,-4.1172,-4.1172,-4.1172,-4.1172,-4.0937,-4.0527,-4.0098,-3.9629,-3.916,-3.8789,-3.8574,-3.8574,-3.8574,-3.8574,-3.8574,-3.8535,-3.8535,-3.8555,-3.8516,-3.8281,-3.791,-3.7793,-3.7402,-3.6699,-3.6641,-3.6641,-3.6601,-3.6523,-3.6348,-3.6016,-3.5898,-3.5742,-3.5449,-3.5491,-3.5431,-3.5295,-3.402,-3.3466,-3.3605,-3.343,-3.2521,-3.1254,-3.0615,-2.9722,-2.8308,-2.783,-2.7154,-2.6265,-2.604,-2.604,-2.6058,-2.6601,-2.6896,-2.6939,-2.7408,-2.7684,-2.7757,-2.7932,-2.83,-2.8183,-2.8447,-2.8651,-2.8812,-2.8769,-2.8783,-2.8783,-2.8812,-2.8886,-2.8886,-2.8871,-2.8842,-2.8856,-2.8798,-2.8842,-2.8812,-2.8846,-2.91,-2.9564,-3.0387,-3.1614,-3.2797,-3.3254,-3.3075,-3.2532,-3.1884,-3.0732,-2.9431,-2.8886,-2.8886,-2.8886,-2.8886,-2.8744,-2.851,-2.8275,-2.8054,-2.7425,-2.6953,-2.6702,-2.6531,-2.6412,-2.6333,-2.6373,-2.6386,-2.6373,-2.6493,-2.6653,-2.66,-2.6426,-2.64,-2.6346,-4.1172,-4.1172,-4.1172,-4.1172,-4.1172,-4.1172,-4.1172,-4.1172,-4.1172,-4.1094,-4.0879,-4.0488,-4.0059,-3.9609,-3.918,-3.8828,-3.8594,-3.8574,-3.8574,-3.8574,-3.8574,-3.8574,-3.8574,-3.8574,-3.8516,-3.834,-3.8066,-3.75,-3.6758,-3.6749,-3.6523,-3.6289,-3.625,-3.6152,-3.6055,-3.6035,-3.5937,-3.5772,-3.5617,-3.5127,-3.4458,-3.3599,-3.2596,-3.1296,-3.1557,-3.1386,-3.0634,-2.9769,-2.8943,-2.8201,-2.7384,-2.6648,-2.6088,-2.6018,-2.6018,-2.6076,-2.6632,-2.6998,-2.7071,-2.7583,-2.7874,-2.7888,-2.8165,-2.8447,-2.8491,-2.871,-2.8886,-2.8886,-2.8886,-2.8886,-2.8886,-2.8886,-2.8886,-2.8886,-2.8886,-2.8886,-2.8886,-2.8886,-2.8886,-2.8964,-2.9275,-2.9913,-3.0743,-3.188,-3.3368,-3.4797,-3.5148,-3.4531,-3.3473,-3.2614,-3.1424,-2.9586,-2.8886,-2.8886,-2.8886,-2.8886,-2.8808,-2.8666,-2.851,-2.8275,-2.7805,-2.7227,-2.6898,-2.6564,-2.6381,-2.613,-2.6104,-2.6119,-2.6146,-2.6319,-2.648,-2.6493,-2.6413,-2.6333,-2.6346,-4.1172,-4.1172,-4.1172,-4.1172,-4.1172,-4.1172,-4.1172,-4.1172,-4.1172,-4.1172,-4.1094,-4.0703,-4.0351,-4.0019,-3.9473,-3.9062,-3.8769,-3.8652,-3.8574,-3.8574,-3.8574,-3.8574,-3.8574,-3.8574,-3.8574,-3.8496,-3.8125,-3.7598,-3.709,-3.6797,-3.6523,-3.625,-3.6113,-3.6035,-3.6035,-3.6016,-3.6025,-3.5956,-3.5318,-3.4557,-3.3651,-3.2666,-3.137,-2.9888,-2.9913,-2.9857,-2.9425,-2.8607,-2.8079,-2.7763,-2.7083,-2.6624,-2.6339,-2.6427,-2.6486,-2.6559,-2.71,-2.7452,-2.751,-2.7964,-2.8256,-2.8256,-2.8447,-2.8578,-2.8593,-2.8769,-2.8871,-2.8886,-2.8886,-2.8886,-2.8886,-2.8886,-2.8886,-2.8886,-2.8886,-2.8886,-2.8886,-2.8886,-2.8997,-2.9282,-3.0007,-3.0819,-3.1712,-3.3018,-3.4472,-3.6017,-3.6183,-3.5555,-3.4179,-3.3247,-3.196,-2.9819,-2.9197,-2.9042,-2.8964,-2.8886,-2.8886,-2.8808,-2.873,-2.851,-2.8246,-2.7591,-2.7075,-2.6713,-2.6316,-2.5949,-2.5782,-2.5889,-2.5959,-2.6119,-2.6199,-2.6226,-2.6213,-2.6226,-2.6279,-4.1172,-4.1172,-4.1172,-4.1172,-4.1172,-4.1172,-4.1172,-4.1172,-4.1172,-4.1172,-4.1113,-4.0742,-4.0547,-4.0332,-3.9687,-3.9258,-3.916,-3.8828,-3.8613,-3.8574,-3.8574,-3.8574,-3.8574,-3.8574,-3.8574,-3.8555,-3.8164,-3.793,-3.7793,-3.7148,-3.6758,-3.6582,-3.625,-3.6074,-3.6035,-3.6004,-3.6028,-3.5623,-3.4556,-3.3677,-3.3091,-3.1354,-3.0025,-2.9147,-2.8529,-2.8072,-2.7659,-2.7276,-2.7157,-2.71,-2.7027,-2.6983,-2.6954,-2.7188,-2.7408,-2.7437,-2.8022,-2.8359,-2.8403,-2.8637,-2.8783,-2.8783,-2.8856,-2.8842,-2.8842,-2.8871,-2.8886,-2.8886,-2.8886,-2.8886,-2.8886,-2.8886,-2.8886,-2.8886,-2.8886,-2.8886,-2.8886,-2.8949,-2.9064,-2.9656,-3.0628,-3.1729,-3.2572,-3.3797,-3.5011,-3.5931,-3.619,-3.5851,-3.4622,-3.3736,-3.2369,-3.067,-2.9819,-2.9508,-2.9197,-2.8886,-2.8886,-2.8886,-2.8808,-2.873,-2.8438,-2.7912,-2.7375,-2.692,-2.6101,-2.5737,-2.5527,-2.5558,-2.5705,-2.5852,-2.5905,-2.6066,-2.6159,-2.6226,-2.6239,-4.1172,-4.1172,-4.1172,-4.1172,-4.1172,-4.1172,-4.1172,-4.1172,-4.1172,-4.1172,-4.1152,-4.1035,-4.082,-4.0527,-4.0215,-3.9941,-3.9648,-3.9219,-3.8867,-3.8633,-3.8574,-3.8574,-3.8574,-3.8574,-3.8574,-3.8555,-3.8437,-3.8203,-3.793,-3.7637,-3.7266,-3.6738,-3.6543,-3.6309,-3.5986,-3.581,-3.5387,-3.445,-3.3563,-3.228,-3.0645,-2.9881,-2.9074,-2.8132,-2.7763,-2.7614,-2.7466,-2.7159,-2.6998,-2.6998,-2.6998,-2.6998,-2.7056,-2.7291,-2.7466,-2.7539,-2.8081,-2.8447,-2.8476,-2.871,-2.8886,-2.8886,-2.8886,-2.8886,-2.8886,-2.8886,-2.8886,-2.8886,-2.8886,-2.8886,-2.8886,-2.8886,-2.8871,-2.8886,-2.8886,-2.8964,-2.9027,-2.9237,-2.9671,-3.0385,-3.1439,-3.2719,-3.3909,-3.5025,-3.5773,-3.6592,-3.6603,-3.6112,-3.5267,-3.4366,-3.3211,-3.1344,-3.0762,-3.0036,-2.9586,-2.9353,-2.9197,-2.9119,-2.8964,-2.8886,-2.8593,-2.8115,-2.7654,-2.6946,-2.6129,-2.563,-2.5424,-2.5331,-2.5478,-2.5692,-2.5865,-2.6026,-2.6199,-2.6239,-2.6226,-4.1172,-4.1172,-4.1172,-4.1172,-4.1172,-4.1172,-4.1172,-4.1172,-4.1172,-4.1172,-4.1172,-4.1172,-4.1035,-4.0762,-4.0605,-4.0391,-4.0078,-3.9492,-3.9062,-3.8809,-3.8613,-3.8574,-3.8574,-3.8574,-3.8574,-3.8574,-3.8574,-3.8437,-3.8164,-3.7845,-3.7443,-3.6996,-3.6468,-3.6197,-3.5976,-3.541,-3.4558,-3.3572,-3.2596,-3.1031,-2.9401,-2.8815,-2.8339,-2.7629,-2.7481,-2.7481,-2.7452,-2.7174,-2.6998,-2.7013,-2.71,-2.7217,-2.7349,-2.7656,-2.7832,-2.7934,-2.8286,-2.8608,-2.8622,-2.8798,-2.8886,-2.8886,-2.8886,-2.8886,-2.8886,-2.8886,-2.8886,-2.8886,-2.8886,-2.8886,-2.8886,-2.8769,-2.8802,-2.9174,-2.9293,-2.9338,-2.9386,-2.9747,-3.0247,-3.0975,-3.2013,-3.3372,-3.4587,-3.5468,-3.6119,-3.6627,-3.6623,-3.6316,-3.5532,-3.4794,-3.3465,-3.2375,-3.1625,-3.0867,-3.0114,-2.9819,-2.9586,-2.9353,-2.9119,-2.8964,-2.8778,-2.8202,-2.7654,-2.6833,-2.5978,-2.5505,-2.5229,-2.5166,-2.5237,-2.5518,-2.5798,-2.5892,-2.5999,-2.6119,-2.6132,-4.1172,-4.1172,-4.1172,-4.1172,-4.1172,-4.1172,-4.1172,-4.1172,-4.1172,-4.1172,-4.1172,-4.1172,-4.1152,-4.1055,-4.0781,-4.0605,-4.043,-3.9766,-3.9414,-3.9219,-3.8906,-3.8652,-3.8594,-3.8574,-3.8574,-3.8574,-3.8574,-3.8555,-3.8476,-3.7895,-3.7374,-3.7038,-3.6161,-3.5635,-3.5661,-3.4853,-3.3992,-3.2927,-3.1736,-3.025,-2.8635,-2.8185,-2.7851,-2.7496,-2.7408,-2.7408,-2.7364,-2.7144,-2.7013,-2.7056,-2.7305,-2.7554,-2.783,-2.8256,-2.8373,-2.8359,-2.8695,-2.8827,-2.8871,-2.8871,-2.8886,-2.8886,-2.8886,-2.8886,-2.8886,-2.8886,-2.8964,-2.8964,-2.9042,-2.9027,-2.9031,-2.8931,-2.9166,-2.9747,-3.0115,-3.0192,-3.0176,-3.0573,-3.1039,-3.1588,-3.2547,-3.3693,-3.4866,-3.5379,-3.5722,-3.5986,-3.6169,-3.5997,-3.5768,-3.52,-3.4269,-3.3492,-3.2858,-3.2215,-3.165,-3.1194,-3.0947,-3.0083,-2.9666,-2.9127,-2.8758,-2.818,-2.7502,-2.6669,-2.6045,-2.5561,-2.5275,-2.5283,-2.5273,-2.5478,-2.5651,-2.5692,-2.5798,-2.5945,-2.5999,-4.1172,-4.1172,-4.1172,-4.1172,-4.1172,-4.1172,-4.1172,-4.1172,-4.1172,-4.1172,-4.1172,-4.1172,-4.1172,-4.1152,-4.1055,-4.0996,-4.082,-4.041,-4.0176,-4.0039,-3.9355,-3.8867,-3.8633,-3.8574,-3.8574,-3.8574,-3.8574,-3.8574,-3.8574,-3.8001,-3.7207,-3.6014,-3.6027,-3.5526,-3.4811,-3.4523,-3.3495,-3.2052,-3.1118,-2.9552,-2.7798,-2.7421,-2.7261,-2.7188,-2.713,-2.713,-2.7115,-2.7042,-2.7115,-2.7335,-2.7422,-2.7627,-2.7859,-2.8165,-2.8403,-2.8447,-2.8681,-2.8871,-2.8871,-2.8856,-2.8871,-2.8886,-2.8827,-2.8886,-2.8886,-2.8886,-2.9042,-2.929,-2.9586,-2.9775,-2.9885,-3.0052,-3.0732,-3.1877,-3.1641,-3.1105,-3.1096,-3.1426,-3.1893,-3.2239,-3.302,-3.4209,-3.5253,-3.5743,-3.5899,-3.6006,-3.6054,-3.6161,-3.6066,-3.5908,-3.5203,-3.4976,-3.4457,-3.3816,-3.3313,-3.2809,-3.2157,-3.113,-3.0315,-2.9426,-2.8788,-2.7993,-2.7316,-2.6573,-2.631,-2.5887,-2.5667,-2.5602,-2.5594,-2.563,-2.5558,-2.5638,-2.5732,-2.5852,-2.5852,-4.1172,-4.1172,-4.1172,-4.1172,-4.1172,-4.1172,-4.1172,-4.1172,-4.1172,-4.1172,-4.1172,-4.1172,-4.1172,-4.1172,-4.1172,-4.1172,-4.1113,-4.0723,-4.0508,-4.0351,-3.959,-3.8984,-3.8672,-3.8574,-3.8574,-3.8574,-3.8574,-3.8574,-3.8501,-3.8009,-3.7104,-3.6219,-3.5833,-3.5357,-3.49,-3.4054,-3.3178,-3.179,-3.065,-2.9127,-2.7408,-2.7042,-2.6998,-2.6998,-2.6998,-2.6998,-2.6998,-2.6998,-2.7144,-2.7393,-2.7495,-2.7627,-2.7844,-2.8049,-2.8151,-2.8165,-2.8403,-2.8491,-2.8491,-2.8491,-2.8491,-2.8491,-2.8491,-2.8491,-2.8476,-2.8491,-2.8644,-2.9243,-2.9778,-3.0293,-3.0739,-3.1309,-3.2385,-3.3555,-3.3357,-3.2685,-3.2182,-3.2365,-3.2565,-3.2924,-3.3516,-3.4508,-3.5831,-3.5967,-3.6133,-3.625,-3.6348,-3.6484,-3.6552,-3.6429,-3.6221,-3.5874,-3.5686,-3.5172,-3.472,-3.4336,-3.3037,-3.2016,-3.01,-2.9259,-2.8611,-2.7788,-2.7332,-2.6865,-2.6618,-2.6426,-2.6266,-2.6012,-2.5793,-2.5715,-2.5644,-2.5585,-2.5678,-2.5718,-2.5705,-4.1172,-4.1172,-4.1172,-4.1172,-4.1172,-4.1172,-4.1172,-4.1172,-4.1172,-4.1172,-4.1172,-4.1172,-4.1172,-4.1172,-4.1172,-4.1172,-4.1152,-4.082,-4.0547,-4.0234,-3.9668,-3.9082,-3.8613,-3.8574,-3.8574,-3.8574,-3.8574,-3.8574,-3.8428,-3.7843,-3.7255,-3.6534,-3.5613,-3.5229,-3.4774,-3.383,-3.2797,-3.1643,-3.0462,-2.9074,-2.7689,-2.7217,-2.7086,-2.6998,-2.6998,-2.6998,-2.6998,-2.7013,-2.713,-2.7408,-2.7466,-2.7642,-2.783,-2.7874,-2.7888,-2.7903,-2.7947,-2.7947,-2.7903,-2.7961,-2.7961,-2.8095,-2.802,-2.8037,-2.8245,-2.8365,-2.8761,-2.9607,-3.0049,-3.0972,-3.1956,-3.276,-3.3857,-3.4883,-3.5111,-3.4648,-3.3883,-3.3447,-3.3353,-3.334,-3.4058,-3.4966,-3.5742,-3.6191,-3.6309,-3.668,-3.6699,-3.6699,-3.6738,-3.6588,-3.6502,-3.6366,-3.6368,-3.6436,-3.6091,-3.5811,-3.4151,-3.265,-3.0023,-2.865,-2.8251,-2.7671,-2.7466,-2.7232,-2.7068,-2.7035,-2.6983,-2.6645,-2.6233,-2.6003,-2.599,-2.5769,-2.5598,-2.5598,-2.5598,-4.1172,-4.1172,-4.1172,-4.1172,-4.1172,-4.1172,-4.1172,-4.1172,-4.1172,-4.1172,-4.1172,-4.1172,-4.1172,-4.1172,-4.1172,-4.1172,-4.1172,-4.1016,-4.0723,-4.0019,-3.9902,-3.9277,-3.873,-3.8574,-3.8574,-3.8574,-3.8574,-3.8574,-3.8428,-3.8063,-3.7329,-3.6386,-3.6016,-3.5168,-3.3831,-3.3483,-3.2298,-3.0866,-3.0013,-2.8982,-2.7851,-2.7437,-2.7261,-2.7086,-2.7042,-2.7013,-2.6998,-2.6998,-2.7027,-2.7144,-2.7349,-2.7613,-2.7817,-2.7815,-2.7801,-2.7801,-2.7844,-2.7859,-2.7859,-2.7844,-2.8052,-2.8212,-2.8212,-2.8509,-2.913,-2.9138,-2.973,-3.0739,-3.1663,-3.2604,-3.391,-3.4684,-3.5386,-3.6112,-3.6312,-3.6259,-3.5938,-3.5134,-3.4662,-3.4626,-3.4938,-3.5718,-3.6794,-3.6934,-3.7012,-3.7148,-3.7109,-3.7012,-3.6973,-3.6883,-3.6867,-3.6964,-3.7105,-3.7128,-3.7029,-3.6256,-3.4394,-3.2667,-3.0222,-2.8491,-2.8095,-2.7876,-2.7803,-2.7773,-2.7713,-2.7679,-2.751,-2.7211,-2.6745,-2.6589,-2.6283,-2.598,-2.5692,-2.5611,-2.5585,-4.1172,-4.1172,-4.1172,-4.1172,-4.1172,-4.1172,-4.1172,-4.1172,-4.1172,-4.1172,-4.1172,-4.1172,-4.1172,-4.1172,-4.1172,-4.1172,-4.1172,-4.1152,-4.0723,-4.0059,-3.9844,-3.9394,-3.873,-3.8574,-3.8574,-3.8574,-3.8574,-3.8574,-3.8501,-3.8155,-3.7549,-3.6793,-3.6423,-3.5348,-3.3811,-3.3177,-3.2057,-3.0672,-2.9729,-2.8822,-2.81,-2.7759,-2.7642,-2.7481,-2.7437,-2.7437,-2.7466,-2.7452,-2.7364,-2.7305,-2.7393,-2.7466,-2.7495,-2.751,-2.7495,-2.751,-2.7671,-2.7627,-2.7569,-2.7656,-2.7788,-2.7993,-2.7993,-2.8548,-2.9124,-2.9501,-3.0362,-3.1522,-3.2671,-3.3821,-3.5548,-3.6148,-3.668,-3.711,-3.7163,-3.7143,-3.7077,-3.6432,-3.5721,-3.5706,-3.5802,-3.6368,-3.7015,-3.7332,-3.75,-3.7539,-3.7598,-3.7519,-3.7617,-3.7546,-3.7617,-3.765,-3.7838,-3.7928,-3.7836,-3.6608,-3.4319,-3.2472,-3.0361,-2.916,-2.852,-2.8388,-2.8286,-2.8107,-2.7976,-2.8049,-2.7893,-2.7529,-2.7228,-2.6904,-2.6566,-2.6111,-2.5785,-2.5638,-2.5692,-4.1172,-4.1172,-4.1172,-4.1172,-4.1172,-4.1172,-4.1172,-4.1172,-4.1172,-4.1172,-4.1172,-4.1172,-4.1172,-4.1172,-4.1172,-4.1172,-4.1172,-4.1133,-4.0723,-4.0137,-4.0059,-3.9531,-3.8926,-3.873,-3.8672,-3.8594,-3.8574,-3.8574,-3.8501,-3.8282,-3.799,-3.7476,-3.6812,-3.5644,-3.4371,-3.318,-3.1835,-3.0284,-2.9425,-2.8801,-2.8421,-2.8125,-2.7917,-2.7801,-2.7888,-2.7888,-2.7917,-2.8022,-2.7978,-2.7715,-2.7642,-2.7481,-2.7276,-2.7027,-2.7115,-2.7159,-2.7615,-2.7837,-2.7955,-2.8014,-2.8148,-2.797,-2.8119,-2.8716,-2.9663,-3.0421,-3.1293,-3.2564,-3.3821,-3.5145,-3.6646,-3.7222,-3.7572,-3.7838,-3.7715,-3.7695,-3.7767,-3.7432,-3.6952,-3.6647,-3.6732,-3.7126,-3.7436,-3.7715,-3.7812,-3.791,-3.7969,-3.8008,-3.8086,-3.8086,-3.7988,-3.791,-3.7969,-3.7822,-3.7728,-3.622,-3.4018,-3.2489,-3.0515,-2.9511,-2.8798,-2.871,-2.8549,-2.8344,-2.8256,-2.8282,-2.8216,-2.7946,-2.7572,-2.7255,-2.6804,-2.6378,-2.6074,-2.5678,-2.5812,-4.1172,-4.1172,-4.1172,-4.1172,-4.1172,-4.1172,-4.1172,-4.1172,-4.1172,-4.1172,-4.1172,-4.1172,-4.1172,-4.1172,-4.1172,-4.1172,-4.1172,-4.1133,-4.0879,-4.043,-4.0332,-3.9883,-3.918,-3.9004,-3.8887,-3.8652,-3.8574,-3.8574,-3.8574,-3.8501,-3.8355,-3.8209,-3.7549,-3.6108,-3.4221,-3.2935,-3.1501,-2.9741,-2.9109,-2.8743,-2.8491,-2.8326,-2.818,-2.802,-2.8165,-2.8344,-2.8417,-2.8593,-2.871,-2.8637,-2.8417,-2.8242,-2.7949,-2.7482,-2.7438,-2.7865,-2.8369,-2.8771,-2.9159,-2.9653,-3.0037,-3.0225,-3.0241,-3.0791,-3.1706,-3.2384,-3.3115,-3.434,-3.5734,-3.7009,-3.7624,-3.7969,-3.8301,-3.8418,-3.8359,-3.8301,-3.8398,-3.8234,-3.7953,-3.7532,-3.7656,-3.7747,-3.7916,-3.8086,-3.8164,-3.8242,-3.8281,-3.8203,-3.8125,-3.8105,-3.8008,-3.7969,-3.793,-3.7697,-3.7547,-3.5458,-3.3507,-3.2369,-3.0777,-2.9401,-2.8856,-2.8871,-2.8754,-2.8578,-2.8564,-2.8681,-2.8521,-2.8302,-2.7976,-2.7622,-2.7181,-2.6673,-2.6381,-2.6168,-2.6092,-4.1172,-4.1172,-4.1172,-4.1172,-4.1172,-4.1172,-4.1172,-4.1172,-4.1172,-4.1172,-4.1172,-4.1172,-4.1172,-4.1172,-4.1172,-4.1172,-4.1172,-4.1172,-4.0918,-4.0605,-4.0469,-4.0059,-3.9316,-3.9219,-3.8945,-3.8691,-3.8574,-3.8594,-3.8574,-3.8574,-3.8574,-3.8355,-3.777,-3.6182,-3.4128,-3.2935,-3.1255,-2.9431,-2.8886,-2.8827,-2.8681,-2.8666,-2.8549,-2.8534,-2.8564,-2.8651,-2.8695,-2.8783,-2.8798,-2.8637,-2.8428,-2.8435,-2.8413,-2.8372,-2.8281,-2.8744,-2.9387,-3.0044,-3.0808,-3.1408,-3.1994,-3.2126,-3.2193,-3.2735,-3.3563,-3.4246,-3.4938,-3.6064,-3.6846,-3.7714,-3.7819,-3.834,-3.8535,-3.8574,-3.8574,-3.8574,-3.8574,-3.8574,-3.8437,-3.8262,-3.8262,-3.8228,-3.8398,-3.8476,-3.8535,-3.8574,-3.8574,-3.8437,-3.8242,-3.8203,-3.8164,-3.8184,-3.8111,-3.7866,-3.7272,-3.5235,-3.3524,-3.231,-3.0793,-2.9431,-2.8886,-2.8886,-2.8886,-2.8812,-2.8871,-2.8886,-2.873,-2.8438,-2.8246,-2.7961,-2.7462,-2.6977,-2.6768,-2.6623,-2.6479,-4.0918,-4.0918,-4.0918,-4.0957,-4.1035,-4.1055,-4.1094,-4.1152,-4.1172,-4.1172,-4.1172,-4.1172,-4.1172,-4.1172,-4.1172,-4.1172,-4.1172,-4.1172,-4.0976,-4.0762,-4.0684,-4.0215,-3.9687,-3.9394,-3.9277,-3.8828,-3.8769,-3.8652,-3.8594,-3.8574,-3.8574,-3.8355,-3.777,-3.6182,-3.4053,-3.2994,-3.1101,-2.9649,-2.8886,-2.8886,-2.89,-2.8959,-2.8944,-2.8944,-2.9003,-2.9076,-2.9017,-2.912,-2.9047,-2.8886,-2.8725,-2.878,-2.9048,-2.9366,-2.9771,-3.0194,-3.0878,-3.153,-3.2382,-3.3266,-3.3861,-3.3913,-3.3861,-3.4465,-3.511,-3.576,-3.6434,-3.741,-3.7851,-3.8033,-3.8164,-3.8379,-3.8535,-3.8574,-3.8574,-3.8574,-3.8574,-3.8574,-3.8574,-3.8516,-3.8574,-3.8574,-3.8574,-3.8574,-3.8574,-3.8574,-3.8574,-3.8574,-3.8418,-3.8457,-3.8437,-3.8476,-3.8423,-3.8059,-3.707,-3.5253,-3.3751,-3.2631,-3.0793,-2.9119,-2.8886,-2.8886,-2.8886,-2.8964,-2.8886,-2.8886,-2.873,-2.8666,-2.8431,-2.8118,-2.7647,-2.7254,-2.6953,-2.6795,-2.6623,-4.0039,-4.0059,-4.0059,-4.0254,-4.0586,-4.0625,-4.084,-4.1133,-4.1152,-4.1172,-4.1172,-4.1172,-4.1172,-4.1172,-4.1172,-4.1172,-4.1172,-4.1152,-4.1113,-4.1016,-4.0996,-4.0742,-4.0371,-4.0371,-3.9726,-3.916,-3.9082,-3.8906,-3.8652,-3.8574,-3.8574,-3.8428,-3.7696,-3.6182,-3.3902,-3.2994,-3.1331,-2.9353,-2.8886,-2.8964,-2.9086,-2.9292,-2.9247,-2.9247,-2.9468,-2.9709,-2.9582,-2.9685,-2.9804,-2.9754,-2.9483,-2.971,-3.0263,-3.084,-3.1863,-3.2659,-3.3235,-3.3489,-3.4425,-3.5332,-3.5814,-3.5814,-3.585,-3.6146,-3.659,-3.7125,-3.7724,-3.8312,-3.8457,-3.8437,-3.8418,-3.8516,-3.8574,-3.8574,-3.8574,-3.8574,-3.8574,-3.8574,-3.8574,-3.8574,-3.8574,-3.8574,-3.8574,-3.8574,-3.8574,-3.8574,-3.8574,-3.8574,-3.8574,-3.8574,-3.8574,-3.8574,-3.8501,-3.8209,-3.7236,-3.5345,-3.4053,-3.2935,-3.1194,-2.9275,-2.9275,-2.9353,-2.8964,-2.8964,-2.8964,-2.8886,-2.8808,-2.8744,-2.8588,-2.8353,-2.804,-2.7583,-2.711,-2.6953,-2.6781,-3.9434,-3.9883,-3.9883,-4.0,-4.0195,-4.041,-4.0625,-4.082,-4.1074,-4.1172,-4.1172,-4.1172,-4.1172,-4.1172,-4.1172,-4.1172,-4.1172,-4.1172,-4.1172,-4.1172,-4.1133,-4.0937,-4.0586,-4.0469,-4.0059,-3.9473,-3.916,-3.8945,-3.8711,-3.8613,-3.8574,-3.8501,-3.7696,-3.6182,-3.3902,-3.3011,-3.1178,-2.9726,-2.9368,-2.9741,-3.002,-3.0266,-3.0452,-3.0314,-3.0621,-3.0652,-3.0621,-3.0621,-3.0744,-3.0713,-3.056,-3.0903,-3.1631,-3.2424,-3.3314,-3.4597,-3.5386,-3.5888,-3.6386,-3.7089,-3.7383,-3.7549,-3.7549,-3.7677,-3.7843,-3.8063,-3.8375,-3.8574,-3.8574,-3.8574,-3.8574,-3.8574,-3.8574,-3.8574,-3.8574,-3.8574,-3.8574,-3.8574,-3.8574,-3.8574,-3.8574,-3.8574,-3.8574,-3.8574,-3.8574,-3.8574,-3.8574,-3.8574,-3.8574,-3.8574,-3.8574,-3.8574,-3.8501,-3.8282,-3.7236,-3.5811,-3.4672,-3.3466,-3.213,-3.0593,-3.0129,-2.9897,-2.9586,-2.9197,-2.9042,-2.8964,-2.8886,-2.8808,-2.8744,-2.8588,-2.8431,-2.804,-2.7583,-2.7032,-2.686,-3.8965,-3.9551,-3.957,-3.9629,-3.9746,-4.0059,-4.0332,-4.0566,-4.0859,-4.1055,-4.1152,-4.1172,-4.1172,-4.1172,-4.1172,-4.1172,-4.1172,-4.1172,-4.1172,-4.1172,-4.1133,-4.0996,-4.082,-4.0644,-4.0312,-3.9531,-3.9668,-3.9414,-3.9101,-3.8926,-3.8887,-3.8594,-3.777,-3.6034,-3.4128,-3.2842,-3.1485,-2.9586,-3.0052,-3.067,-3.1225,-3.1859,-3.1997,-3.2041,-3.2058,-3.2074,-3.1993,-3.2009,-3.2009,-3.2025,-3.2025,-3.2392,-3.3213,-3.3954,-3.4839,-3.5978,-3.6904,-3.7419,-3.7677,-3.8063,-3.8501,-3.8574,-3.8574,-3.8355,-3.8501,-3.8574,-3.8574,-3.8574,-3.8574,-3.8574,-3.8574,-3.8574,-3.8574,-3.8574,-3.8574,-3.8574,-3.8574,-3.8574,-3.8574,-3.8574,-3.8574,-3.8574,-3.8574,-3.8574,-3.8574,-3.8574,-3.8574,-3.8574,-3.8574,-3.8574,-3.8574,-3.8574,-3.8574,-3.8355,-3.7549,-3.6349,-3.5214,-3.4163,-3.28,-3.19,-3.1424,-3.0809,-3.0268,-2.9881,-2.9275,-2.9042,-2.8886,-2.8886,-2.8886,-2.8744,-2.8666,-2.8431,-2.804,-2.749,-2.7032,-3.8613,-3.8652,-3.8691,-3.8926,-3.9258,-3.9277,-3.9766,-4.0391,-4.0547,-4.082,-4.1152,-4.1172,-4.1172,-4.1172,-4.1172,-4.1172,-4.1172,-4.1172,-4.1172,-4.1172,-4.1152,-4.1133,-4.1035,-4.0976,-4.082,-4.0391,-4.0234,-4.0039,-3.9844,-3.957,-3.9219,-3.8638,-3.7923,-3.5996,-3.4221,-3.2892,-3.1884,-3.0593,-3.0963,-3.1807,-3.2561,-3.3288,-3.3814,-3.3661,-3.3797,-3.3882,-3.3558,-3.3524,-3.3524,-3.3541,-3.3541,-3.3919,-3.4672,-3.5438,-3.6256,-3.7034,-3.7843,-3.8282,-3.8428,-3.8428,-3.8574,-3.8574,-3.8574,-3.8574,-3.8574,-3.8574,-3.8574,-3.8574,-3.8574,-3.8574,-3.8574,-3.8574,-3.8574,-3.8574,-3.8574,-3.8574,-3.8574,-3.8574,-3.8574,-3.8574,-3.8574,-3.8574,-3.8574,-3.8574,-3.8574,-3.8574,-3.8574,-3.8574,-3.8574,-3.8574,-3.8574,-3.8574,-3.8574,-3.8355,-3.7936,-3.6941,-3.5959,-3.5214,-3.4163,-3.3407,-3.2783,-3.2097,-3.0963,-3.0191,-2.9586,-2.9197,-2.8886,-2.8886,-2.8886,-2.8886,-2.8822,-2.8588,-2.8275,-2.774,-2.7347,-3.8574,-3.8574,-3.8574,-3.8672,-3.8828,-3.9082,-3.9394,-3.9785,-4.0293,-4.0762,-4.1172,-4.1172,-4.1172,-4.1172,-4.1172,-4.1172,-4.1172,-4.1172,-4.1172,-4.1172,-4.1172,-4.1172,-4.1172,-4.1113,-4.0937,-4.0625,-4.0508,-4.0312,-3.9902,-3.998,-3.9785,-3.9171,-3.8324,-3.6736,-3.5006,-3.3128,-3.1993,-3.213,-3.2419,-3.3255,-3.4046,-3.4928,-3.5356,-3.5267,-3.5285,-3.5374,-3.5214,-3.5214,-3.5196,-3.5196,-3.5196,-3.5587,-3.6034,-3.6645,-3.7162,-3.7696,-3.8282,-3.8574,-3.8574,-3.8574,-3.8574,-3.8574,-3.8574,-3.8574,-3.8574,-3.8574,-3.8574,-3.8574,-3.8613,-3.8633,-3.8613,-3.8594,-3.8574,-3.8574,-3.8613,-3.8672,-3.8711,-3.8769,-3.8769,-3.8848,-3.8691,-3.8574,-3.8574,-3.8574,-3.8574,-3.8574,-3.8574,-3.8574,-3.8574,-3.8574,-3.8574,-3.8574,-3.8574,-3.8501,-3.8082,-3.7402,-3.6719,-3.6034,-3.5363,-3.4521,-3.3617,-3.2495,-3.1424,-3.0577,-2.9741,-2.9197,-2.8886,-2.8886,-2.8886,-2.8886,-2.8822,-2.8744,-2.8353,-2.7976,-2.7689,-3.8574,-3.8574,-3.8574,-3.8574,-3.8613,-3.8887,-3.9082,-3.9316,-4.0,-4.0664,-4.1152,-4.1172,-4.1172,-4.1172,-4.1172,-4.1172,-4.1172,-4.1172,-4.1172,-4.1172,-4.1172,-4.1172,-4.1172,-4.1133,-4.1035,-4.0762,-4.0703,-4.0547,-4.0391,-4.0293,-4.0293,-3.9948,-3.9069,-3.7668,-3.5753,-3.361,-3.2512,-3.3255,-3.4087,-3.4932,-3.568,-3.6516,-3.696,-3.6941,-3.6905,-3.6905,-3.6941,-3.6941,-3.6867,-3.6867,-3.6941,-3.7089,-3.7329,-3.7623,-3.7843,-3.8155,-3.8375,-3.8574,-3.8574,-3.8574,-3.8574,-3.8574,-3.8574,-3.8574,-3.8574,-3.8594,-3.8613,-3.8809,-3.8789,-3.8789,-3.8867,-3.9062,-3.9101,-3.9199,-3.918,-3.9199,-3.918,-3.9219,-3.916,-3.9141,-3.9043,-3.9062,-3.9082,-3.9101,-3.8848,-3.8769,-3.8574,-3.8574,-3.8574,-3.8574,-3.8574,-3.8574,-3.8574,-3.8428,-3.8228,-3.7881,-3.7514,-3.6941,-3.6201,-3.5139,-3.4163,-3.2985,-3.1763,-3.0732,-2.9897,-2.9119,-2.89,-2.8915,-2.89,-2.8886,-2.8822,-2.8822,-2.8666,-2.8289,-2.8153,-3.8574,-3.8574,-3.8574,-3.8574,-3.8574,-3.8594,-3.8809,-3.918,-3.9726,-4.041,-4.1113,-4.1172,-4.1172,-4.1172,-4.1172,-4.1172,-4.1172,-4.1172,-4.1172,-4.1172,-4.1172,-4.1172,-4.1172,-4.1152,-4.1133,-4.1152,-4.1074,-4.1016,-4.1016,-4.0918,-4.0976,-4.0802,-3.999,-3.8728,-3.673,-3.4789,-3.4238,-3.4914,-3.5809,-3.6479,-3.7183,-3.7881,-3.8136,-3.8136,-3.8136,-3.8063,-3.8063,-3.8063,-3.8063,-3.8063,-3.8136,-3.8209,-3.8282,-3.8355,-3.8428,-3.8501,-3.8574,-3.8574,-3.8574,-3.8574,-3.8574,-3.8574,-3.8574,-3.8574,-3.8574,-3.8633,-3.8769,-3.9004,-3.916,-3.9375,-3.9609,-3.9785,-3.9707,-3.9668,-3.9629,-3.9609,-3.957,-3.9551,-3.9492,-3.9453,-3.9668,-3.9824,-3.9824,-3.9707,-3.9297,-3.9023,-3.8691,-3.8633,-3.873,-3.8828,-3.8926,-3.8945,-3.8965,-3.8891,-3.8837,-3.8696,-3.8399,-3.7827,-3.7017,-3.6026,-3.4726,-3.3389,-3.2171,-3.098,-3.0219,-2.9744,-2.9311,-2.8944,-2.9061,-2.9193,-2.8944,-2.8822,-2.8744,-2.866,-2.8554,-3.8574,-3.8574,-3.8574,-3.8574,-3.8574,-3.8574,-3.8672,-3.8906,-3.957,-4.0371,-4.1035,-4.1172,-4.1172,-4.1172,-4.1172,-4.1172,-4.1172,-4.1172,-4.1172,-4.1172,-4.1172,-4.1172,-4.1172,-4.1172,-4.1172,-4.1172,-4.1172,-4.1172,-4.1133,-4.1172,-4.1172,-4.0977,-4.053,-3.9376,-3.793,-3.6627,-3.6533,-3.701,-3.7315,-3.7651,-3.8152,-3.8476,-3.8594,-3.8613,-3.8594,-3.8574,-3.8574,-3.8574,-3.8574,-3.8574,-3.8574,-3.8574,-3.8574,-3.8574,-3.8574,-3.8574,-3.8574,-3.8574,-3.8574,-3.8574,-3.8574,-3.8594,-3.8613,-3.8633,-3.8594,-3.8867,-3.9043,-3.9258,-3.9531,-3.9746,-3.9844,-3.9883,-3.9844,-3.9824,-3.9805,-3.9805,-3.9785,-3.9805,-3.9785,-3.9766,-3.9883,-3.998,-4.0,-4.0156,-3.9863,-3.9726,-3.9492,-3.9355,-3.9414,-3.9492,-3.957,-3.957,-3.957,-3.9512,-3.9414,-3.9238,-3.8977,-3.842,-3.7708,-3.6947,-3.5515,-3.4017,-3.306,-3.2186,-3.1213,-3.031,-2.9903,-2.9448,-2.958,-2.9515,-2.9251,-2.9061,-2.8968,-2.8977,-2.9043,-3.8574,-3.8574,-3.8574,-3.8574,-3.8574,-3.8574,-3.8633,-3.8906,-3.959,-4.0312,-4.0859,-4.1074,-4.1172,-4.1172,-4.1172,-4.1172,-4.1172,-4.1172,-4.1172,-4.1172,-4.1172,-4.1172,-4.1172,-4.1172,-4.1172,-4.1172,-4.1172,-4.1172,-4.1172,-4.1172,-4.1172,-4.1094,-4.0898,-4.0279,-3.9222,-3.8707,-3.8348,-3.8576,-3.8707,-3.878,-3.8964,-3.8954,-3.8828,-3.8769,-3.8691,-3.8574,-3.8574,-3.8574,-3.8574,-3.8574,-3.8574,-3.8574,-3.8574,-3.8574,-3.8574,-3.8574,-3.8574,-3.8574,-3.8574,-3.8574,-3.8633,-3.8828,-3.8789,-3.8887,-3.9004,-3.9316,-3.9531,-3.9746,-3.9941,-4.0156,-4.0273,-4.0254,-4.0273,-4.0273,-4.0273,-4.0293,-4.0312,-4.0351,-4.0332,-4.0293,-4.0254,-4.0273,-4.0273,-4.0391,-4.041,-4.0391,-4.0332,-4.0195,-4.0019,-4.0,-4.0019,-4.0,-3.9941,-3.9824,-3.9766,-3.9726,-3.9351,-3.9013,-3.8309,-3.7539,-3.6433,-3.4986,-3.4205,-3.3283,-3.2332,-3.1333,-3.045,-3.0078,-3.0064,-2.9895,-2.9559,-2.9383,-2.9237,-2.9275,-2.9384,-3.8574,-3.8574,-3.8574,-3.8574,-3.8574,-3.8574,-3.8809,-3.9199,-3.9648,-4.0117,-4.0566,-4.0976,-4.1113,-4.1152,-4.1172,-4.1172,-4.1172,-4.1172,-4.1172,-4.1172,-4.1172,-4.1172,-4.1172,-4.1172,-4.1172,-4.1172,-4.1172,-4.1172,-4.1172,-4.1172,-4.1172,-4.1172,-4.1094,-4.0841,-4.053,-4.0162,-3.9796,-3.9833,-3.9697,-3.9695,-3.9749,-3.9398,-3.9219,-3.9062,-3.8867,-3.8672,-3.8613,-3.8574,-3.8574,-3.8574,-3.8574,-3.8574,-3.8574,-3.8574,-3.8574,-3.8574,-3.8574,-3.8574,-3.8594,-3.8594,-3.8906,-3.918,-3.9297,-3.9512,-3.9668,-3.9805,-4.0,-4.0215,-4.0449,-4.0742,-4.0976,-4.0976,-4.0976,-4.0996,-4.0996,-4.0996,-4.1016,-4.1016,-4.1016,-4.0976,-4.0957,-4.0937,-4.0898,-4.0937,-4.0781,-4.082,-4.0742,-4.0605,-4.043,-4.0273,-4.0273,-4.0254,-4.0195,-4.0078,-4.0059,-4.0195,-4.0006,-3.9663,-3.8763,-3.7973,-3.688,-3.6241,-3.56,-3.4784,-3.3493,-3.2459,-3.1668,-3.1007,-3.0579,-3.0409,-3.0665,-2.999,-2.9952,-2.9815,-2.991,-3.8574,-3.8574,-3.8574,-3.8574,-3.8574,-3.8574,-3.8809,-3.9199,-3.9375,-3.9805,-4.0547,-4.0644,-4.0898,-4.1152,-4.1172,-4.1172,-4.1172,-4.1172,-4.1172,-4.1172,-4.1172,-4.1172,-4.1172,-4.1172,-4.1172,-4.1172,-4.1172,-4.1172,-4.1172,-4.1172,-4.1172,-4.1172,-4.1172,-4.1172,-4.1074,-4.0918,-4.0801,-4.0664,-4.0449,-4.0371,-4.0234,-3.9922,-3.9629,-3.9316,-3.9101,-3.8887,-3.8691,-3.8594,-3.8594,-3.8574,-3.8574,-3.8574,-3.8574,-3.8574,-3.8574,-3.8574,-3.8574,-3.8594,-3.8633,-3.8867,-3.9219,-3.9648,-3.9902,-3.9941,-4.0059,-4.0195,-4.041,-4.0605,-4.0781,-4.1035,-4.1113,-4.1152,-4.1172,-4.1172,-4.1172,-4.1172,-4.1172,-4.1172,-4.1172,-4.1172,-4.1172,-4.1172,-4.1172,-4.1133,-4.1016,-4.1113,-4.1094,-4.0937,-4.082,-4.0664,-4.0586,-4.0566,-4.0586,-4.0508,-4.0684,-4.082,-4.0589,-4.0182,-3.9487,-3.8965,-3.8535,-3.7928,-3.7274,-3.6333,-3.5083,-3.3967,-3.293,-3.2429,-3.2258,-3.2445,-3.2542,-3.1452,-3.0623,-3.0713,-3.0691,-3.8574,-3.8574,-3.8574,-3.8574,-3.8574,-3.8574,-3.873,-3.8965,-3.9121,-3.9551,-4.0019,-4.0371,-4.0684,-4.0898,-4.1074,-4.1172,-4.1172,-4.1172,-4.1172,-4.1172,-4.1172,-4.1172,-4.1172,-4.1172,-4.1172,-4.1172,-4.1172,-4.1172,-4.1172,-4.1172,-4.1172,-4.1172,-4.1172,-4.1172,-4.1133,-4.1113,-4.1133,-4.1035,-4.0937,-4.082,-4.0625,-4.0371,-4.0,-3.9707,-3.9473,-3.9082,-3.8848,-3.873,-3.8594,-3.8574,-3.8574,-3.8574,-3.8574,-3.8574,-3.873,-3.8769,-3.8867,-3.9004,-3.916,-3.9355,-3.9707,-4.0059,-4.0371,-4.0449,-4.0547,-4.0684,-4.0762,-4.0879,-4.1035,-4.1172,-4.1172,-4.1172,-4.1172,-4.1172,-4.1172,-4.1172,-4.1172,-4.1172,-4.1172,-4.1172,-4.1172,-4.1172,-4.1172,-4.1172,-4.1172,-4.1172,-4.1172,-4.1113,-4.1055,-4.0996,-4.0937,-4.0937,-4.0996,-4.1035,-4.1172,-4.1172,-4.0938,-4.0783,-4.053,-4.0141,-3.9981,-3.961,-3.8832,-3.7903,-3.6842,-3.5736,-3.4651,-3.4522,-3.4359,-3.449,-3.449,-3.3921,-3.3,-3.2414,-3.2232,-3.8535,-3.8574,-3.8574,-3.8574,-3.8574,-3.8574,-3.8594,-3.8613,-3.8965,-3.918,-3.9394,-4.0098,-4.0488,-4.0664,-4.0976,-4.1152,-4.1172,-4.1172,-4.1172,-4.1172,-4.1172,-4.1172,-4.1172,-4.1172,-4.1172,-4.1172,-4.1172,-4.1172,-4.1172,-4.1172,-4.1172,-4.1172,-4.1172,-4.1172,-4.1172,-4.1172,-4.1172,-4.1152,-4.1113,-4.1055,-4.1016,-4.0801,-4.0527,-4.0332,-3.9844,-3.9316,-3.916,-3.8926,-3.8613,-3.8633,-3.8594,-3.8594,-3.8574,-3.8691,-3.8887,-3.9082,-3.9199,-3.9414,-3.9629,-3.9824,-4.0078,-4.0351,-4.0566,-4.0762,-4.0898,-4.0976,-4.0996,-4.1016,-4.1152,-4.1172,-4.1172,-4.1172,-4.1172,-4.1172,-4.1172,-4.1172,-4.1172,-4.1172,-4.1172,-4.1172,-4.1172,-4.1172,-4.1172,-4.1172,-4.1172,-4.1172,-4.1172,-4.1172,-4.1172,-4.1172,-4.1172,-4.1172,-4.1172,-4.1172,-4.1172,-4.1172,-4.1172,-4.1074,-4.1094,-4.1016,-4.0607,-4.0529,-4.0431,-3.9235,-3.8047,-3.7392,-3.6557,-3.6414,-3.6253,-3.6253,-3.6253,-3.6253,-3.5574,-3.4716,-3.4067,-3.8281,-3.8574,-3.8574,-3.8574,-3.8574,-3.8574,-3.8574,-3.8594,-3.8672,-3.8906,-3.9258,-3.9766,-4.0234,-4.0508,-4.0918,-4.1133,-4.1172,-4.1172,-4.1172,-4.1172,-4.1172,-4.1172,-4.1172,-4.1172,-4.1172,-4.1172,-4.1172,-4.1172,-4.1172,-4.1172,-4.1172,-4.1172,-4.1172,-4.1172,-4.1172,-4.1172,-4.1172,-4.1172,-4.1172,-4.1172,-4.1133,-4.1074,-4.0898,-4.0625,-4.0156,-3.9941,-3.9707,-3.9297,-3.9121,-3.9023,-3.8711,-3.8613,-3.8574,-3.8887,-3.9082,-3.9238,-3.957,-3.9805,-4.0019,-4.0234,-4.0449,-4.0605,-4.0781,-4.0996,-4.1133,-4.1152,-4.1172,-4.1172,-4.1172,-4.1172,-4.1172,-4.1172,-4.1172,-4.1172,-4.1172,-4.1172,-4.1172,-4.1172,-4.1172,-4.1172,-4.1172,-4.1172,-4.1172,-4.1172,-4.1172,-4.1172,-4.1172,-4.1172,-4.1172,-4.1172,-4.1172,-4.1172,-4.1172,-4.1172,-4.1172,-4.1172,-4.1172,-4.1172,-4.1172,-4.1172,-4.1172,-4.0919,-4.0607,-3.9981,-3.9096,-3.8603,-3.8268,-3.8109,-3.795,-3.795,-3.8029,-3.8029,-3.795,-3.7339,-3.6477,-3.8066,-3.8301,-3.8496,-3.8574,-3.8574,-3.8574,-3.8574,-3.8574,-3.8574,-3.8711,-3.8965,-3.9394,-3.9824,-4.0254,-4.0684,-4.1055,-4.1113,-4.1172,-4.1172,-4.1172,-4.1172,-4.1172,-4.1172,-4.1172,-4.1172,-4.1172,-4.1172,-4.1172,-4.1172,-4.1172,-4.1172,-4.1172,-4.1172,-4.1172,-4.1172,-4.1172,-4.1172,-4.1172,-4.1172,-4.1172,-4.1172,-4.1133,-4.1094,-4.084,-4.0605,-4.041,-4.0156,-3.9766,-3.957,-3.9492,-3.9316,-3.9238,-3.9277,-3.9414,-3.9609,-3.9824,-4.0059,-4.0254,-4.0449,-4.0605,-4.0781,-4.0898,-4.0957,-4.1152,-4.1152,-4.1172,-4.1172,-4.1172,-4.1172,-4.1172,-4.1172,-4.1172,-4.1172,-4.1172,-4.1172,-4.1172,-4.1172,-4.1172,-4.1172,-4.1172,-4.1172,-4.1172,-4.1172,-4.1172,-4.1172,-4.1172,-4.1172,-4.1172,-4.1172,-4.1172,-4.1172,-4.1172,-4.1172,-4.1172,-4.1172,-4.1172,-4.1172,-4.1172,-4.1172,-4.1172,-4.1172,-4.0997,-4.0685,-4.0372,-4.0216,-4.0137,-3.9883,-3.949,-3.9647,-3.9726,-3.9726,-3.9726,-3.9726,-3.9569,-3.8919,-3.7812,-3.7969,-3.8398,-3.8574,-3.8574,-3.8574,-3.8574,-3.8574,-3.8574,-3.8574,-3.8633,-3.8984,-3.9394,-3.9824,-4.0332,-4.0723,-4.0996,-4.1113,-4.1152,-4.1172,-4.1172,-4.1172,-4.1172,-4.1172,-4.1172,-4.1172,-4.1172,-4.1172,-4.1172,-4.1172,-4.1172,-4.1172,-4.1172,-4.1172,-4.1172,-4.1172,-4.1172,-4.1172,-4.1172,-4.1172,-4.1172,-4.1172,-4.1152,-4.1016,-4.084,-4.0625,-4.0469,-4.0254,-4.0019,-3.9902,-3.9824,-3.9746,-3.9785,-3.9863,-4.0098,-4.0312,-4.0508,-4.0762,-4.0976,-4.1035,-4.1113,-4.1152,-4.1172,-4.1172,-4.1172,-4.1172,-4.1172,-4.1172,-4.1172,-4.1172,-4.1172,-4.1172,-4.1172,-4.1172,-4.1172,-4.1172,-4.1172,-4.1172,-4.1172,-4.1172,-4.1172,-4.1172,-4.1172,-4.1172,-4.1172,-4.1172,-4.1172,-4.1172,-4.1172,-4.1172,-4.1172,-4.1172,-4.1172,-4.1172,-4.1172,-4.1172,-4.1172,-4.1172,-4.1172,-4.1172,-4.1172,-4.1094,-4.0997,-4.1094,-4.0938,-4.086,-4.086,-4.0685,-4.0938,-4.0938,-4.0763,-4.0529,-4.0607,-4.0529,-4.0841,-3.7324,-3.7969,-3.8398,-3.8574,-3.8574,-3.8574,-3.8574,-3.8574,-3.8574,-3.8574,-3.8594,-3.8652,-3.8945,-3.9394,-4.0195,-4.0625,-4.0762,-4.0996,-4.1152,-4.1172,-4.1172,-4.1172,-4.1172,-4.1172,-4.1172,-4.1172,-4.1172,-4.1172,-4.1172,-4.1172,-4.1172,-4.1172,-4.1172,-4.1172,-4.1172,-4.1172,-4.1172,-4.1172,-4.1172,-4.1172,-4.1172,-4.1172,-4.1172,-4.1113,-4.1094,-4.1055,-4.0937,-4.0605,-4.0469,-4.0312,-4.0137,-4.0039,-4.0098,-4.0273,-4.0469,-4.0625,-4.082,-4.0996,-4.1152,-4.1172,-4.1172,-4.1172,-4.1172,-4.1172,-4.1172,-4.1172,-4.1172,-4.1172,-4.1172,-4.1172,-4.1172,-4.1172,-4.1172,-4.1172,-4.1172,-4.1172,-4.1172,-4.1172,-4.1172,-4.1172,-4.1172,-4.1172,-4.1172,-4.1172,-4.1172,-4.1172,-4.1172,-4.1172,-4.1172,-4.1172,-4.1172,-4.1172,-4.1172,-4.1172,-4.1172,-4.1172,-4.1172,-4.1172,-4.1172,-4.1172,-4.1172,-4.1172,-4.1172,-4.1172,-4.1172,-4.1094,-4.1172,-4.1172,-4.1172,-4.1094,-4.1172,-4.1094,-4.1172,-4.1172,-4.1172]},{"header":{"parameterUnit":"m.s-1","parameterCategory":1,"la1":31.0,"la2":29.5877,"lo1":-88.7671,"lo2":-86.6584,"dy":0.0162,"dx":0.0185,"nx":115,"ny":88,"refTime":"2026-03-30T12:00:00:Z","depth":0,"parameterNumber":3,"parameterNumberName":"V-component_of_WINDS"},"data":[0.0,0.0,0.0,0.0,0.0,0.0,0.0,0.0,0.0,0.0,0.0,0.0,0.0,0.0,0.0,0.0,0.0,0.0,0.0,0.0,0.0,0.0,0.0,0.0,0.0,0.0,0.0,0.0,0.0,0.0,0.0,0.0,0.0,0.0,0.0,0.0,0.0,0.0,0.0,0.0,0.0,0.0,0.0,0.0,0.0,0.0,0.0,0.0,0.0,0.0,0.0,0.0,0.0,0.0,0.0,0.0,0.0,0.0,0.0,0.0,0.0,0.0,0.0,0.0,0.0,0.0,0.0,0.0,0.0,0.0,0.0,0.0,0.0,0.0,0.0,0.0,0.0,0.0,0.0,0.0,0.0,0.0,0.0,0.0,0.0,0.0,0.0,0.0,0.0,0.0,0.0,0.0,0.0,0.0,0.0,0.0,0.0,0.0,0.0,0.0,0.0,0.0,0.0,0.0,0.0,0.0,0.0,0.0,0.0,0.0,0.0,0.0,0.0,0.0,0.0,0.0,0.0,0.0,0.0,0.0,0.0,0.0,0.0,0.0,0.0,0.0,0.0,0.0,0.0,0.0,0.0,0.0,0.0,0.0,0.0,0.0,0.0,0.0,0.0,0.0,0.0,0.0,0.0,0.0,0.0,0.0,0.0,0.0,0.0,0.0,0.0,0.0,0.0,0.0,0.0,0.0,0.0,0.0,0.0,0.0,0.0,0.0,0.0,0.0,0.0,0.0,0.0,0.0,0.0,0.0,0.0,0.0,0.0,0.0,0.0,0.0,0.0,0.0,0.0,0.0,0.0,0.0,0.0,0.0,0.0,0.0,0.0,0.0,0.0,0.0,0.0,0.0,0.0,0.0,0.0,0.0,0.0,0.0,0.0,0.0,0.0,0.0,0.0,0.0,0.0,0.0,0.0,0.0,0.0,0.0,0.0,0.0,0.0,0.0,0.0,0.0,0.0,0.0,0.0,0.0,0.0,0.0,0.0,0.0,0.0,0.0,0.0,0.0,0.0,0.0,0.0,0.0,0.0,0.0,0.0,0.0,0.0,0.0,0.0,0.0,0.0,0.0,0.0,0.0,0.0,0.0,0.0,0.0,0.0,0.0,0.0,0.0,0.0,0.0,0.0,0.0,0.0,0.0,0.0,0.0,0.0,0.0,0.0,0.0,0.0,0.0,0.0,0.0,0.0,0.0,0.0,0.0,0.0,0.0,0.0,0.0,0.0,0.0,0.0,0.0,0.0,0.0,0.0,0.0,0.0,0.0,0.0,0.0,0.0,0.0,0.0,0.0,0.0,0.0,0.0,0.0,0.0,0.0,0.0,0.0,0.0,0.0,0.0,0.0,0.0,0.0,0.0,0.0,0.0,0.0,0.0,0.0,0.0,0.0,0.0,0.0,0.0,0.0,0.0,0.0,0.0,0.0,0.0,0.0,0.0,0.0,0.0,0.0,0.0,0.0,0.0,0.0,0.0,0.0,0.0,0.0,0.0,0.0,0.0,0.0,0.0,0.0,0.0,0.0,0.0,0.0,0.0,0.0,0.0,0.0,0.0,0.0,0.0,0.0,0.0,0.0,0.0,0.0,0.0,0.0,0.0,0.0,0.0,0.0,0.0,0.0,0.0,0.0,0.0,0.0,0.0,0.0,0.0,0.0,0.0,0.0,0.0,0.0,0.0,0.0,0.0,0.0,0.0,0.0,0.0,0.0,0.0,0.0,0.0,0.0,0.0,0.0,0.0,0.0,0.0,0.0,0.0,0.0,0.0,0.0,0.0,0.0,0.0,0.0,0.0,0.0,0.0,0.0,0.0,0.0,0.0,0.0,0.0,0.0,0.0,0.0,0.0,0.0,0.0,0.0,0.0,0.0,0.0,0.0,0.0,0.0,0.0,0.0,0.0,0.0,0.0,0.0,0.0,0.0,0.0,0.0,0.0,0.0,0.0,0.0,0.0,0.0,0.0,0.0,0.0,0.0,0.0,0.0,0.0,0.0,0.0,0.0,0.0,0.0,0.0,0.0,0.0,0.0,0.0,0.0,0.0,0.0,0.0,0.0,0.0,0.0,0.0,0.0,0.0,0.0,0.0,0.0,0.0,0.0,0.0,0.0,0.0,0.0,0.0,0.0,0.0,0.0,0.0,0.0,0.0,0.0,0.0,0.0,0.0,0.0,0.0,0.0,0.0,0.0,0.0,0.0,0.0,0.0,0.0,0.0,0.0,0.0,0.0,0.0,0.0,0.0,0.0,0.0,0.0,0.0,0.0,0.0,0.0,0.0,0.0,0.0,0.0,0.0,0.0,0.0,0.0,0.0,0.0,0.0,0.0,0.0,0.0,0.0,0.0,0.0,0.0,0.0,0.0,0.0,0.0,0.0,0.0,0.0,0.0,0.0,0.0,0.0,0.0,0.0,0.0,0.0,0.0,0.0,0.0,0.0,0.0,0.0,0.0,0.0,0.0,0.0,0.0,0.0,0.0,0.0,0.0,0.0,0.0,0.0,0.0,0.0,0.0,0.0,0.0,0.0,0.0,0.0,0.0,0.0,0.0,0.0,0.0,0.0,0.0,0.0,0.0,0.0,0.0,0.0,0.0,0.0,0.0,0.0,0.0,0.0,0.0,0.0,0.0,0.0,0.0,0.0,0.0,0.0,0.0,0.0,0.0,0.0,0.0,0.0,0.0,0.0,0.0,0.0,0.0,0.0,0.0,0.0,0.0,0.0,0.0,0.0,0.0,0.0,0.0,0.0,0.0,0.0,0.0,0.0,0.0,0.0,0.0,0.0,0.0,0.0,0.0,0.0,0.0,0.0,0.0,0.0,0.0,0.0,0.0,0.0,0.0,0.0,0.0,0.0,0.0,0.0,0.0,0.0,0.0,0.0,0.0,0.0,0.0,0.0,0.0,0.0,0.0,0.0,0.0,0.0,0.0,0.0,0.0,0.0,0.0,0.0,0.0,0.0,0.0,0.0,0.0,0.0,0.0,0.0,0.0,0.0,0.0,0.0,0.0,0.0,0.0,0.0,0.0,0.0,0.0,0.0,0.0,0.0,0.0,0.0,0.0,0.0,0.0,0.0,0.0,0.0,0.0,0.0,0.0,0.0,0.0,0.0,0.0,0.0,0.0,0.0,0.0,0.0,0.0,0.0,0.0,0.0,0.0,0.0,0.0,0.0,0.0,0.0,0.0,0.0,0.0,0.0,0.0,0.0,0.0,0.0,0.0,0.0,0.0,0.0,0.0,0.0,0.0,0.0,0.0,0.0,0.0,0.0,0.0,0.0,0.0,0.0,0.0,0.0,0.0,0.0,0.0,0.0,0.0,0.0,0.0,0.0,0.0,0.0,0.0,0.0,0.0,0.0,0.0,0.0,0.0,0.0,0.0,0.0,0.0,0.0,0.0,0.0,0.0,0.0,0.0,0.0,0.0,0.0,0.0,0.0,0.0,0.0,0.0,0.0,0.0,0.0,0.0,0.0,0.0,0.0,0.0,0.0,0.0,0.0,0.0,0.0,0.0,0.0,0.0,0.0,0.0,0.0,0.0,0.0,0.0,0.0,0.0,0.0,0.0,0.0,0.0,0.0,0.0,0.0,0.0,0.0,0.0,0.0,0.0,0.0,0.0,0.0,0.0,0.0,0.0,0.0,0.0,0.0,0.0,0.0,0.0,0.0,0.0,0.0,0.0,0.0,0.0,0.0,0.0,0.0,0.0,0.0,0.0,0.0,0.0,0.0,0.0,0.0,0.0,0.0,0.0,0.0,0.0,0.0,0.0,0.0,0.0,0.0,0.0,0.0,0.0,0.0,0.0,0.0,0.0,0.0,0.0,0.0,0.0,0.0,0.0,0.0,0.0,0.0,0.0,0.0,0.0,0.0,0.0,0.0,0.0,0.0,0.0,0.0,0.0,0.0,0.0,0.0,0.0,0.0,0.0,0.0,0.0,0.0,0.0,0.0,0.0,0.0,0.0,0.0,0.0,0.0,0.0,0.0,0.0,0.0,0.0,0.0,0.0,0.0,0.0,0.0,0.0,0.0,0.0,0.0,0.0,0.0,0.0,0.0,0.0,0.0,0.0,0.0,0.0,0.0,0.0,0.0,0.0,0.0,0.0,0.0,0.0,0.0,0.0,0.0,0.0,0.0,0.0,0.0,0.0,0.0,0.0,0.0,0.0,0.0,0.0,0.0,0.0,0.0,0.0,0.0,0.0,0.0,0.0,0.0,0.0,0.0,0.0,0.0,0.0,0.0,0.0,0.0,0.0,0.0,0.0,0.0,0.0,0.0,2.5632,0.0,0.0,0.0,0.0,0.0,0.0,0.0,0.0,0.0,0.0,0.0,0.0,0.0,0.0,0.0,0.0,0.0,0.0,0.0,0.0,0.0,0.0,0.0,0.0,0.0,0.0,0.0,0.0,0.0,0.0,0.0,0.0,0.0,0.0,0.0,0.0,0.0,0.0,0.0,0.0,0.0,0.0,0.0,0.0,0.0,0.0,0.0,0.0,0.0,0.0,0.0,0.0,0.0,0.0,0.0,0.0,0.0,0.0,0.0,0.0,0.0,0.0,0.0,0.0,0.0,0.0,0.0,0.0,0.0,0.0,0.0,0.0,0.0,0.0,0.0,0.0,0.0,0.0,0.0,0.0,0.0,0.0,0.0,0.0,0.0,0.0,0.0,0.0,0.0,0.0,0.0,0.0,0.0,0.0,0.0,0.0,0.0,0.0,0.0,0.0,0.0,0.0,0.0,0.0,0.0,0.0,0.0,0.0,0.0,0.0,2.8254,2.8369,2.7368,2.6739,2.6506,0.0,0.0,0.0,0.0,0.0,0.0,0.0,0.0,0.0,0.0,0.0,0.0,0.0,0.0,0.0,0.0,0.0,0.0,0.0,0.0,0.0,0.0,0.0,0.0,0.0,0.0,0.0,0.0,0.0,0.0,0.0,0.0,0.0,0.0,0.0,0.0,0.0,0.0,0.0,0.0,0.0,0.0,0.0,0.0,0.0,0.0,0.0,0.0,0.0,0.0,0.0,0.0,0.0,0.0,0.0,0.0,0.0,0.0,0.0,0.0,0.0,0.0,0.0,0.0,0.0,0.0,0.0,0.0,0.0,0.0,0.0,0.0,0.0,0.0,0.0,0.0,0.0,0.0,0.0,0.0,0.0,0.0,0.0,0.0,0.0,0.0,0.0,0.0,0.0,0.0,0.0,0.0,0.0,0.0,0.0,0.0,0.0,0.0,0.0,0.0,0.0,0.0,0.0,0.0,0.0,0.0,0.0,0.0,0.0,0.0,0.0,0.0,2.7798,2.7029,2.6717,0.0,0.0,0.0,0.0,0.0,0.0,0.0,0.0,0.0,0.0,0.0,0.0,0.0,0.0,0.0,0.0,0.0,0.0,0.0,0.0,0.0,0.0,0.0,0.0,0.0,0.0,0.0,0.0,0.0,0.0,0.0,0.0,0.0,0.0,0.0,0.0,0.0,0.0,0.0,0.0,0.0,0.0,0.0,0.0,0.0,0.0,0.0,0.0,0.0,0.0,0.0,0.0,0.0,0.0,0.0,0.0,0.0,0.0,0.0,0.0,0.0,0.0,0.0,0.0,0.0,0.0,0.0,0.0,0.0,0.0,0.0,0.0,0.0,0.0,0.0,0.0,0.0,0.0,0.0,0.0,0.0,0.0,0.0,0.0,0.0,0.0,0.0,0.0,0.0,0.0,0.0,0.0,0.0,0.0,0.0,0.0,0.0,0.0,0.0,0.0,0.0,0.0,0.0,0.0,0.0,0.0,0.0,0.0,0.0,0.0,2.8512,2.8633,2.7482,0.0,2.5072,0.0,0.0,0.0,0.0,0.0,0.0,0.0,0.0,0.0,0.0,0.0,0.0,0.0,0.0,0.0,0.0,0.0,0.0,0.0,0.0,0.0,0.0,0.0,0.0,0.0,0.0,0.0,0.0,0.0,0.0,0.0,0.0,0.0,0.0,0.0,0.0,0.0,0.0,0.0,0.0,0.0,0.0,0.0,0.0,0.0,0.0,0.0,0.0,0.0,0.0,0.0,0.0,0.0,0.0,0.0,0.0,0.0,0.0,0.0,0.0,0.0,0.0,0.0,0.0,0.0,0.0,0.0,0.0,0.0,0.0,0.0,0.0,0.0,0.0,0.0,0.0,0.0,0.0,0.0,0.0,0.0,0.0,0.0,0.0,0.0,0.0,0.0,0.0,0.0,0.0,0.0,0.0,0.0,0.0,0.0,0.0,0.0,0.0,0.0,0.0,0.0,0.0,0.0,0.0,0.0,0.0,0.0,0.0,0.0,0.0,2.8533,2.8358,2.7191,2.5939,0.0,0.0,0.0,0.0,0.0,0.0,0.0,0.0,0.0,0.0,0.0,0.0,0.0,0.0,0.0,0.0,0.0,0.0,0.0,0.0,0.0,0.0,0.0,0.0,0.0,0.0,0.0,0.0,0.0,0.0,0.0,0.0,0.0,0.0,0.0,0.0,0.0,0.0,0.0,0.0,0.0,0.0,0.0,0.0,0.0,0.0,0.0,0.0,0.0,0.0,0.0,0.0,0.0,0.0,0.0,0.0,0.0,0.0,0.0,0.0,0.0,0.0,0.0,0.0,0.0,0.0,0.0,0.0,0.0,0.0,0.0,0.0,0.0,0.0,0.0,0.0,0.0,0.0,0.0,0.0,0.0,0.0,0.0,0.0,0.0,0.0,0.0,0.0,0.0,0.0,0.0,0.0,0.0,0.0,0.0,0.0,0.0,0.0,0.0,0.0,0.0,0.0,0.0,0.0,0.0,0.0,0.0,0.0,0.0,0.0,2.8428,2.8592,2.8168,2.697,2.5661,2.4281,0.0,0.0,0.0,0.0,0.0,0.0,0.0,0.0,0.0,0.0,0.0,0.0,0.0,0.0,0.0,0.0,0.0,0.0,0.0,0.0,0.0,0.0,0.0,0.0,0.0,0.0,0.0,0.0,0.0,0.0,0.0,0.0,0.0,0.0,0.0,0.0,0.0,0.0,0.0,0.0,0.0,0.0,0.0,0.0,0.0,0.0,0.0,0.0,0.0,0.0,0.0,0.0,0.0,0.0,0.0,0.0,0.0,0.0,0.0,0.0,0.0,0.0,0.0,0.0,0.0,0.0,0.0,0.0,0.0,0.0,0.0,0.0,0.0,0.0,0.0,0.0,0.0,0.0,0.0,0.0,0.0,0.0,0.0,0.0,0.0,0.0,0.0,0.0,0.0,0.0,0.0,0.0,0.0,0.0,0.0,0.0,0.0,0.0,0.0,0.0,0.0,0.0,0.0,0.0,0.0,0.0,0.0,0.0,2.8115,2.8507,2.8556,2.8168,2.6859,2.5477,0.0,0.0,0.0,0.0,0.0,0.0,0.0,0.0,0.0,0.0,0.0,0.0,0.0,0.0,0.0,0.0,0.0,0.0,0.0,0.0,0.0,0.0,0.0,0.0,0.0,0.0,0.0,0.0,0.0,0.0,0.0,0.0,0.0,0.0,0.0,0.0,0.0,0.0,0.0,0.0,0.0,0.0,0.0,0.0,0.0,0.0,0.0,0.0,0.0,0.0,0.0,0.0,0.0,0.0,0.0,0.0,0.0,0.0,0.0,0.0,0.0,0.0,0.0,0.0,0.0,0.0,0.0,0.0,0.0,0.0,0.0,0.0,0.0,0.0,0.0,0.0,0.0,0.0,0.0,0.0,0.0,0.0,0.0,0.0,0.0,0.0,0.0,0.0,0.0,0.0,0.0,0.0,0.0,0.0,0.0,0.0,0.0,0.0,0.0,0.0,0.0,0.0,0.0,0.0,0.0,0.0,0.0,0.0,0.0,2.725,2.774,2.7738,2.7189,2.6297,2.521,0.0,0.0,0.0,0.0,0.0,0.0,0.0,0.0,0.0,0.0,0.0,0.0,0.0,0.0,0.0,0.0,0.0,0.0,0.0,0.0,0.0,0.0,0.0,0.0,0.0,0.0,0.0,0.0,0.0,0.0,0.0,0.0,0.0,0.0,0.0,0.0,0.0,0.0,0.0,0.0,0.0,0.0,0.0,0.0,0.0,0.0,0.0,0.0,0.0,0.0,0.0,0.0,0.0,0.0,0.0,0.0,0.0,0.0,0.0,0.0,0.0,0.0,0.0,0.0,0.0,0.0,0.0,0.0,0.0,0.0,0.0,0.0,0.0,0.0,0.0,0.0,0.0,0.0,0.0,0.0,0.0,0.0,0.0,0.0,0.0,0.0,0.0,0.0,0.0,0.0,0.0,0.0,0.0,0.0,0.0,0.0,0.0,0.0,0.0,0.0,0.0,0.0,0.0,0.0,0.0,0.0,0.0,0.0,0.0,2.7484,0.0,2.8435,2.7559,2.6737,2.5633,0.0,0.0,0.0,0.0,0.0,0.0,0.0,0.0,0.0,0.0,0.0,0.0,0.0,0.0,0.0,0.0,0.0,0.0,0.0,0.0,0.0,0.0,0.0,0.0,0.0,0.0,0.0,0.0,0.0,0.0,0.0,0.0,0.0,0.0,0.0,0.0,0.0,0.0,0.0,0.0,0.0,0.0,0.0,0.0,0.0,0.0,0.0,0.0,0.0,0.0,0.0,0.0,0.0,0.0,0.0,0.0,0.0,0.0,0.0,0.0,0.0,0.0,0.0,0.0,0.0,0.0,0.0,0.0,0.0,0.0,0.0,0.0,0.0,0.0,0.0,0.0,0.0,0.0,0.0,0.0,0.0,0.0,0.0,0.0,0.0,0.0,0.0,0.0,0.0,0.0,0.0,0.0,0.0,0.0,0.0,0.0,0.0,0.0,0.0,0.0,0.0,0.0,0.0,0.0,0.0,0.0,0.0,0.0,2.7295,2.904,3.062,3.0761,2.9507,2.8278,2.6862,0.0,0.0,0.0,0.0,0.0,0.0,0.0,0.0,0.0,0.0,0.0,0.0,0.0,0.0,0.0,0.0,0.0,0.0,0.0,0.0,0.0,0.0,0.0,0.0,0.0,0.0,0.0,0.0,0.0,0.0,0.0,0.0,0.0,0.0,0.0,0.0,0.0,0.0,0.0,0.0,0.0,0.0,0.0,0.0,0.0,0.0,0.0,0.0,0.0,0.0,0.0,0.0,0.0,0.0,0.0,0.0,0.0,0.0,0.0,0.0,0.0,0.0,0.0,0.0,0.0,0.0,0.0,0.0,0.0,0.0,0.0,0.0,0.0,0.0,0.0,0.0,0.0,0.0,0.0,0.0,0.0,0.0,0.0,0.0,0.0,0.0,0.0,0.0,0.0,0.0,0.0,0.0,0.0,0.0,0.0,0.0,0.0,0.0,0.0,0.0,0.0,0.0,0.0,0.0,0.0,0.0,0.0,0.0,0.0,2.9753,3.1265,3.1494,3.0186,2.9754,2.8581,0.0,0.0,0.0,0.0,0.0,0.0,0.0,0.0,0.0,0.0,0.0,0.0,0.0,0.0,0.0,0.0,0.0,0.0,0.0,0.0,0.0,0.0,0.0,0.0,0.0,0.0,0.0,0.0,0.0,0.0,0.0,0.0,0.0,0.0,0.0,0.0,0.0,0.0,0.0,0.0,0.0,0.0,0.0,0.0,0.0,0.0,0.0,0.0,0.0,0.0,0.0,0.0,0.0,0.0,0.0,0.0,0.0,0.0,0.0,0.0,0.0,0.0,0.0,0.0,0.0,0.0,0.0,0.0,0.0,0.0,0.0,0.0,0.0,0.0,0.0,0.0,0.0,0.0,0.0,0.0,0.0,0.0,0.0,0.0,0.0,0.0,0.0,0.0,0.0,0.0,0.0,0.0,0.0,0.0,0.0,0.0,0.0,0.0,0.0,0.0,0.0,0.0,0.0,0.0,0.0,0.0,0.0,0.0,0.0,3.2833,3.3773,3.3552,3.1982,3.1647,3.0488,2.8394,0.0,0.0,0.0,0.0,0.0,0.0,0.0,0.0,0.0,0.0,0.0,0.0,0.0,0.0,0.0,0.0,0.0,0.0,0.0,0.0,0.0,0.0,0.0,0.0,0.0,0.0,0.0,0.0,0.0,0.0,0.0,0.0,0.0,0.0,0.0,0.0,0.0,0.0,0.0,0.0,0.0,0.0,0.0,0.0,0.0,0.0,0.0,0.0,0.0,0.0,0.0,0.0,0.0,0.0,0.0,0.0,0.0,0.0,0.0,0.0,0.0,0.0,0.0,0.0,0.0,0.0,0.0,0.0,0.0,0.0,0.0,0.0,0.0,0.0,0.0,0.0,0.0,0.0,0.0,0.0,0.0,0.0,0.0,0.0,0.0,0.0,0.0,0.0,0.0,0.0,0.0,0.0,0.0,0.0,0.0,0.0,0.0,0.0,0.0,0.0,0.0,0.0,0.0,0.0,0.0,0.0,0.0,0.0,3.7646,3.7861,3.6969,3.4936,3.4106,3.2665,0.0,0.0,0.0,0.0,0.0,0.0,0.0,0.0,0.0,0.0,0.0,0.0,0.0,0.0,0.0,0.0,0.0,0.0,0.0,0.0,0.0,0.0,0.0,0.0,0.0,0.0,0.0,0.0,0.0,0.0,0.0,0.0,0.0,0.0,0.0,0.0,0.0,0.0,0.0,0.0,0.0,0.0,0.0,0.0,0.0,0.0,0.0,0.0,0.0,0.0,0.0,0.0,0.0,0.0,0.0,0.0,0.0,0.0,0.0,0.0,0.0,0.0,0.0,0.0,0.0,0.0,0.0,0.0,0.0,0.0,0.0,0.0,0.0,0.0,0.0,0.0,0.0,0.0,0.0,0.0,0.0,0.0,0.0,0.0,0.0,0.0,0.0,0.0,0.0,0.0,0.0,0.0,0.0,0.0,0.0,0.0,0.0,0.0,0.0,0.0,0.0,0.0,0.0,0.0,0.0,0.0,0.0,0.0,0.0,3.9708,4.2171,4.2017,3.9062,3.78,3.5953,0.0,0.0,0.0,0.0,0.0,0.0,0.0,0.0,0.0,0.0,0.0,0.0,0.0,0.0,0.0,0.0,0.0,0.0,0.0,0.0,0.0,0.0,0.0,0.0,0.0,0.0,0.0,0.0,0.0,0.0,0.0,0.0,0.0,0.0,0.0,0.0,0.0,0.0,0.0,0.0,0.0,0.0,0.0,0.0,0.0,0.0,0.0,0.0,0.0,0.0,0.0,0.0,0.0,0.0,0.0,0.0,0.0,0.0,0.0,0.0,0.0,0.0,0.0,0.0,0.0,0.0,0.0,0.0,0.0,0.0,0.0,0.0,0.0,0.0,0.0,0.0,0.0,0.0,0.0,0.0,0.0,0.0,0.0,0.0,0.0,0.0,0.0,0.0,0.0,0.0,0.0,0.0,0.0,0.0,0.0,0.0,0.0,0.0,0.0,0.0,0.0,0.0,0.0,0.0,0.0,0.0,0.0,0.0,3.9493,4.1771,4.4849,4.5372,4.3125,4.097,3.8539,0.0,0.0,0.0,0.0,0.0,0.0,0.0,0.0,0.0,0.0,0.0,0.0,0.0,0.0,0.0,0.0,0.0,0.0,0.0,0.0,0.0,0.0,0.0,0.0,0.0,0.0,0.0,0.0,0.0,0.0,0.0,0.0,0.0,0.0,0.0,0.0,0.0,0.0,0.0,0.0,0.0,0.0,0.0,0.0,0.0,0.0,0.0,0.0,0.0,0.0,0.0,0.0,0.0,0.0,0.0,0.0,0.0,0.0,0.0,0.0,0.0,0.0,0.0,0.0,0.0,0.0,0.0,0.0,0.0,0.0,0.0,0.0,0.0,0.0,0.0,0.0,0.0,0.0,0.0,0.0,0.0,0.0,0.0,0.0,0.0,0.0,0.0,0.0,0.0,0.0,0.0,0.0,0.0,0.0,0.0,0.0,0.0,0.0,0.0,0.0,0.0,0.0,0.0,0.0,0.0,0.0,0.0,0.0,4.1155,4.387,4.6449,4.7496,4.6757,4.3556,4.0509,0.0,0.0,0.0,0.0,0.0,0.0,0.0,0.0,0.0,0.0,0.0,0.0,0.0,0.0,0.0,0.0,0.0,0.0,0.0,0.0,0.0,0.0,0.0,0.0,0.0,0.0,0.0,0.0,0.0,0.0,0.0,0.0,0.0,0.0,0.0,0.0,0.0,0.0,0.0,0.0,0.0,0.0,0.0,0.0,0.0,0.0,0.0,0.0,0.0,0.0,0.0,0.0,0.0,0.0,0.0,0.0,0.0,0.0,0.0,0.0,0.0,0.0,0.0,0.0,0.0,0.0,0.0,0.0,0.0,0.0,0.0,0.0,0.0,0.0,0.0,0.0,0.0,0.0,0.0,0.0,0.0,0.0,0.0,0.0,0.0,0.0,0.0,0.0,0.0,0.0,0.0,0.0,0.0,0.0,0.0,0.0,0.0,0.0,0.0,0.0,0.0,0.0,0.0,0.0,0.0,0.0,0.0,0.0,4.3248,4.5895,4.8112,4.8912,4.8173,4.491,4.1863,0.0,0.0,0.0,0.0,0.0,0.0,0.0,0.0,0.0,0.0,0.0,0.0,0.0,0.0,0.0,0.0,0.0,0.0,0.0,0.0,0.0,0.0,0.0,0.0,0.0,0.0,0.0,0.0,0.0,0.0,0.0,0.0,0.0,0.0,0.0,0.0,0.0,0.0,0.0,0.0,0.0,0.0,0.0,0.0,0.0,0.0,0.0,0.0,3.4952,0.0,0.0,0.0,0.0,0.0,0.0,0.0,0.0,0.0,0.0,0.0,0.0,0.0,0.0,0.0,0.0,0.0,0.0,0.0,0.0,0.0,0.0,0.0,0.0,0.0,0.0,0.0,0.0,0.0,0.0,0.0,0.0,0.0,0.0,0.0,0.0,0.0,0.0,0.0,0.0,0.0,0.0,0.0,0.0,0.0,0.0,0.0,0.0,0.0,0.0,0.0,0.0,0.0,0.0,0.0,0.0,0.0,0.0,0.0,4.4695,4.7004,4.8789,4.9343,4.8573,4.5957,4.3248,0.0,0.0,0.0,0.0,0.0,0.0,0.0,0.0,0.0,0.0,0.0,0.0,0.0,0.0,0.0,0.0,0.0,0.0,0.0,0.0,0.0,0.0,0.0,0.0,0.0,0.0,0.0,0.0,0.0,0.0,0.0,0.0,0.0,0.0,0.0,0.0,0.0,0.0,0.0,0.0,0.0,0.0,0.0,0.0,0.0,0.0,0.0,0.0,0.0,0.0,0.0,0.0,0.0,0.0,0.0,0.0,0.0,0.0,0.0,0.0,0.0,0.0,0.0,0.0,0.0,0.0,0.0,0.0,0.0,0.0,0.0,0.0,0.0,0.0,0.0,0.0,0.0,0.0,0.0,0.0,0.0,0.0,0.0,0.0,0.0,0.0,0.0,0.0,0.0,0.0,0.0,0.0,0.0,0.0,0.0,0.0,0.0,0.0,0.0,0.0,0.0,0.0,0.0,0.0,0.0,0.0,0.0,4.294,4.5957,4.7865,4.9281,4.962,4.8789,4.6696,4.4295,4.1524,0.0,0.0,0.0,0.0,0.0,0.0,0.0,0.0,0.0,0.0,0.0,0.0,0.0,0.0,0.0,0.0,0.0,0.0,0.0,0.0,0.0,0.0,0.0,0.0,0.0,0.0,0.0,0.0,0.0,0.0,0.0,0.0,0.0,0.0,0.0,0.0,0.0,0.0,3.5894,3.7805,0.0,0.0,0.0,0.0,0.0,0.0,0.0,0.0,3.6581,0.0,0.0,0.0,0.0,0.0,0.0,0.0,0.0,0.0,0.0,0.0,0.0,0.0,0.0,0.0,0.0,0.0,0.0,0.0,0.0,0.0,0.0,0.0,0.0,0.0,0.0,0.0,0.0,0.0,0.0,0.0,0.0,0.0,0.0,0.0,0.0,0.0,0.0,0.0,0.0,0.0,0.0,0.0,0.0,0.0,0.0,0.0,0.0,0.0,0.0,0.0,0.0,0.0,0.0,0.0,0.0,4.0166,4.4756,4.7835,4.9312,5.0667,5.0759,4.9497,4.6973,4.4048,4.0812,0.0,0.0,0.0,0.0,0.0,0.0,0.0,0.0,0.0,0.0,0.0,0.0,0.0,0.0,0.0,0.0,0.0,0.0,0.0,0.0,0.0,0.0,0.0,0.0,0.0,0.0,0.0,0.0,0.0,0.0,0.0,0.0,0.0,0.0,0.0,0.0,0.0,0.0,0.0,4.1499,4.2254,0.0,0.0,0.0,0.0,0.0,0.0,0.0,0.0,3.8463,0.0,0.0,0.0,0.0,0.0,0.0,0.0,0.0,0.0,0.0,0.0,0.0,0.0,0.0,0.0,0.0,0.0,0.0,0.0,0.0,0.0,0.0,0.0,0.0,0.0,0.0,0.0,0.0,0.0,0.0,0.0,0.0,0.0,0.0,0.0,0.0,0.0,0.0,0.0,0.0,0.0,0.0,0.0,0.0,0.0,0.0,0.0,0.0,0.0,0.0,0.0,0.0,0.0,0.0,0.0,4.2633,4.6634,4.9343,5.0697,5.1374,5.0882,4.9158,4.648,4.3464,0.0,0.0,0.0,0.0,0.0,0.0,0.0,0.0,0.0,0.0,0.0,0.0,0.0,0.0,0.0,0.0,0.0,0.0,0.0,0.0,0.0,0.0,0.0,0.0,0.0,0.0,0.0,0.0,0.0,0.0,0.0,0.0,0.0,0.0,0.0,0.0,0.0,0.0,0.0,0.0,4.3727,4.4756,4.379,0.0,0.0,0.0,0.0,0.0,0.0,4.0972,3.9832,0.0,0.0,0.0,0.0,0.0,0.0,0.0,0.0,0.0,0.0,0.0,0.0,0.0,0.0,0.0,0.0,0.0,0.0,0.0,0.0,0.0,0.0,0.0,0.0,0.0,0.0,0.0,0.0,0.0,0.0,0.0,0.0,0.0,0.0,0.0,0.0,0.0,0.0,0.0,0.0,0.0,0.0,0.0,0.0,0.0,0.0,0.0,0.0,0.0,0.0,0.0,0.0,0.0,0.0,0.0,4.4692,4.8204,5.0611,5.1752,5.1968,5.1024,4.8872,4.6222,4.3128,0.0,0.0,0.0,0.0,0.0,0.0,0.0,0.0,0.0,0.0,0.0,0.0,0.0,0.0,0.0,0.0,0.0,0.0,0.0,0.0,0.0,0.0,0.0,0.0,0.0,0.0,0.0,0.0,0.0,0.0,0.0,0.0,0.0,0.0,0.0,0.0,0.0,0.0,0.0,0.0,0.0,4.6749,4.5993,4.4968,0.0,0.0,0.0,0.0,4.3551,4.3151,0.0,0.0,0.0,0.0,0.0,0.0,0.0,0.0,0.0,0.0,0.0,0.0,0.0,0.0,0.0,0.0,0.0,0.0,0.0,0.0,0.0,0.0,0.0,0.0,0.0,0.0,0.0,0.0,0.0,0.0,0.0,0.0,0.0,0.0,0.0,0.0,0.0,0.0,0.0,0.0,0.0,0.0,0.0,0.0,0.0,0.0,0.0,0.0,0.0,0.0,0.0,0.0,0.0,0.0,0.0,0.0,4.5104,4.9085,5.1483,5.2305,5.2897,5.2016,4.9524,4.6988,4.3658,0.0,0.0,0.0,0.0,0.0,0.0,0.0,0.0,0.0,0.0,0.0,0.0,0.0,0.0,0.0,0.0,0.0,0.0,0.0,0.0,0.0,0.0,0.0,0.0,0.0,0.0,0.0,0.0,0.0,0.0,0.0,0.0,0.0,0.0,0.0,0.0,0.0,0.0,0.0,0.0,0.0,4.8443,4.8232,4.7432,4.6777,0.0,0.0,4.6447,4.7162,4.7259,0.0,0.0,0.0,0.0,0.0,0.0,0.0,0.0,0.0,0.0,0.0,0.0,0.0,0.0,0.0,0.0,0.0,0.0,0.0,0.0,0.0,0.0,0.0,0.0,0.0,0.0,0.0,0.0,0.0,0.0,0.0,0.0,0.0,0.0,0.0,0.0,0.0,0.0,0.0,0.0,0.0,0.0,0.0,0.0,0.0,0.0,0.0,0.0,0.0,0.0,0.0,0.0,0.0,0.0,0.0,4.2214,4.6605,4.9967,5.2198,5.3341,5.3624,5.2587,5.0168,4.812,4.4962,0.0,0.0,0.0,0.0,0.0,0.0,0.0,0.0,0.0,0.0,0.0,0.0,0.0,0.0,0.0,0.0,0.0,0.0,0.0,0.0,0.0,0.0,0.0,0.0,0.0,0.0,0.0,0.0,0.0,0.0,0.0,0.0,0.0,0.0,0.0,0.0,0.0,0.0,0.0,0.0,0.0,0.0,4.9407,4.9418,0.0,0.0,0.0,4.9008,5.0142,0.0,0.0,0.0,0.0,0.0,0.0,0.0,0.0,0.0,0.0,0.0,0.0,0.0,0.0,0.0,0.0,0.0,0.0,0.0,0.0,0.0,0.0,0.0,0.0,0.0,0.0,0.0,0.0,0.0,0.0,0.0,0.0,0.0,0.0,0.0,0.0,0.0,0.0,0.0,0.0,0.0,0.0,0.0,0.0,0.0,0.0,0.0,0.0,0.0,0.0,0.0,0.0,0.0,0.0,0.0,0.0,0.0,4.8014,5.0842,5.294,5.438,5.438,5.3282,5.1121,4.9401,0.0,0.0,0.0,0.0,0.0,0.0,0.0,0.0,0.0,0.0,0.0,0.0,0.0,0.0,0.0,0.0,0.0,0.0,0.0,0.0,0.0,0.0,0.0,0.0,0.0,0.0,0.0,2.7796,0.0,0.0,0.0,0.0,0.0,0.0,0.0,0.0,0.0,0.0,0.0,0.0,0.0,0.0,5.0424,5.0804,5.1494,5.1977,0.0,0.0,5.1528,5.2601,5.3287,5.236,0.0,0.0,0.0,0.0,0.0,0.0,0.0,0.0,0.0,0.0,0.0,0.0,0.0,0.0,0.0,0.0,0.0,0.0,0.0,0.0,0.0,0.0,0.0,0.0,0.0,0.0,0.0,0.0,0.0,0.0,0.0,0.0,0.0,0.0,0.0,0.0,0.0,0.0,0.0,0.0,0.0,0.0,0.0,0.0,0.0,0.0,0.0,0.0,0.0,0.0,0.0,0.0,0.0,0.0,4.3425,4.8792,5.17,5.3833,5.5222,5.5287,5.4453,5.2702,5.0968,4.7869,0.0,0.0,0.0,0.0,0.0,0.0,0.0,0.0,0.0,0.0,0.0,0.0,0.0,0.0,0.0,0.0,0.0,0.0,0.0,0.0,0.0,0.0,0.0,0.0,0.0,0.0,0.0,0.0,0.0,0.0,0.0,0.0,0.0,0.0,0.0,0.0,0.0,0.0,0.0,0.0,0.0,5.1563,5.2977,5.3804,5.4287,0.0,5.4253,5.4253,5.4322,5.4391,5.3118,4.9148,0.0,0.0,0.0,0.0,0.0,0.0,0.0,0.0,0.0,0.0,0.0,0.0,0.0,0.0,0.0,0.0,0.0,0.0,0.0,0.0,0.0,0.0,0.0,0.0,0.0,0.0,0.0,0.0,0.0,0.0,0.0,0.0,0.0,0.0,0.0,0.0,0.0,0.0,0.0,0.0,0.0,0.0,0.0,0.0,0.0,0.0,0.0,0.0,0.0,0.0,0.0,0.0,0.0,4.3784,4.8949,5.2265,5.4695,5.6146,5.6179,5.5512,5.4276,5.2901,4.999,0.0,0.0,0.0,0.0,0.0,0.0,0.0,0.0,0.0,0.0,0.0,0.0,0.0,0.0,0.0,0.0,0.0,0.0,0.0,0.0,0.0,0.0,0.0,0.0,0.0,0.0,0.0,0.0,3.119,3.1393,3.119,0.0,0.0,0.0,0.0,0.0,0.0,0.0,0.0,0.0,0.0,5.308,5.4563,5.5426,0.0,0.0,5.5908,5.5736,5.5288,5.5219,5.3877,5.009,4.6247,0.0,0.0,0.0,0.0,0.0,0.0,0.0,0.0,0.0,0.0,0.0,0.0,0.0,0.0,0.0,0.0,0.0,0.0,0.0,0.0,0.0,0.0,0.0,0.0,0.0,0.0,0.0,0.0,0.0,0.0,0.0,0.0,0.0,0.0,0.0,0.0,0.0,0.0,0.0,0.0,0.0,0.0,0.0,0.0,0.0,0.0,0.0,0.0,0.0,0.0,0.0,0.0,4.4164,4.9128,5.2782,5.5339,5.6839,5.6839,5.6292,5.5219,5.4292,5.1627,0.0,0.0,0.0,0.0,0.0,0.0,0.0,0.0,0.0,0.0,0.0,0.0,0.0,0.0,0.0,0.0,0.0,0.0,0.0,0.0,0.0,0.0,0.0,0.0,0.0,0.0,0.0,0.0,3.2462,3.2361,3.1616,0.0,0.0,0.0,0.0,0.0,0.0,0.0,0.0,0.0,0.0,5.377,5.5667,5.646,5.6943,5.7391,5.7081,5.6529,5.5736,5.5014,5.3563,5.0493,0.0,0.0,0.0,0.0,0.0,0.0,0.0,0.0,0.0,0.0,0.0,0.0,0.0,0.0,0.0,0.0,0.0,0.0,0.0,0.0,0.0,0.0,0.0,0.0,0.0,0.0,0.0,3.2441,0.0,0.0,3.2441,0.0,0.0,0.0,0.0,0.0,0.0,0.0,0.0,0.0,0.0,0.0,0.0,0.0,0.0,0.0,0.0,0.0,0.0,0.0,0.0,0.0,0.0,4.449,4.9521,5.3205,5.5783,5.7222,5.7289,5.6694,5.5465,5.4868,5.2369,4.7689,0.0,0.0,0.0,0.0,0.0,0.0,0.0,0.0,0.0,0.0,0.0,0.0,0.0,0.0,0.0,0.0,0.0,0.0,0.0,0.0,0.0,0.0,0.0,0.0,0.0,0.0,3.4167,3.3761,3.3051,0.0,0.0,0.0,0.0,0.0,0.0,0.0,0.0,0.0,4.69,5.0204,5.3325,5.6322,5.6805,5.7322,5.8702,5.7736,5.6529,5.5669,5.3736,5.174,0.0,0.0,0.0,0.0,0.0,0.0,0.0,0.0,0.0,0.0,0.0,0.0,0.0,0.0,0.0,0.0,0.0,0.0,0.0,0.0,0.0,0.0,0.0,0.0,0.0,0.0,0.0,3.6236,3.5765,0.0,0.0,0.0,0.0,0.0,0.0,0.0,0.0,0.0,0.0,0.0,4.3932,4.509,0.0,0.0,0.0,0.0,0.0,0.0,0.0,0.0,0.0,0.0,0.0,0.0,4.4541,4.9167,5.3382,5.6248,5.7665,5.7698,5.7263,5.6354,5.5208,5.1555,4.5042,0.0,0.0,0.0,0.0,0.0,0.0,0.0,0.0,0.0,0.0,0.0,0.0,0.0,0.0,0.0,0.0,0.0,0.0,0.0,0.0,0.0,0.0,0.0,0.0,0.0,3.3761,0.0,0.0,0.0,0.0,0.0,0.0,0.0,0.0,0.0,0.0,0.0,4.4736,4.8216,5.1059,5.3716,5.6261,5.7152,5.7702,0.0,0.0,0.0,0.0,0.0,0.0,0.0,0.0,0.0,0.0,0.0,0.0,0.0,0.0,5.0149,4.839,4.8286,4.8217,4.7458,0.0,0.0,0.0,0.0,0.0,0.0,0.0,0.0,0.0,0.0,0.0,0.0,0.0,0.0,4.028,3.9704,3.8488,0.0,0.0,0.0,0.0,0.0,0.0,0.0,0.0,4.8791,5.0091,4.8987,5.0192,4.9991,0.0,4.852,4.5948,0.0,0.0,0.0,0.0,0.0,0.0,0.0,0.0,4.5432,4.939,5.4059,5.6934,5.7814,5.7881,5.7543,5.6799,5.4871,5.1014,4.5167,4.2388,3.9208,0.0,0.0,0.0,0.0,0.0,0.0,0.0,0.0,0.0,0.0,0.0,0.0,0.0,0.0,0.0,0.0,0.0,0.0,0.0,0.0,0.0,0.0,0.0,3.4878,0.0,0.0,0.0,0.0,0.0,0.0,0.0,0.0,0.0,4.1844,4.434,4.7153,4.9975,5.2039,5.4152,5.6458,0.0,0.0,0.0,0.0,0.0,0.0,0.0,5.1839,5.1597,5.1149,5.1149,5.2183,5.3038,5.3929,5.496,0.0,0.0,5.3663,5.3529,5.3632,5.2873,5.277,5.2559,5.1855,5.2513,5.334,0.0,0.0,0.0,0.0,4.2204,0.0,0.0,0.0,4.4751,4.439,0.0,4.1978,0.0,0.0,0.0,0.0,4.0334,4.3522,0.0,0.0,5.3517,5.5378,5.4668,5.5309,5.4938,5.3653,5.3518,5.1929,4.8852,4.3732,0.0,0.0,0.0,0.0,0.0,0.0,4.7158,5.0168,5.5175,5.7848,5.7881,5.7881,5.7509,5.6731,5.3957,5.1048,4.8075,4.5872,4.3024,3.9309,3.7777,0.0,0.0,0.0,0.0,0.0,0.0,0.0,0.0,0.0,0.0,0.0,0.0,0.0,0.0,0.0,0.0,0.0,0.0,0.0,0.0,3.6897,0.0,0.0,0.0,0.0,0.0,0.0,0.0,0.0,0.0,0.0,4.5547,4.7374,4.9682,5.2071,0.0,0.0,0.0,0.0,5.8975,5.9515,5.8992,5.8194,5.7168,5.5073,5.3804,5.4529,0.0,0.0,5.6771,5.7765,5.8413,5.8679,6.0028,6.0728,5.939,5.8977,5.8701,5.8045,5.7837,5.7769,5.7147,5.761,5.8698,4.9821,0.0,0.0,0.0,0.0,4.88,5.0432,5.1841,5.0649,4.9822,4.9193,4.6975,0.0,0.0,0.0,0.0,0.0,0.0,4.8813,5.1294,5.5341,5.6867,5.619,5.69,5.6765,5.5852,5.5344,5.4093,5.2164,4.9533,4.6127,4.2098,0.0,0.0,0.0,0.0,4.7428,5.0913,5.5006,5.7374,5.7881,5.7881,5.7306,5.6019,5.4668,5.2773,5.0306,4.8646,4.6278,4.3159,4.1542,0.0,0.0,0.0,0.0,0.0,0.0,0.0,0.0,0.0,0.0,0.0,0.0,0.0,0.0,0.0,0.0,0.0,0.0,0.0,3.841,3.9126,3.8843,0.0,0.0,0.0,0.0,0.0,0.0,0.0,0.0,0.0,5.1825,5.2369,5.313,0.0,0.0,5.7279,5.8571,5.9597,6.026,6.0195,5.9861,0.0,5.8229,5.7244,5.6874,5.7598,5.9116,6.053,6.1461,6.2091,6.2509,6.2783,6.3437,6.395,6.373,6.242,6.1245,6.0546,6.0756,6.0827,6.0231,6.0841,6.1828,5.6213,5.2074,5.1469,5.1801,5.2832,5.432,5.5984,5.7591,5.6151,5.5247,5.468,5.22,5.0057,4.8247,4.6873,0.0,0.0,0.0,5.2472,5.4529,5.7744,5.8829,5.8186,5.8863,5.8693,5.7679,5.7239,5.6258,5.4803,5.389,5.1555,4.7767,0.0,0.0,4.4519,4.6786,4.9289,5.2131,5.5784,5.7746,5.7881,5.7881,5.7205,5.5784,5.5277,5.3957,5.1725,5.0507,4.8646,4.6007,4.4209,4.1779,0.0,0.0,0.0,0.0,0.0,0.0,0.0,0.0,0.0,0.0,0.0,2.9247,2.9856,0.0,0.0,0.0,3.709,3.9351,4.1047,4.1901,0.0,0.0,0.0,0.0,0.0,0.0,0.0,4.9528,5.233,5.4783,5.6474,5.7338,5.7676,5.7217,5.8338,5.9526,6.0367,0.0,6.1925,6.1614,6.1459,6.1062,6.0352,5.9681,5.9624,6.0633,6.1953,6.3135,6.3899,6.4323,6.4636,6.5009,6.5341,6.5697,6.594,6.4939,6.3985,6.3583,6.3834,6.4081,6.4008,6.4621,6.526,6.1725,6.0296,5.7258,5.6912,5.8391,5.9432,6.0886,6.2415,6.0994,6.0351,6.0047,5.7306,5.5209,5.3653,5.1488,0.0,5.3822,5.5243,5.6596,5.8051,6.025,6.0892,6.025,6.0994,6.0588,5.9099,5.9099,5.8287,5.6833,5.6765,5.6089,5.4532,4.8474,4.638,4.8345,5.034,5.2164,5.3687,5.7137,5.8592,5.7915,5.7881,5.7205,5.575,5.5681,5.4668,5.2503,5.1758,5.0373,4.824,4.6109,4.3876,4.1576,0.0,0.0,0.0,0.0,0.0,0.0,0.0,0.0,0.0,0.0,0.0,0.0,0.0,0.0,0.0,4.0517,0.0,4.4214,4.5129,0.0,0.0,0.0,4.4417,4.685,4.946,5.1718,5.3394,0.0,0.0,5.9796,6.186,6.2542,6.0444,6.0855,6.17,6.257,6.34,6.3896,6.3678,6.3555,6.34,6.3073,6.229,6.2131,6.3365,6.3752,6.4,6.4633,6.5045,6.5409,6.5697,6.6043,6.6452,6.6822,6.6815,6.6921,6.7087,6.6928,6.7079,6.7715,6.812,6.8435,6.4664,6.4334,6.3511,6.2347,6.0973,6.1944,6.2986,6.3971,6.3091,6.2381,6.1704,5.9877,5.7915,5.5953,5.4871,5.4972,5.6055,5.6968,5.7881,5.8829,6.052,6.1197,6.1061,6.1772,6.1332,5.9911,5.9844,5.8795,5.6867,5.6799,5.6359,5.5378,5.3281,5.2198,5.2198,5.2706,5.3721,5.514,5.7137,5.8084,5.7881,5.7881,5.7205,5.575,5.5681,5.4938,5.3281,5.3044,5.2164,5.0475,4.8849,4.6684,4.3938,4.0967,0.0,0.0,0.0,0.0,0.0,0.0,0.0,0.0,0.0,3.2622,3.4682,0.0,3.8023,0.0,4.3147,4.6248,4.7652,4.9022,0.0,0.0,4.8198,4.865,5.1198,5.3186,5.5266,5.7618,5.9835,6.1462,6.2259,6.3382,6.4122,6.4166,6.4888,6.5465,6.5712,6.5974,6.6083,6.5779,6.5616,6.5561,6.5216,6.4888,6.4618,6.508,6.5116,6.5187,6.5365,6.5693,6.6074,6.641,6.6707,6.7316,6.8182,6.8384,6.8868,6.9792,6.8862,6.7878,6.8739,6.911,6.9292,6.617,6.6203,6.6203,6.5335,6.4091,6.4578,6.5099,6.5527,6.4783,6.4241,6.3768,6.2279,6.0757,5.9302,5.8863,5.8896,5.9302,5.9708,6.0114,6.0554,6.14,6.1772,6.1806,6.2212,6.1941,6.1129,6.0419,5.9471,5.8287,5.7949,5.7577,5.7169,5.707,5.6697,5.5953,5.4972,5.504,5.619,5.7306,5.7881,5.7881,5.7577,5.6867,5.5784,5.5378,5.4499,5.3044,5.2976,5.2266,5.0777,4.9323,4.7462,4.5162,4.2252,3.9073,0.0,0.0,0.0,0.0,0.0,0.0,0.0,0.0,0.0,0.0,0.0,4.2316,4.3691,4.6453,4.8969,5.0904,5.2469,5.3508,5.3821,5.3487,5.3968,5.5749,5.7385,5.9078,6.0883,6.2566,6.3889,6.4685,6.5192,6.5627,6.6062,6.6533,6.6822,6.6822,6.6874,6.6845,6.6668,6.6506,6.6416,6.6269,6.6166,6.61,6.61,6.6064,6.61,6.6064,6.6349,6.6655,6.6889,6.7154,6.767,6.866,6.8898,6.9449,7.0567,7.0039,6.9435,7.0426,7.0704,7.0792,6.6812,6.6812,6.6812,6.6812,6.6812,6.6812,6.6812,6.6779,6.6136,6.5797,6.5595,6.4241,6.3226,6.255,6.2516,6.2482,6.2415,6.2415,6.2415,6.2415,6.2415,6.2415,6.2415,6.2482,6.2415,6.2178,6.0892,6.0148,5.9945,5.9336,5.8998,5.9032,5.9742,5.9742,5.8964,5.7103,5.6393,5.6934,5.7577,5.7881,5.7881,5.7171,5.6461,5.5716,5.4905,5.3721,5.2266,5.2164,5.1488,5.0033,4.8748,4.7394,4.5872,4.3166,4.0358,0.0,3.6741,0.0,0.0,0.0,0.0,0.0,0.0,0.0,0.0,4.5492,4.6895,4.8895,5.0078,5.1647,5.3929,5.5558,5.7007,5.8383,5.8565,5.8927,5.9941,6.139,6.2657,6.3526,6.4975,6.617,6.6605,6.6822,6.6786,6.675,6.6786,6.6822,6.6822,6.6786,6.6822,6.6822,6.674,6.6891,6.7059,6.7112,6.72,6.7164,6.7121,6.6976,6.7048,6.7055,6.7126,6.7238,6.7414,6.7881,6.8871,6.9082,6.9633,7.1174,7.0816,7.0641,7.1704,7.1924,7.2202,6.6812,6.6812,6.6812,6.6812,6.6812,6.6812,6.6812,6.6812,6.6643,6.6271,6.5628,6.4783,6.3971,6.3328,6.3294,6.2956,6.2415,6.2415,6.2415,6.2415,6.2415,6.2415,6.2448,6.3024,6.2685,6.1535,6.1197,6.0419,5.9235,5.9099,5.8998,5.9032,5.9742,5.9742,5.9032,0.0,0.0,0.0,5.7814,5.7881,5.7848,5.7171,5.6461,5.5716,5.4397,0.0,5.1522,5.142,5.0744,4.9323,4.8951,0.0,0.0,0.0,0.0,0.0,0.0,0.0,0.0,0.0,0.0,0.0,4.8745,4.8853,4.737,4.8722,5.0486,5.233,5.3435,5.4689,5.6391,5.7985,5.9035,5.9325,5.9398,6.0194,6.2223,6.3345,6.4468,6.5953,6.6967,6.7329,6.6895,6.6822,6.6822,6.6822,6.6822,6.6822,6.6822,6.6822,6.6822,6.6858,6.7389,6.8218,6.9136,6.9201,6.9149,6.9364,6.8879,6.8485,6.8375,6.7927,6.7579,6.7606,6.7633,6.8137,6.9559,6.9853,7.033,7.1945,7.1615,7.1146,7.1468,7.1027,7.055,6.7929,6.7929,6.7929,6.7929,0.0,6.7523,6.7354,6.732,6.6981,6.6373,6.5662,6.529,6.4546,6.3497,6.3125,6.255,6.1839,6.1434,6.1467,6.1839,6.1839,6.2042,6.2415,6.2787,6.255,6.1806,6.1061,6.0723,6.0655,6.0317,6.0317,6.0689,6.1434,6.1231,6.0148,5.9742,5.8998,5.7915,5.7881,5.7881,5.7881,5.7171,5.6461,5.5716,5.4634,0.0,0.0,0.0,0.0,0.0,0.0,0.0,0.0,0.0,0.0,4.3607,4.3502,4.368,4.4063,4.5901,4.8092,5.0593,5.3086,5.3819,5.2029,5.3122,5.4458,5.5785,5.6367,5.7261,5.8818,5.9724,6.0375,6.0774,6.1498,6.2367,6.32,6.4613,6.5881,6.6641,6.7184,6.7366,6.7402,6.7003,6.6822,6.6822,6.6822,6.6822,6.6822,6.6822,6.6931,6.7329,6.8173,6.8975,6.9515,6.9798,6.9949,6.9924,6.9687,6.9376,6.8972,6.8568,6.8201,6.7797,6.7687,6.8201,6.9669,7.011,7.0587,7.1908,7.1541,7.077,7.0697,7.0403,7.011,6.9079,6.9079,6.9079,6.9079,6.9045,6.8368,6.803,6.7861,6.7151,0.0,0.0,6.5899,6.5087,6.37,6.3057,6.2313,6.1467,6.0791,6.0858,6.1501,6.1501,6.1806,6.2381,6.2415,6.2415,6.2313,6.096,6.1028,6.2347,6.1637,6.167,6.2381,6.3024,6.2651,6.1332,6.0486,5.9505,5.8321,5.8287,5.8287,5.8254,5.7442,5.6697,5.6122,5.5141,5.3653,5.1691,5.1455,5.0777,4.9492,4.8815,4.848,4.8477,4.7577,4.714,4.7255,4.7859,4.8459,4.8951,5.0667,5.2165,5.3264,5.6097,5.7478,5.6681,5.7224,5.7913,5.8565,5.8746,5.9361,6.0665,6.0928,6.1399,6.2331,6.349,6.4033,6.4142,6.5591,6.6786,6.6967,6.7076,6.7184,6.7619,6.7184,6.6822,6.6822,6.6822,6.6895,6.7003,6.7076,6.7438,6.8343,6.9122,6.9648,6.9884,7.0135,7.0229,7.0462,7.0364,7.0045,6.9522,6.9229,6.8862,6.8385,6.8128,6.8862,7.0146,7.0624,7.1101,7.2606,7.1651,7.0513,7.0477,7.0293,7.0,6.9113,6.9079,6.9079,6.9079,6.9079,6.8977,6.8538,6.7861,6.7151,6.6745,6.6643,6.6677,6.5831,6.4444,6.4343,6.3531,6.2245,6.211,6.211,6.2245,6.2245,6.2279,6.2381,6.2415,6.2415,6.2347,6.1535,6.1569,6.2245,6.167,6.167,6.2313,6.2482,6.211,6.1298,6.0486,6.0013,5.981,5.9776,5.9776,5.9776,5.8457,5.7679,5.7509,5.5649,5.416,5.3213,5.2503,5.1792,5.0914,5.0779,5.0712,5.0744,5.1274,5.1862,5.2326,5.3306,5.4495,5.596,5.6519,5.7253,5.8425,5.9661,5.9977,5.918,5.9216,5.9289,5.947,6.0086,6.0557,6.0846,6.1534,6.2549,6.378,6.3671,6.4359,6.675,6.6931,6.7076,6.7655,6.7836,6.751,6.7076,6.6895,6.6822,6.6822,6.6895,6.7076,6.7764,6.7836,6.8488,6.9647,7.0149,7.0573,7.1065,7.1484,7.149,7.1941,7.134,7.0922,7.0779,7.0293,6.9853,6.9743,6.9559,7.0257,7.1688,7.2165,7.2642,7.3817,7.2973,7.2018,7.1908,7.1027,6.9743,7.0297,7.0297,7.0297,7.0297,7.0263,6.9857,6.9248,6.8538,6.8199,6.7557,6.6846,6.6812,6.6203,6.5189,6.4783,6.4005,6.299,6.2584,6.2618,6.2956,6.2584,6.2618,6.2922,6.2584,6.2415,6.2347,6.2042,6.2279,6.2888,6.2651,6.2685,6.2922,6.2212,6.1637,6.1264,6.052,6.008,6.008,6.008,6.008,6.008,5.9032,5.8321,5.7881,5.6494,5.5243,5.4126,5.3856,5.3176,5.199,5.2053,5.2149,5.2149,5.2775,5.3667,5.4799,5.5764,5.6885,5.8236,5.861,5.9213,6.0168,6.0593,6.0856,6.0919,6.0919,6.0919,6.0955,6.2005,6.273,6.2802,6.3889,6.4939,6.5627,6.5736,6.6207,6.7112,6.7474,6.7438,6.7366,6.7366,6.7221,6.6858,6.6822,6.6822,6.6822,6.7112,6.7873,6.9068,6.9285,6.9539,7.0294,7.0734,7.1127,7.1552,7.1755,7.1872,7.2114,7.1911,7.1626,7.1411,7.0954,7.0624,7.0183,7.011,7.0587,7.1725,7.1835,7.2569,7.367,7.2973,7.2129,7.2165,7.1211,6.9779,7.1312,7.1312,7.1312,7.1312,7.1244,7.05,6.9857,6.935,6.9147,6.8335,6.7151,6.7049,6.6542,6.5662,6.5087,6.4444,6.3734,6.3159,6.3193,6.3666,6.3159,6.3193,6.3666,6.3159,6.2821,6.2685,6.2651,6.2956,6.3463,6.3362,6.3362,6.3362,6.2347,6.1704,6.1535,6.0757,6.0283,6.0114,6.0283,6.0385,6.0351,5.981,5.9235,5.866,5.7949,5.6934,5.5683,5.5654,5.5077,5.3848,5.3802,5.3928,5.4193,5.4634,5.5562,5.7062,5.7871,5.8723,5.9785,6.0368,6.0955,6.1571,6.1788,6.215,6.273,6.2983,6.2911,6.2766,6.3599,6.4468,6.4903,6.5953,6.6931,6.7293,6.7692,6.7873,6.7728,6.8017,6.8054,6.7438,6.7366,6.7329,6.7148,6.7076,6.7082,6.7065,6.7499,6.8475,6.9917,7.0278,7.0377,7.0698,7.1132,7.1458,7.1494,7.1625,7.1811,7.1957,7.2108,7.1999,7.1676,7.1615,7.1394,7.0881,7.0697,7.1138,7.1688,7.1945,7.2679,7.3964,7.323,7.2165,7.2349,7.1651,7.022,7.1312,7.1312,7.1312,7.1312,7.1244,7.0534,7.0161,6.9992,6.9383,6.8639,6.7895,6.7793,6.7015,6.5797,6.5628,6.5189,6.458,6.4444,6.4444,6.4512,6.4444,6.4444,6.4478,6.441,6.4038,6.3497,6.3396,6.3396,6.3463,6.2821,6.2854,6.3429,6.3362,6.2888,6.2245,6.1535,6.0791,6.0114,6.0825,6.1197,6.1197,6.1129,6.1061,6.0994,6.0182,5.9438,5.8527,5.8131,5.7703,5.7326,5.6831,5.7086,5.8055,5.8444,5.9138,6.0339,6.0782,6.1466,6.2655,6.3498,6.3852,6.4106,6.4613,6.5011,6.5192,6.5881,6.57,6.4722,6.4396,6.5229,6.6351,6.6858,6.7619,6.8778,6.8452,6.8525,6.9575,6.9497,6.9062,6.9026,6.8778,6.8706,6.8017,6.7879,6.7758,6.7518,6.7635,6.8283,6.9645,7.0134,7.0505,7.1106,7.1494,7.1494,7.1494,7.1494,7.1651,7.1927,7.2018,7.2064,7.216,7.2247,7.2312,7.1945,7.2092,7.2349,7.2899,7.3487,7.3854,7.4551,7.4147,7.323,7.2716,7.2275,7.1358,7.1312,7.1312,7.1312,7.1312,7.1244,7.0973,7.0872,7.0804,7.0534,6.9958,6.9248,6.8808,6.776,6.6373,6.6339,6.617,6.5933,6.5899,6.5899,6.5865,6.5459,6.5222,6.5189,6.4783,6.4444,6.4106,6.3734,6.3491,6.3396,6.2753,6.255,6.2753,6.2448,6.2042,6.1704,6.0994,6.0419,6.0148,6.0892,6.1298,6.1298,6.1414,6.149,6.1389,6.0823,6.0387,6.0084,5.9694,5.9288,5.8831,5.8459,5.8527,5.9117,5.9395,6.0054,6.1098,6.1954,6.2671,6.3164,6.3961,6.4396,6.4396,6.512,6.5591,6.5627,6.6351,6.6858,6.7221,6.7221,6.7547,6.8162,6.9032,6.9865,7.0335,6.9865,6.9684,7.0263,6.9714,6.9207,6.9207,6.9207,6.9104,6.8748,6.8486,6.8418,6.8421,6.8434,6.8832,6.9931,7.0312,7.075,7.1327,7.1494,7.1494,7.1494,7.1494,7.162,7.1811,7.1927,7.2078,7.2292,7.2438,7.2496,7.2532,7.2532,7.2606,7.2789,7.3046,7.3377,7.4221,7.4441,7.345,7.2679,7.2532,7.1798,7.1312,7.1312,7.1312,7.1312,7.1312,7.1312,7.1312,7.1312,7.1312,7.0906,7.0161,6.9417,6.8368,6.7184,6.6914,6.6812,6.6812,6.6812,6.6812,6.6745,6.6237,6.6,6.5933,6.5459,6.5087,6.485,6.4377,6.3903,6.3531,6.299,6.2719,6.2618,6.2178,6.1806,6.1569,6.0994,6.0622,6.052,6.1235,6.168,6.1719,6.2029,6.2146,6.2112,6.1819,6.1624,6.1528,6.1398,6.1077,6.0604,6.0489,6.0544,6.0749,6.1019,6.1444,6.217,6.3429,6.4178,6.4178,6.512,6.57,6.5772,6.646,6.6895,6.704,6.7655,6.8561,6.9539,6.9792,6.9792,6.9973,7.0842,7.1458,7.1458,7.0987,7.0698,7.0661,7.0154,6.9865,6.9828,7.0004,6.9689,6.9348,6.8786,6.8398,6.8673,6.875,6.9139,7.0021,7.044,7.0811,7.1399,7.1494,7.1494,7.1494,7.1494,7.1593,7.1755,7.1903,7.2024,7.224,7.2416,7.2467,7.2467,7.2467,7.2532,7.2642,7.2642,7.2606,7.3156,7.345,7.3377,7.2679,7.2532,7.2312,7.1312,7.1312,7.1312,7.1312,7.1312,7.1312,7.1312,7.1312,7.1312,7.0906,7.0195,6.9451,6.8639,6.7827,6.7184,6.6812,6.6812,6.6812,6.6812,6.6812,6.6745,6.6745,6.6779,6.6711,6.6305,6.5662,6.5459,6.4783,6.3565,6.3463,6.3463,6.3396,6.326,6.2956,6.2381,6.2178,6.1907,6.14,6.2096,6.2625,6.2702,6.3314,6.3608,6.3535,6.3539,6.3483,6.3377,6.3471,6.3377,6.3208,6.3249,6.3585,6.4,6.4049,6.4049,6.4295,6.5634,6.6569,6.6677,6.7836,6.8736,6.8917,6.9352,7.0046,6.9756,7.0408,7.0915,7.1313,7.1205,7.1241,7.1241,7.1313,7.1494,7.1494,7.1458,7.1386,7.1422,7.1277,7.1386,7.1313,7.1173,7.069,6.9861,6.8654,6.8184,6.8186,6.8182,6.8573,6.9566,7.0166,7.0678,7.1272,7.1494,7.1494,7.1494,7.1494,7.1593,7.1687,7.178,7.1909,7.2151,7.2329,7.238,7.2401,7.232,7.2349,7.2459,7.2496,7.2459,7.2789,7.323,7.3083,7.2606,7.2532,7.2386,7.1312,7.1312,7.1312,7.1312,7.1312,7.1312,7.1312,7.1312,7.1312,7.1176,7.0804,7.0128,6.9383,6.8605,6.7861,6.7252,6.6846,6.6812,6.6812,6.6812,6.6812,6.6812,6.6812,6.6812,6.6711,6.6406,6.5933,6.4952,6.3666,6.3491,6.326,6.2854,6.2787,6.2618,6.2448,6.2415,6.2245,6.2115,6.2474,6.2885,6.3299,6.42,6.5021,6.5614,6.4881,6.453,6.4588,6.4389,6.4251,6.4281,6.4124,6.4137,6.4367,6.4396,6.4396,6.4541,6.5917,6.6822,6.7003,6.8271,6.9207,6.9243,6.9932,7.0408,7.0517,7.106,7.1494,7.1494,7.1494,7.1494,7.1494,7.1494,7.1494,7.1494,7.1494,7.1494,7.1494,7.1494,7.1494,7.1463,7.1336,7.0901,7.0076,6.9352,6.8604,6.811,6.8062,6.8508,6.9205,6.9743,7.0373,7.1207,7.1494,7.1494,7.1494,7.1494,7.1526,7.1625,7.1687,7.178,7.1964,7.2101,7.2182,7.1765,7.1749,7.155,7.1476,7.1762,7.1835,7.2312,7.2753,7.2789,7.2569,7.2349,7.2386,7.1312,7.1312,7.1312,7.1312,7.1312,7.1312,7.1312,7.1312,7.1312,7.1312,7.1176,7.05,6.9891,6.9316,6.8368,6.7658,6.7151,6.6948,6.6812,6.6812,6.6812,6.6812,6.6812,6.6812,6.6812,6.6677,6.6034,6.5121,6.4241,6.3734,6.326,6.2787,6.255,6.2415,6.2415,6.2696,6.2871,6.291,6.3226,6.3645,6.4129,6.5161,6.6141,6.6738,6.6212,6.5895,6.6089,6.5596,6.5356,6.5406,6.5183,6.5077,6.5192,6.541,6.5555,6.5736,6.7076,6.7945,6.809,6.9213,6.9937,6.9937,7.0408,7.0734,7.077,7.1205,7.1458,7.1494,7.1494,7.1494,7.1494,7.1494,7.1494,7.1494,7.1494,7.1494,7.1494,7.1494,7.1323,7.0911,7.0479,7.0043,6.9385,6.8644,6.7838,6.7207,6.734,6.7938,6.8553,6.9314,7.0131,7.111,7.1368,7.1431,7.1463,7.1494,7.1494,7.1526,7.1557,7.1687,7.1707,7.1878,7.1699,7.1209,7.0857,7.0576,7.0596,7.0889,7.1321,7.1762,7.1982,7.2055,7.2018,7.2055,7.2202,7.1312,7.1312,7.1312,7.1312,7.1312,7.1312,7.1312,7.1312,7.1312,7.1312,7.121,7.0567,7.0229,6.9857,6.8741,6.7996,6.7827,6.7252,6.688,6.6812,6.6812,6.6812,6.6812,6.6812,6.6812,6.6779,6.6102,6.5696,6.5459,6.4343,6.3666,6.3362,6.2787,6.2482,6.2415,6.3153,6.3679,6.3772,6.4312,6.4865,6.5297,6.6105,6.6848,6.7235,6.7415,6.7564,6.7819,6.7089,6.6589,6.6655,6.6684,6.6786,6.6714,6.7293,6.7836,6.7909,6.9358,7.0191,7.0299,7.0879,7.1241,7.1241,7.1422,7.1386,7.1386,7.1458,7.1494,7.1494,7.1494,7.1494,7.1494,7.1494,7.1494,7.1494,7.1494,7.1494,7.1494,7.1427,7.1042,7.0077,6.9401,6.8432,6.7341,6.669,6.6194,6.5833,6.6136,6.6897,6.7585,6.8598,6.9814,7.0747,7.111,7.124,7.1368,7.1494,7.1494,7.1494,7.1526,7.1557,7.1506,7.1545,7.1083,7.0588,6.9811,6.953,6.9898,7.022,7.0624,7.1027,7.1174,7.1615,7.1872,7.2055,7.2092,7.1312,7.1312,7.1312,7.1312,7.1312,7.1312,7.1312,7.1312,7.1312,7.1312,7.1278,7.1075,7.0703,7.0195,6.9654,6.918,6.8673,6.7929,6.732,6.6914,6.6812,6.6812,6.6812,6.6812,6.6812,6.6779,6.6576,6.617,6.5696,6.5189,6.4546,6.3632,6.3294,6.2888,6.2488,6.2814,6.3188,6.3614,6.4131,6.4743,6.5532,6.6527,6.7267,6.7708,6.7861,6.7921,6.7981,6.7221,6.6822,6.6822,6.6822,6.6822,6.6967,6.7547,6.7981,6.8162,6.9502,7.0408,7.048,7.106,7.1494,7.1494,7.1494,7.1494,7.1494,7.1494,7.1494,7.1494,7.1494,7.1494,7.1494,7.1494,7.1458,7.1494,7.1494,7.1463,7.1395,7.0802,7.0113,6.9465,6.8393,6.727,6.6371,6.57,6.5206,6.4841,6.5193,6.5823,6.6854,6.7629,6.8854,7.0194,7.0537,7.0976,7.1207,7.1304,7.1368,7.1399,7.1463,7.1494,7.1443,7.0919,7.0429,6.9741,6.8966,6.8778,6.9146,6.9596,7.0,7.0587,7.1064,7.1505,7.1982,7.2092,7.2055,7.1312,7.1312,7.1312,7.1312,7.1312,7.1312,7.1312,7.1312,7.1312,7.1312,7.1312,7.1312,7.1075,7.0601,7.0331,6.9958,6.9417,6.8402,6.7658,6.7218,6.688,6.6812,6.6812,6.6812,6.6812,6.6812,6.6812,6.6576,6.6102,6.588,6.5345,6.4566,6.3968,6.3493,6.2944,6.2906,6.3155,6.3641,6.4146,6.4875,6.5843,6.6868,6.758,6.7957,6.8017,6.8017,6.7945,6.7257,6.6822,6.6858,6.7076,6.7366,6.7692,6.8452,6.8887,6.914,7.0009,7.0806,7.0842,7.1277,7.1494,7.1494,7.1494,7.1494,7.1494,7.1494,7.1494,7.1494,7.1494,7.1494,7.1494,7.1205,7.1065,7.087,7.1159,7.1268,7.1163,7.0293,6.9355,6.8562,6.7306,6.603,6.5048,6.4483,6.4166,6.3922,6.4239,6.4682,6.5783,6.6485,6.7861,6.9035,6.9597,7.015,7.0943,7.111,7.1207,7.1304,7.1399,7.1463,7.1453,7.0464,6.9757,6.8779,6.7895,6.7991,6.8385,6.8908,6.9339,7.011,7.0881,7.1138,7.1431,7.1762,7.1798,7.1312,7.1312,7.1312,7.1312,7.1312,7.1312,7.1312,7.1312,7.1312,7.1312,7.1312,7.1312,7.1278,7.1109,7.0635,7.0331,7.0026,6.8876,6.8267,6.7929,6.7387,6.6948,6.6846,6.6812,6.6812,6.6812,6.6812,6.6779,6.6643,6.6302,6.6058,6.5799,6.4903,6.4123,6.384,6.3528,6.3595,6.3933,6.4532,6.5242,6.6052,6.7009,6.7656,6.7843,6.7836,6.7836,6.7728,6.7184,6.6858,6.6967,6.7583,6.8199,6.9098,6.9937,7.0227,7.0191,7.1024,7.135,7.1458,7.1458,7.1494,7.1494,7.1494,7.1494,7.1494,7.1494,7.1463,7.1463,7.1431,7.1395,7.1182,7.0717,7.0197,6.9868,7.0306,7.0698,7.0875,6.9895,6.8704,6.7549,6.618,6.4724,6.3388,6.3013,6.2819,6.2803,6.3283,6.3786,6.4362,6.534,6.6537,6.7543,6.8504,6.9283,7.0057,7.0475,7.0541,7.0872,7.0962,7.0974,7.0956,6.9968,6.8935,6.792,6.7409,6.7468,6.7826,6.8532,6.9201,7.0,7.0477,7.0587,7.0881,7.1284,7.1431,7.1312,7.1312,7.1312,7.1312,7.1312,7.1312,7.1312,7.1312,7.1312,7.1312,7.1312,7.1312,7.1312,7.1278,7.1109,7.1007,7.0703,6.9992,6.9586,6.935,6.8166,6.732,6.6914,6.6812,6.6812,6.6812,6.6812,6.6812,6.6812,6.6826,6.6779,6.6676,6.6181,6.5431,6.4618,6.4418,6.4343,6.4463,6.4876,6.5604,6.6494,6.6819,6.7053,6.7082,6.7148,6.7148,6.7112,6.6931,6.7112,6.7655,6.7873,6.838,6.9171,6.9932,7.0299,7.0408,7.0987,7.1458,7.1458,7.1422,7.1458,7.1494,7.135,7.1494,7.1494,7.1494,7.1431,7.1372,7.1207,7.079,7.0192,6.9738,6.9227,6.8751,6.9031,6.9659,7.0048,6.8958,6.7622,6.7024,6.5333,6.3833,6.2949,6.2537,6.2493,6.2522,6.2764,6.3108,6.3747,6.4283,6.5516,6.6654,6.7626,6.8385,6.9065,6.9565,6.9955,7.0332,7.0348,7.0174,6.9931,6.9285,6.8252,6.7244,6.7222,6.7219,6.7971,6.8705,6.9375,6.9944,7.022,7.044,7.0697,7.1027,7.1027,7.1312,7.1312,7.1312,7.1312,7.1312,7.1312,7.1312,7.1312,7.1312,7.1312,7.1312,7.1312,7.1312,7.1312,7.1312,7.1312,7.121,7.0534,7.0161,6.9891,6.8571,6.7523,6.6981,6.6812,6.6812,6.6812,6.6812,6.6812,6.6854,6.718,6.7283,6.7232,6.704,6.6497,6.5811,6.5593,6.5646,6.5723,6.5918,6.6392,6.7204,6.6931,6.6822,6.6822,6.6822,6.6822,6.6822,6.6822,6.7184,6.78,6.8054,6.838,6.9134,6.9642,6.9895,6.9932,7.0299,7.0517,7.0517,7.0517,7.0517,7.0517,7.0517,7.0517,7.048,7.0517,7.0454,7.0165,6.994,6.9463,6.8839,6.8109,6.7517,6.7118,6.7086,6.7763,6.9212,6.8046,6.6953,6.6036,6.4728,6.3227,6.2532,6.2454,6.2584,6.2787,6.2956,6.3193,6.3469,6.39,6.4511,6.573,6.6764,6.7565,6.8325,6.8868,6.9457,6.9848,7.027,6.9989,6.9286,6.8778,6.8077,6.7339,6.7143,6.7302,6.8203,6.8885,6.9217,6.9705,6.9981,7.0293,7.055,7.066,7.0624,7.1312,7.1312,7.1312,7.1312,7.1312,7.1312,7.1312,7.1312,7.1312,7.1312,7.1312,7.1312,7.1312,7.1312,7.1312,7.1312,7.1278,7.0703,7.0229,6.9688,6.8707,6.7692,6.688,6.6812,6.6812,6.6812,6.6812,6.6812,6.6896,6.7229,6.7557,6.7639,6.751,6.7315,6.6979,6.6936,6.7058,6.7092,6.7036,6.7267,6.768,6.7366,6.704,6.6822,6.6822,6.6822,6.6822,6.6858,6.7148,6.7836,6.7981,6.8416,6.9098,6.9207,6.9243,6.9279,6.9388,6.9388,6.9279,6.9424,6.9424,6.9539,6.9569,6.9394,6.9689,6.9767,6.9435,6.9121,6.8291,6.7963,6.7376,6.6249,6.5914,6.5952,6.5344,6.5855,6.7041,6.7085,6.6171,6.5433,6.4223,6.3243,6.2853,6.2685,6.2888,6.3531,6.3565,6.3565,6.3632,6.3854,6.4353,6.5102,6.5949,6.6759,6.7522,6.8245,6.8873,6.9424,7.009,7.003,6.9054,6.8488,6.7981,6.7613,6.7846,6.8196,6.872,6.9187,6.947,7.0014,7.0686,7.0559,7.033,7.033,7.033,7.1312,7.1312,7.1312,7.1312,7.1312,7.1312,7.1312,7.1312,7.1312,7.1312,7.1312,7.1312,7.1312,7.1312,7.1312,7.1312,7.1312,7.1041,7.0534,6.9316,6.9113,6.803,6.7083,6.6812,6.6812,6.6812,6.6812,6.6812,6.6896,6.7105,6.7516,6.7896,6.7916,6.7919,6.7854,6.7896,6.7905,6.7925,6.8008,6.8071,6.8078,6.7909,6.7474,6.704,6.6931,6.6858,6.6822,6.6822,6.6895,6.7184,6.7692,6.8343,6.885,6.9062,6.9026,6.9026,6.9134,6.9171,6.9171,6.9134,6.943,6.9828,6.9828,7.0341,7.0762,6.9913,6.9408,6.8839,6.7902,6.6848,6.6195,6.5748,6.5684,6.5823,6.5847,6.592,6.6362,6.5731,6.5362,6.5293,6.4683,6.3942,6.4051,6.3971,6.4106,6.4343,6.4275,6.4106,6.4038,6.4045,6.4504,6.5168,6.5583,6.6466,6.7146,6.8009,6.8795,6.946,7.0132,7.0517,6.9539,6.8995,6.8814,6.8742,6.8808,6.9159,6.9394,6.9973,7.0362,7.088,7.1244,7.0897,7.0587,7.0367,7.0293,7.1312,7.1312,7.1312,7.1312,7.1312,7.1312,7.1312,7.1312,7.1312,7.1312,7.1312,7.1312,7.1312,7.1312,7.1312,7.1312,7.1312,7.1278,7.0534,6.9383,6.9011,6.8233,6.7083,6.6812,6.6812,6.6812,6.6812,6.6812,6.6854,6.7097,6.7394,6.7765,6.7965,6.8266,6.8562,6.8784,6.9141,6.9297,6.9196,6.9156,6.9115,6.8706,6.8416,6.8017,6.7909,6.7909,6.7981,6.7945,6.7728,6.7583,6.78,6.7981,6.8054,6.809,6.8054,6.809,6.8488,6.838,6.8235,6.8452,6.8778,6.9285,6.9285,6.9565,6.9665,6.9081,6.8195,6.7408,6.6249,6.5142,6.4795,6.5044,6.5329,6.5759,6.5685,6.5651,6.5868,6.5557,6.528,6.5421,6.4923,6.4608,6.46,6.4823,6.4952,6.5019,6.5121,6.4986,6.5155,6.5196,6.5155,6.5541,6.5703,6.6193,6.6874,6.7776,6.8833,6.9637,7.0455,7.0834,7.0589,7.0263,7.0009,6.9787,6.9461,6.9642,6.9915,7.0562,7.093,7.1012,7.1055,7.1016,7.0844,7.044,7.0587,7.1312,7.1312,7.1312,7.1312,7.1312,7.1312,7.1312,7.1312,7.1312,7.1312,7.1312,7.1312,7.1312,7.1312,7.1312,7.1312,7.1312,7.1244,7.0534,6.9519,6.9383,6.847,6.7421,6.7083,6.6981,6.6846,6.6812,6.6812,6.6854,6.698,6.7146,6.7435,6.7799,6.8289,6.8938,6.9562,7.0059,7.0488,7.0386,7.0179,7.0123,6.9611,6.9316,6.9026,6.9243,6.9243,6.9316,6.9358,6.9249,6.8597,6.8416,6.8017,6.751,6.6895,6.6901,6.701,6.771,6.783,6.7697,6.7842,6.8167,6.8156,6.8306,6.848,6.8629,6.8126,6.7299,6.6215,6.5318,6.4393,6.3956,6.4796,6.5406,6.5703,6.5324,6.529,6.5745,6.616,6.5982,6.5437,6.5255,6.5121,6.5169,6.5324,6.5493,6.5662,6.5764,6.5831,6.5967,6.5967,6.5797,6.5662,6.5764,6.6343,6.7025,6.794,6.8982,6.9672,7.0601,7.1027,7.1277,7.106,7.0661,7.0154,6.9937,7.0221,7.0501,7.0944,7.1132,7.1003,7.1216,7.15,7.1154,7.055,7.0917,7.1312,7.1312,7.1312,7.1312,7.1312,7.1312,7.1312,7.1312,7.1312,7.1312,7.1312,7.1312,7.1312,7.1312,7.1312,7.1312,7.1312,7.1244,7.0804,7.0026,6.9857,6.9079,6.7861,6.7557,6.7354,6.6948,6.6812,6.6812,6.6812,6.6854,6.6938,6.7022,6.7394,6.8088,6.9013,6.9635,7.0339,7.1143,7.1151,7.092,7.0517,7.033,6.9968,6.9569,6.9932,7.0154,7.0335,7.077,7.106,7.0879,7.0335,6.9901,6.9176,6.7806,6.7276,6.7481,6.7652,6.7779,6.7868,6.7995,6.8466,6.8896,6.8932,6.9158,6.9173,6.847,6.7336,6.6676,6.5984,6.5413,6.5331,6.5764,6.6339,6.6542,6.644,6.6339,6.6508,6.6558,6.6403,6.5834,6.5718,6.5711,6.5839,6.5967,6.6102,6.6237,6.6305,6.617,6.6034,6.6,6.5831,6.5764,6.5696,6.6459,6.7216,6.8297,6.9275,6.9814,7.0573,7.12,7.1422,7.1458,7.1168,7.0734,7.0698,7.0987,7.1262,7.1391,7.1478,7.149,7.1742,7.2058,7.1749,7.1411,7.1688,7.1312,7.1312,7.1312,7.1312,7.1312,7.1312,7.1312,7.1312,7.1312,7.1312,7.1312,7.1312,7.1312,7.1312,7.1312,7.1312,7.1312,7.1312,7.0872,7.0331,7.0094,6.9383,6.8098,6.7929,6.7455,6.7015,6.6812,6.6846,6.6812,6.6812,6.6812,6.6938,6.727,6.8049,6.9015,6.9635,7.0406,7.1272,7.1494,7.135,7.0987,7.0951,7.0661,7.0625,7.0698,7.0915,7.1024,7.1241,7.1277,7.0879,7.0584,7.016,6.9452,6.8708,6.7858,6.813,6.8195,6.8079,6.7994,6.7934,6.8222,6.8505,6.8646,6.8822,6.8814,6.8127,6.7115,6.6249,6.6131,6.582,6.567,6.6406,6.6745,6.6812,6.6812,6.6812,6.6812,6.6812,6.6576,6.6271,6.6271,6.638,6.6508,6.6643,6.6745,6.6812,6.6812,6.6576,6.6237,6.617,6.6102,6.6136,6.6177,6.6588,6.7414,6.8412,6.931,6.9885,7.0609,7.1272,7.1494,7.1494,7.1494,7.1313,7.1458,7.1494,7.1557,7.1506,7.1707,7.1903,7.2011,7.2153,7.2314,7.2409,7.2504,7.0872,7.0872,7.0872,7.0939,7.1075,7.1109,7.1176,7.1278,7.1312,7.1312,7.1312,7.1312,7.1312,7.1312,7.1312,7.1312,7.1312,7.1312,7.0973,7.0601,7.0466,6.9654,6.8741,6.8233,6.803,6.7252,6.7151,6.6948,6.6846,6.6812,6.6812,6.6938,6.727,6.8049,6.9052,6.9564,7.0474,7.1139,7.1494,7.1494,7.1531,7.1675,7.1639,7.1639,7.1784,7.1965,7.182,7.2074,7.1893,7.1494,7.1096,7.0568,6.9697,6.9182,6.888,6.8824,6.8948,6.8394,6.8082,6.7829,6.8101,6.8206,6.8101,6.8191,6.8169,6.761,6.6582,6.5454,6.5561,6.6042,6.6102,6.6474,6.6745,6.6812,6.6812,6.6812,6.6812,6.6812,6.6812,6.6711,6.6812,6.6812,6.6812,6.6812,6.6812,6.6812,6.6812,6.6812,6.6542,6.6609,6.6576,6.6643,6.6719,6.6928,6.7569,6.8447,6.92,6.9778,7.0609,7.1399,7.1494,7.1494,7.1494,7.1463,7.1494,7.1494,7.1557,7.1625,7.1718,7.1842,7.2024,7.2174,7.2329,7.2387,7.2409,6.935,6.9383,6.9383,6.9722,7.0297,7.0364,7.0737,7.1244,7.1278,7.1312,7.1312,7.1312,7.1312,7.1312,7.1312,7.1312,7.1312,7.1278,7.121,7.1041,7.1007,7.0567,6.9925,6.9925,6.8808,6.7827,6.7692,6.7387,6.6948,6.6812,6.6812,6.6896,6.7312,6.8049,6.9126,6.9564,7.0371,7.1304,7.1494,7.1463,7.154,7.2046,7.1938,7.1938,7.2481,7.2846,7.2308,7.2561,7.285,7.2955,7.2517,7.2171,7.1729,7.0716,6.9918,6.9247,6.8712,6.8284,6.8299,6.8054,6.7891,6.7891,6.796,6.798,6.7742,6.7495,6.6848,6.6693,6.6609,6.6576,6.6542,6.6711,6.6812,6.6812,6.6812,6.6812,6.6812,6.6812,6.6812,6.6812,6.6812,6.6812,6.6812,6.6812,6.6812,6.6812,6.6812,6.6812,6.6812,6.6812,6.6812,6.6812,6.6854,6.7022,6.7523,6.8443,6.9052,6.9635,7.0475,7.1336,7.1336,7.1304,7.1463,7.1463,7.1463,7.1494,7.1526,7.1593,7.1656,7.1749,7.1872,7.2091,7.227,7.2329,7.2351,6.8301,6.9079,6.9079,6.9282,6.962,6.9992,7.0364,7.0703,7.1142,7.1312,7.1312,7.1312,7.1312,7.1312,7.1312,7.1312,7.1312,7.1312,7.1312,7.1312,7.1244,7.0906,7.0297,7.0094,6.9383,6.8368,6.7827,6.7455,6.7049,6.688,6.6812,6.6854,6.7312,6.8049,6.9126,6.9599,7.044,7.1107,7.134,7.1143,7.1153,7.1303,7.1309,7.0985,7.1704,7.1776,7.1704,7.1704,7.1991,7.1919,7.156,7.1285,7.0837,7.0133,6.9455,6.8825,6.8158,6.7851,6.7896,6.7604,6.7441,6.7394,6.7394,6.7277,6.7229,6.7105,6.6972,6.6812,6.6812,6.6812,6.6812,6.6812,6.6812,6.6812,6.6812,6.6812,6.6812,6.6812,6.6812,6.6812,6.6812,6.6812,6.6812,6.6812,6.6812,6.6812,6.6812,6.6812,6.6812,6.6812,6.6812,6.6812,6.6854,6.698,6.7523,6.8245,6.8787,6.9382,7.0096,7.0781,7.0979,7.1078,7.1207,7.1368,7.1431,7.1463,7.1494,7.1526,7.1593,7.1656,7.1718,7.1872,7.2091,7.2299,7.2321,6.7489,6.8504,6.8538,6.8639,6.8842,6.9383,6.9857,7.0263,7.077,7.1109,7.1278,7.1312,7.1312,7.1312,7.1312,7.1312,7.1312,7.1312,7.1312,7.1312,7.1244,7.1007,7.0703,7.0398,6.9823,6.847,6.8707,6.8267,6.7726,6.7421,6.7354,6.6846,6.727,6.8128,6.9015,6.9636,7.0303,7.1207,7.1012,7.0747,7.0547,7.052,7.0415,7.0309,7.0344,7.038,7.0202,7.0237,7.0237,7.0273,7.0273,7.0062,6.9633,6.9231,6.8746,6.8201,6.7616,6.7332,6.7277,6.7105,6.6854,6.6812,6.6812,6.6938,6.6854,6.6812,6.6812,6.6812,6.6812,6.6812,6.6812,6.6812,6.6812,6.6812,6.6812,6.6812,6.6812,6.6812,6.6812,6.6812,6.6812,6.6812,6.6812,6.6812,6.6812,6.6812,6.6812,6.6812,6.6812,6.6812,6.6812,6.6812,6.6812,6.6938,6.7394,6.8004,6.8555,6.9085,6.9742,7.0201,7.0373,7.0644,7.0878,7.1042,7.1336,7.1431,7.1494,7.1494,7.1494,7.1593,7.1625,7.1718,7.1872,7.2084,7.2299,6.688,6.6948,6.7015,6.7421,6.7996,6.803,6.8876,6.9958,7.0229,7.0703,7.1278,7.1312,7.1312,7.1312,7.1312,7.1312,7.1312,7.1312,7.1312,7.1312,7.1278,7.1244,7.1075,7.0973,7.0703,6.9958,6.9688,6.935,6.9011,6.8538,6.7929,6.7091,6.7543,6.8236,6.9013,6.9742,7.0166,7.0781,7.0577,7.02,7.0026,6.9987,6.9908,6.9591,6.9873,7.0049,6.938,6.931,6.931,6.9345,6.9345,6.9161,6.8787,6.844,6.8009,6.7678,6.7229,6.698,6.6896,6.6896,6.6812,6.6812,6.6812,6.6812,6.6812,6.6812,6.6812,6.6812,6.6812,6.6812,6.6812,6.6812,6.6812,6.6812,6.6812,6.6812,6.6812,6.6812,6.6812,6.6812,6.6812,6.6812,6.6812,6.6812,6.6812,6.6812,6.6812,6.6812,6.6812,6.6812,6.6812,6.6812,6.6812,6.6938,6.7222,6.7684,6.8167,6.8555,6.9085,6.9453,6.9707,7.0025,7.0577,7.0911,7.1207,7.1368,7.1494,7.1494,7.1494,7.1494,7.1562,7.1656,7.178,7.203,7.2181,6.6812,6.6812,6.6812,6.6981,6.7252,6.7692,6.8233,6.891,6.9789,7.0601,7.1312,7.1312,7.1312,7.1312,7.1312,7.1312,7.1312,7.1312,7.1312,7.1312,7.1312,7.1312,7.1312,7.121,7.0906,7.0364,7.0161,6.9823,6.9113,6.9248,6.891,6.8362,6.8258,6.8728,6.945,6.9846,7.0202,7.0096,6.992,6.9526,6.9229,6.892,6.8833,6.8659,6.8694,6.8868,6.8555,6.8555,6.852,6.852,6.852,6.8362,6.8128,6.7845,6.7563,6.7312,6.698,6.6812,6.6812,6.6812,6.6812,6.6812,6.6812,6.6812,6.6812,6.6812,6.6812,6.6812,6.688,6.6914,6.688,6.6846,6.6812,6.6812,6.688,6.6981,6.7049,6.7151,6.7151,6.7286,6.7015,6.6812,6.6812,6.6812,6.6812,6.6812,6.6812,6.6812,6.6812,6.6812,6.6812,6.6812,6.6812,6.6854,6.7139,6.7475,6.7805,6.8128,6.8478,6.8863,6.9309,6.9885,7.0373,7.0745,7.1143,7.1368,7.1494,7.1494,7.1494,7.1494,7.1562,7.1593,7.1749,7.1939,7.2134,6.6812,6.6812,6.6812,6.6812,6.688,6.7354,6.7692,6.8098,6.9282,7.0432,7.1278,7.1312,7.1312,7.1312,7.1312,7.1312,7.1312,7.1312,7.1312,7.1312,7.1312,7.1312,7.1312,7.1244,7.1075,7.0601,7.05,7.0229,6.9958,6.9789,6.9789,6.9717,6.9408,6.9557,6.942,6.9876,6.992,6.9526,6.9122,6.8743,6.8358,6.7959,6.7719,6.7684,6.7793,6.7793,6.7684,6.7684,6.7725,6.7725,6.7684,6.7604,6.7516,6.7353,6.7229,6.7097,6.6972,6.6812,6.6812,6.6812,6.6812,6.6812,6.6812,6.6812,6.6812,6.6846,6.688,6.7218,6.7184,6.7184,6.732,6.7658,6.7726,6.7895,6.7861,6.7895,6.7861,6.7929,6.7827,6.7793,6.7624,6.7658,6.7692,6.7726,6.7286,6.7151,6.6812,6.6812,6.6812,6.6812,6.6812,6.6812,6.6812,6.6896,6.7056,6.7297,6.7503,6.7684,6.8083,6.8593,6.9085,6.9741,7.0306,7.0678,7.1078,7.1399,7.1531,7.1567,7.1531,7.1494,7.1562,7.1562,7.1625,7.1816,7.2163,6.6812,6.6812,6.6812,6.6812,6.6812,6.6846,6.7218,6.7861,6.8808,6.9992,7.121,7.1312,7.1312,7.1312,7.1312,7.1312,7.1312,7.1312,7.1312,7.1312,7.1312,7.1312,7.1312,7.1278,7.1244,7.1278,7.1142,7.1041,7.1041,7.0872,7.0973,7.0849,7.0323,6.9867,6.9262,6.9209,6.9048,6.8708,6.8423,6.8068,6.7775,6.7297,6.7063,6.7063,6.7063,6.7105,6.7105,6.7105,6.7105,6.7105,6.7063,6.7022,6.698,6.6938,6.6896,6.6854,6.6812,6.6812,6.6812,6.6812,6.6812,6.6812,6.6812,6.6812,6.6812,6.6914,6.7151,6.7557,6.7827,6.8199,6.8605,6.891,6.8774,6.8707,6.8639,6.8605,6.8538,6.8504,6.8402,6.8335,6.8707,6.8977,6.8977,6.8774,6.8064,6.759,6.7015,6.6914,6.7083,6.7252,6.7421,6.7455,6.7489,6.7531,6.7608,6.7193,6.7184,6.7373,6.7999,6.8838,6.9459,7.0198,7.0593,7.0825,7.1408,7.203,7.187,7.1639,7.1929,7.2255,7.1639,7.1562,7.1593,7.1837,7.2258,6.6812,6.6812,6.6812,6.6812,6.6812,6.6812,6.6981,6.7387,6.8538,6.9925,7.1075,7.1312,7.1312,7.1312,7.1312,7.1312,7.1312,7.1312,7.1312,7.1312,7.1312,7.1312,7.1312,7.1312,7.1312,7.1312,7.1312,7.1312,7.1244,7.1312,7.1312,7.1153,7.0734,7.0132,6.9859,6.9802,6.9807,6.9423,6.8904,6.8275,6.7952,6.7319,6.6846,6.688,6.6846,6.6812,6.6812,6.6812,6.6812,6.6812,6.6812,6.6812,6.6812,6.6812,6.6812,6.6812,6.6812,6.6812,6.6812,6.6812,6.6812,6.6846,6.688,6.6914,6.6846,6.732,6.7624,6.7996,6.847,6.8842,6.9011,6.9079,6.9011,6.8977,6.8944,6.8944,6.891,6.8944,6.891,6.8876,6.9079,6.9248,6.9282,6.9553,6.9045,6.8808,6.8402,6.8166,6.8267,6.8402,6.8538,6.8538,6.8538,6.8436,6.8267,6.7963,6.8023,6.8428,6.909,6.9854,7.0461,7.0721,7.1302,7.1658,7.2215,7.2725,7.264,7.2658,7.2983,7.3052,7.24,7.1929,7.1924,7.2173,7.2568,6.6812,6.6812,6.6812,6.6812,6.6812,6.6812,6.6914,6.7387,6.8571,6.9823,7.077,7.1142,7.1312,7.1312,7.1312,7.1312,7.1312,7.1312,7.1312,7.1312,7.1312,7.1312,7.1312,7.1312,7.1312,7.1312,7.1312,7.1312,7.1312,7.1312,7.1312,7.1176,7.0838,7.0653,7.0396,7.0191,6.9719,6.9415,6.8939,6.8719,6.8345,6.7811,6.7252,6.7151,6.7015,6.6812,6.6812,6.6812,6.6812,6.6812,6.6812,6.6812,6.6812,6.6812,6.6812,6.6812,6.6812,6.6812,6.6812,6.6812,6.6914,6.7252,6.7184,6.7354,6.7557,6.8098,6.847,6.8842,6.918,6.9553,6.9755,6.9722,6.9755,6.9755,6.9755,6.9789,6.9823,6.9891,6.9857,6.9789,6.9722,6.9755,6.9755,6.9958,6.9992,6.9958,6.9857,6.962,6.9316,6.9282,6.9316,6.9282,6.918,6.8977,6.8876,6.8808,6.9024,6.9484,7.0009,7.0601,7.0739,7.0944,7.1713,7.2404,7.262,7.2929,7.3513,7.3751,7.3714,7.353,7.316,7.2726,7.2364,7.2685,7.3188,6.6812,6.6812,6.6812,6.6812,6.6812,6.6812,6.7218,6.7895,6.8673,6.9485,7.0263,7.0973,7.121,7.1278,7.1312,7.1312,7.1312,7.1312,7.1312,7.1312,7.1312,7.1312,7.1312,7.1312,7.1312,7.1312,7.1312,7.1312,7.1312,7.1312,7.1312,7.1312,7.1176,7.1096,7.0734,7.027,6.9804,6.9693,6.9456,6.9277,6.9021,6.8412,6.7929,6.7658,6.732,6.6981,6.688,6.6812,6.6812,6.6812,6.6812,6.6812,6.6812,6.6812,6.6812,6.6812,6.6812,6.6812,6.6846,6.6846,6.7387,6.7861,6.8064,6.8436,6.8707,6.8944,6.9282,6.9654,7.006,7.0567,7.0973,7.0973,7.0973,7.1007,7.1007,7.1007,7.1041,7.1041,7.1041,7.0973,7.0939,7.0906,7.0838,7.0906,7.0635,7.0703,7.0567,7.0331,7.0026,6.9755,6.9755,6.9722,6.962,6.9417,6.9383,6.962,6.9819,7.0284,7.0472,7.0857,7.1036,7.132,7.1991,7.2519,7.2651,7.3119,7.3933,7.417,7.4052,7.3868,7.3805,7.3534,7.3212,7.3563,7.403,6.6812,6.6812,6.6812,6.6812,6.6812,6.6812,6.7218,6.7895,6.8199,6.8944,7.0229,7.0398,7.0838,7.1278,7.1312,7.1312,7.1312,7.1312,7.1312,7.1312,7.1312,7.1312,7.1312,7.1312,7.1312,7.1312,7.1312,7.1312,7.1312,7.1312,7.1312,7.1312,7.1312,7.1312,7.1142,7.0872,7.0669,7.0432,7.006,6.9925,6.9688,6.9147,6.8639,6.8098,6.7726,6.7354,6.7015,6.6846,6.6846,6.6812,6.6812,6.6812,6.6812,6.6812,6.6812,6.6812,6.6812,6.6846,6.6914,6.732,6.7929,6.8673,6.9113,6.918,6.9383,6.962,6.9992,7.0331,7.0635,7.1075,7.121,7.1278,7.1312,7.1312,7.1312,7.1312,7.1312,7.1312,7.1312,7.1312,7.1312,7.1312,7.1312,7.1244,7.1041,7.121,7.1176,7.0906,7.0703,7.0432,7.0297,7.0263,7.0297,7.0161,7.0466,7.0703,7.0836,7.1022,7.1054,7.1208,7.153,7.1898,7.2371,7.2674,7.2938,7.368,7.4619,7.4583,7.4189,7.4618,7.4619,7.4322,7.416,7.4377,7.4555,6.6812,6.6812,6.6812,6.6812,6.6812,6.6812,6.7083,6.7489,6.776,6.8504,6.9316,6.9925,7.0466,7.0838,7.1142,7.1312,7.1312,7.1312,7.1312,7.1312,7.1312,7.1312,7.1312,7.1312,7.1312,7.1312,7.1312,7.1312,7.1312,7.1312,7.1312,7.1312,7.1312,7.1312,7.1244,7.121,7.1244,7.1075,7.0906,7.0703,7.0364,6.9925,6.9282,6.8774,6.8368,6.7692,6.7286,6.7083,6.6846,6.6812,6.6812,6.6812,6.6812,6.6812,6.7083,6.7151,6.732,6.7557,6.7827,6.8166,6.8774,6.9383,6.9925,7.006,7.0229,7.0466,7.0601,7.0804,7.1075,7.1312,7.1312,7.1312,7.1312,7.1312,7.1312,7.1312,7.1312,7.1312,7.1312,7.1312,7.1312,7.1312,7.1312,7.1312,7.1312,7.1312,7.1312,7.121,7.1109,7.1007,7.0906,7.0906,7.1007,7.1075,7.1312,7.1312,7.1266,7.1175,7.1274,7.1494,7.1942,7.2013,7.208,7.2617,7.3292,7.3881,7.431,7.4456,7.4317,7.46,7.46,7.4217,7.4118,7.4547,7.4796,6.6745,6.6812,6.6812,6.6812,6.6812,6.6812,6.6846,6.688,6.7489,6.7861,6.8233,6.9451,7.0128,7.0432,7.0973,7.1278,7.1312,7.1312,7.1312,7.1312,7.1312,7.1312,7.1312,7.1312,7.1312,7.1312,7.1312,7.1312,7.1312,7.1312,7.1312,7.1312,7.1312,7.1312,7.1312,7.1312,7.1312,7.1278,7.121,7.1109,7.1041,7.0669,7.0195,6.9857,6.9011,6.8098,6.7827,6.7421,6.688,6.6914,6.6846,6.6846,6.6812,6.7015,6.7354,6.7692,6.7895,6.8267,6.8639,6.8977,6.9417,6.9891,7.0263,7.0601,7.0838,7.0973,7.1007,7.1041,7.1278,7.1312,7.1312,7.1312,7.1312,7.1312,7.1312,7.1312,7.1312,7.1312,7.1312,7.1312,7.1312,7.1312,7.1312,7.1312,7.1312,7.1312,7.1312,7.1312,7.1312,7.1312,7.1312,7.1312,7.1312,7.1312,7.1312,7.1312,7.1312,7.1323,7.1356,7.1401,7.159,7.1634,7.1644,7.2262,7.2894,7.3189,7.3522,7.3637,7.3716,7.3716,7.3716,7.3716,7.3959,7.4237,7.4537,6.6305,6.6812,6.6812,6.6812,6.6812,6.6812,6.6812,6.6846,6.6981,6.7387,6.7996,6.8876,6.9688,7.0161,7.0872,7.1244,7.1312,7.1312,7.1312,7.1312,7.1312,7.1312,7.1312,7.1312,7.1312,7.1312,7.1312,7.1312,7.1312,7.1312,7.1312,7.1312,7.1312,7.1312,7.1312,7.1312,7.1312,7.1312,7.1312,7.1312,7.1244,7.1142,7.0838,7.0364,6.9553,6.918,6.8774,6.8064,6.776,6.759,6.7049,6.688,6.6812,6.7354,6.7692,6.7963,6.8538,6.8944,6.9316,6.9688,7.006,7.0331,7.0635,7.1007,7.1244,7.1278,7.1312,7.1312,7.1312,7.1312,7.1312,7.1312,7.1312,7.1312,7.1312,7.1312,7.1312,7.1312,7.1312,7.1312,7.1312,7.1312,7.1312,7.1312,7.1312,7.1312,7.1312,7.1312,7.1312,7.1312,7.1312,7.1312,7.1312,7.1312,7.1312,7.1312,7.1312,7.1312,7.1312,7.1312,7.1312,7.1412,7.159,7.1942,7.2382,7.2602,7.2735,7.2818,7.2901,7.2901,7.286,7.286,7.2901,7.3084,7.3562,6.5933,6.6339,6.6677,6.6812,6.6812,6.6812,6.6812,6.6812,6.6812,6.7049,6.7489,6.8233,6.8977,6.9722,7.0466,7.1109,7.121,7.1312,7.1312,7.1312,7.1312,7.1312,7.1312,7.1312,7.1312,7.1312,7.1312,7.1312,7.1312,7.1312,7.1312,7.1312,7.1312,7.1312,7.1312,7.1312,7.1312,7.1312,7.1312,7.1312,7.1312,7.1244,7.1176,7.0737,7.0331,6.9992,6.9553,6.8876,6.8538,6.8402,6.8098,6.7963,6.803,6.8267,6.8605,6.8977,6.9383,6.9722,7.006,7.0331,7.0635,7.0838,7.0939,7.1278,7.1278,7.1312,7.1312,7.1312,7.1312,7.1312,7.1312,7.1312,7.1312,7.1312,7.1312,7.1312,7.1312,7.1312,7.1312,7.1312,7.1312,7.1312,7.1312,7.1312,7.1312,7.1312,7.1312,7.1312,7.1312,7.1312,7.1312,7.1312,7.1312,7.1312,7.1312,7.1312,7.1312,7.1312,7.1312,7.1312,7.1312,7.1367,7.1546,7.1722,7.181,7.1854,7.1951,7.2167,7.2081,7.2038,7.2038,7.2038,7.2038,7.2124,7.2432,6.5493,6.5764,6.6508,6.6812,6.6812,6.6812,6.6812,6.6812,6.6812,6.6812,6.6914,6.7523,6.8233,6.8977,6.9857,7.0534,7.1007,7.121,7.1278,7.1312,7.1312,7.1312,7.1312,7.1312,7.1312,7.1312,7.1312,7.1312,7.1312,7.1312,7.1312,7.1312,7.1312,7.1312,7.1312,7.1312,7.1312,7.1312,7.1312,7.1312,7.1312,7.1312,7.1278,7.1041,7.0737,7.0364,7.0094,6.9722,6.9316,6.9113,6.8977,6.8842,6.891,6.9045,6.9451,6.9823,7.0161,7.0601,7.0973,7.1075,7.121,7.1278,7.1312,7.1312,7.1312,7.1312,7.1312,7.1312,7.1312,7.1312,7.1312,7.1312,7.1312,7.1312,7.1312,7.1312,7.1312,7.1312,7.1312,7.1312,7.1312,7.1312,7.1312,7.1312,7.1312,7.1312,7.1312,7.1312,7.1312,7.1312,7.1312,7.1312,7.1312,7.1312,7.1312,7.1312,7.1312,7.1312,7.1312,7.1312,7.1312,7.1356,7.1367,7.1356,7.1446,7.1491,7.1491,7.1546,7.1446,7.1446,7.1501,7.1634,7.159,7.1634,7.1457,6.4647,6.5764,6.6508,6.6812,6.6812,6.6812,6.6812,6.6812,6.6812,6.6812,6.6846,6.6948,6.7455,6.8233,6.962,7.0364,7.0601,7.1007,7.1278,7.1312,7.1312,7.1312,7.1312,7.1312,7.1312,7.1312,7.1312,7.1312,7.1312,7.1312,7.1312,7.1312,7.1312,7.1312,7.1312,7.1312,7.1312,7.1312,7.1312,7.1312,7.1312,7.1312,7.1312,7.121,7.1176,7.1109,7.0906,7.0331,7.0094,6.9823,6.9519,6.935,6.9451,6.9755,7.0094,7.0364,7.0703,7.1007,7.1278,7.1312,7.1312,7.1312,7.1312,7.1312,7.1312,7.1312,7.1312,7.1312,7.1312,7.1312,7.1312,7.1312,7.1312,7.1312,7.1312,7.1312,7.1312,7.1312,7.1312,7.1312,7.1312,7.1312,7.1312,7.1312,7.1312,7.1312,7.1312,7.1312,7.1312,7.1312,7.1312,7.1312,7.1312,7.1312,7.1312,7.1312,7.1312,7.1312,7.1312,7.1312,7.1312,7.1312,7.1312,7.1312,7.1312,7.1356,7.1312,7.1312,7.1312,7.1356,7.1312,7.1356,7.1312,7.1312,7.1312]}]]